[[{"header":{"parameterUnit":"m.s-1","parameterCategory":1,"la1":31.0,"la2":29.5877,"lo1":-88.7671,"lo2":-86.6584,"dy":0.0162,"dx":0.0185,"nx":115,"ny":88,"refTime":"2024-07-01T18:00:00:Z","depth":0,"parameterNumber":2,"parameterNumberName":"U-component_of_WINDS"},"data":[0.0,0.0,0.0,0.0,0.0,0.0,0.0,0.0,0.0,0.0,0.0,0.0,0.0,0.0,0.0,0.0,0.0,0.0,0.0,0.0,0.0,0.0,0.0,0.0,0.0,0.0,0.0,0.0,0.0,0.0,0.0,0.0,0.0,0.0,0.0,0.0,0.0,0.0,0.0,0.0,0.0,0.0,0.0,0.0,0.0,0.0,0.0,0.0,0.0,0.0,0.0,0.0,0.0,0.0,0.0,0.0,0.0,0.0,0.0,0.0,0.0,0.0,0.0,0.0,0.0,0.0,0.0,0.0,0.0,0.0,0.0,0.0,0.0,0.0,0.0,0.0,0.0,0.0,0.0,0.0,0.0,0.0,0.0,0.0,0.0,0.0,0.0,0.0,0.0,0.0,0.0,0.0,0.0,0.0,0.0,0.0,0.0,0.0,0.0,0.0,0.0,0.0,0.0,0.0,0.0,0.0,0.0,0.0,0.0,0.0,0.0,0.0,0.0,0.0,0.0,0.0,0.0,0.0,0.0,0.0,0.0,0.0,0.0,0.0,0.0,0.0,0.0,0.0,0.0,0.0,0.0,0.0,0.0,0.0,0.0,0.0,0.0,0.0,0.0,0.0,0.0,0.0,0.0,0.0,0.0,0.0,0.0,0.0,0.0,0.0,0.0,0.0,0.0,0.0,0.0,0.0,0.0,0.0,0.0,0.0,0.0,0.0,0.0,0.0,0.0,0.0,0.0,0.0,0.0,0.0,0.0,0.0,0.0,0.0,0.0,0.0,0.0,0.0,0.0,0.0,0.0,0.0,0.0,0.0,0.0,0.0,0.0,0.0,0.0,0.0,0.0,0.0,0.0,0.0,0.0,0.0,0.0,0.0,0.0,0.0,0.0,0.0,0.0,0.0,0.0,0.0,0.0,0.0,0.0,0.0,0.0,0.0,0.0,0.0,0.0,0.0,0.0,0.0,0.0,0.0,0.0,0.0,0.0,0.0,0.0,0.0,0.0,0.0,0.0,0.0,0.0,0.0,0.0,0.0,0.0,0.0,0.0,0.0,0.0,0.0,0.0,0.0,0.0,0.0,0.0,0.0,0.0,0.0,0.0,0.0,0.0,0.0,0.0,0.0,0.0,0.0,0.0,0.0,0.0,0.0,0.0,0.0,0.0,0.0,0.0,0.0,0.0,0.0,0.0,0.0,0.0,0.0,0.0,0.0,0.0,0.0,0.0,0.0,0.0,0.0,0.0,0.0,0.0,0.0,0.0,0.0,0.0,0.0,0.0,0.0,0.0,0.0,0.0,0.0,0.0,0.0,0.0,0.0,0.0,0.0,0.0,0.0,0.0,0.0,0.0,0.0,0.0,0.0,0.0,0.0,0.0,0.0,0.0,0.0,0.0,0.0,0.0,0.0,0.0,0.0,0.0,0.0,0.0,0.0,0.0,0.0,0.0,0.0,0.0,0.0,0.0,0.0,0.0,0.0,0.0,0.0,0.0,0.0,0.0,0.0,0.0,0.0,0.0,0.0,0.0,0.0,0.0,0.0,0.0,0.0,0.0,0.0,0.0,0.0,0.0,0.0,0.0,0.0,0.0,0.0,0.0,0.0,0.0,0.0,0.0,0.0,0.0,0.0,0.0,0.0,0.0,0.0,0.0,0.0,0.0,0.0,0.0,0.0,0.0,0.0,0.0,0.0,0.0,0.0,0.0,0.0,0.0,0.0,0.0,0.0,0.0,0.0,0.0,0.0,0.0,0.0,0.0,0.0,0.0,0.0,0.0,0.0,0.0,0.0,0.0,0.0,0.0,0.0,0.0,0.0,0.0,0.0,0.0,0.0,0.0,0.0,0.0,0.0,0.0,0.0,0.0,0.0,0.0,0.0,0.0,0.0,0.0,0.0,0.0,0.0,0.0,0.0,0.0,0.0,0.0,0.0,0.0,0.0,0.0,0.0,0.0,0.0,0.0,0.0,0.0,0.0,0.0,0.0,0.0,0.0,0.0,0.0,0.0,0.0,0.0,0.0,0.0,0.0,0.0,0.0,0.0,0.0,0.0,0.0,0.0,0.0,0.0,0.0,0.0,0.0,0.0,0.0,0.0,0.0,0.0,0.0,0.0,0.0,0.0,0.0,0.0,0.0,0.0,0.0,0.0,0.0,0.0,0.0,0.0,0.0,0.0,0.0,0.0,0.0,0.0,0.0,0.0,0.0,0.0,0.0,0.0,0.0,0.0,0.0,0.0,0.0,0.0,0.0,0.0,0.0,0.0,0.0,0.0,0.0,0.0,0.0,0.0,0.0,0.0,0.0,0.0,0.0,0.0,0.0,0.0,0.0,0.0,0.0,0.0,0.0,0.0,0.0,0.0,0.0,0.0,0.0,0.0,0.0,0.0,0.0,0.0,0.0,0.0,0.0,0.0,0.0,0.0,0.0,0.0,0.0,0.0,0.0,0.0,0.0,0.0,0.0,0.0,0.0,0.0,0.0,0.0,0.0,0.0,0.0,0.0,0.0,0.0,0.0,0.0,0.0,0.0,0.0,0.0,0.0,0.0,0.0,0.0,0.0,0.0,0.0,0.0,0.0,0.0,0.0,0.0,0.0,0.0,0.0,0.0,0.0,0.0,0.0,0.0,0.0,0.0,0.0,0.0,0.0,0.0,0.0,0.0,0.0,0.0,0.0,0.0,0.0,0.0,0.0,0.0,0.0,0.0,0.0,0.0,0.0,0.0,0.0,0.0,0.0,0.0,0.0,0.0,0.0,0.0,0.0,0.0,0.0,0.0,0.0,0.0,0.0,0.0,0.0,0.0,0.0,0.0,0.0,0.0,0.0,0.0,0.0,0.0,0.0,0.0,0.0,0.0,0.0,0.0,0.0,0.0,0.0,0.0,0.0,0.0,0.0,0.0,0.0,0.0,0.0,0.0,0.0,0.0,0.0,0.0,0.0,0.0,0.0,0.0,0.0,0.0,0.0,0.0,0.0,0.0,0.0,0.0,0.0,0.0,0.0,0.0,0.0,0.0,0.0,0.0,0.0,0.0,0.0,0.0,0.0,0.0,0.0,0.0,0.0,0.0,0.0,0.0,0.0,0.0,0.0,0.0,0.0,0.0,0.0,0.0,0.0,0.0,0.0,0.0,0.0,0.0,0.0,0.0,0.0,0.0,0.0,0.0,0.0,0.0,0.0,0.0,0.0,0.0,0.0,0.0,0.0,0.0,0.0,0.0,0.0,0.0,0.0,0.0,0.0,0.0,0.0,0.0,0.0,0.0,0.0,0.0,0.0,0.0,0.0,0.0,0.0,0.0,0.0,0.0,0.0,0.0,0.0,0.0,0.0,0.0,0.0,0.0,0.0,0.0,0.0,0.0,0.0,0.0,0.0,0.0,0.0,0.0,0.0,0.0,0.0,0.0,0.0,0.0,0.0,0.0,0.0,0.0,0.0,0.0,0.0,0.0,0.0,0.0,0.0,0.0,0.0,0.0,0.0,0.0,0.0,0.0,0.0,0.0,0.0,0.0,0.0,0.0,0.0,0.0,0.0,0.0,0.0,0.0,0.0,0.0,0.0,0.0,0.0,0.0,0.0,0.0,0.0,0.0,0.0,0.0,0.0,0.0,0.0,0.0,0.0,0.0,0.0,0.0,0.0,0.0,0.0,0.0,0.0,0.0,0.0,0.0,0.0,0.0,0.0,0.0,0.0,0.0,0.0,0.0,0.0,0.0,0.0,0.0,0.0,0.0,0.0,0.0,0.0,0.0,0.0,0.0,0.0,0.0,0.0,0.0,0.0,0.0,0.0,0.0,0.0,0.0,0.0,0.0,0.0,0.0,0.0,0.0,0.0,0.0,0.0,0.0,0.0,0.0,0.0,0.0,0.0,0.0,0.0,0.0,0.0,0.0,0.0,0.0,0.0,0.0,0.0,0.0,0.0,0.0,0.0,0.0,0.0,0.0,0.0,0.0,0.0,0.0,0.0,0.0,0.0,0.0,0.0,0.0,0.0,0.0,0.0,0.0,0.0,0.0,0.0,0.0,0.0,0.0,0.0,0.0,0.0,0.0,0.0,0.0,0.0,0.0,0.0,0.0,0.0,0.0,0.0,0.0,0.0,0.0,0.0,0.0,0.0,0.0,0.0,0.0,0.0,0.0,0.0,0.0,0.0,0.0,0.0,0.0,0.0,0.0,0.0,0.0,0.0,0.0,0.0,0.0,0.0,0.0,0.0,0.0,0.0,0.0,0.0,0.0,0.0,0.0,0.0,0.0,0.0,0.0,0.0,0.0,0.0,-3.2916,0.0,0.0,0.0,0.0,0.0,0.0,0.0,0.0,0.0,0.0,0.0,0.0,0.0,0.0,0.0,0.0,0.0,0.0,0.0,0.0,0.0,0.0,0.0,0.0,0.0,0.0,0.0,0.0,0.0,0.0,0.0,0.0,0.0,0.0,0.0,0.0,0.0,0.0,0.0,0.0,0.0,0.0,0.0,0.0,0.0,0.0,0.0,0.0,0.0,0.0,0.0,0.0,0.0,0.0,0.0,0.0,0.0,0.0,0.0,0.0,0.0,0.0,0.0,0.0,0.0,0.0,0.0,0.0,0.0,0.0,0.0,0.0,0.0,0.0,0.0,0.0,0.0,0.0,0.0,0.0,0.0,0.0,0.0,0.0,0.0,0.0,0.0,0.0,0.0,0.0,0.0,0.0,0.0,0.0,0.0,0.0,0.0,0.0,0.0,0.0,0.0,0.0,0.0,0.0,0.0,0.0,0.0,0.0,0.0,0.0,-3.5923,-3.5581,-3.5932,-3.5115,-3.2987,0.0,0.0,0.0,0.0,0.0,0.0,0.0,0.0,0.0,0.0,0.0,0.0,0.0,0.0,0.0,0.0,0.0,0.0,0.0,0.0,0.0,0.0,0.0,0.0,0.0,0.0,0.0,0.0,0.0,0.0,0.0,0.0,0.0,0.0,0.0,0.0,0.0,0.0,0.0,0.0,0.0,0.0,0.0,0.0,0.0,0.0,0.0,0.0,0.0,0.0,0.0,0.0,0.0,0.0,0.0,0.0,0.0,0.0,0.0,0.0,0.0,0.0,0.0,0.0,0.0,0.0,0.0,0.0,0.0,0.0,0.0,0.0,0.0,0.0,0.0,0.0,0.0,0.0,0.0,0.0,0.0,0.0,0.0,0.0,0.0,0.0,0.0,0.0,0.0,0.0,0.0,0.0,0.0,0.0,0.0,0.0,0.0,0.0,0.0,0.0,0.0,0.0,0.0,0.0,0.0,0.0,0.0,0.0,0.0,0.0,0.0,0.0,-3.6963,-3.6007,-3.3609,0.0,0.0,0.0,0.0,0.0,0.0,0.0,0.0,0.0,0.0,0.0,0.0,0.0,0.0,0.0,0.0,0.0,0.0,0.0,0.0,0.0,0.0,0.0,0.0,0.0,0.0,0.0,0.0,0.0,0.0,0.0,0.0,0.0,0.0,0.0,0.0,0.0,0.0,0.0,0.0,0.0,0.0,0.0,0.0,0.0,0.0,0.0,0.0,0.0,0.0,0.0,0.0,0.0,0.0,0.0,0.0,0.0,0.0,0.0,0.0,0.0,0.0,0.0,0.0,0.0,0.0,0.0,0.0,0.0,0.0,0.0,0.0,0.0,0.0,0.0,0.0,0.0,0.0,0.0,0.0,0.0,0.0,0.0,0.0,0.0,0.0,0.0,0.0,0.0,0.0,0.0,0.0,0.0,0.0,0.0,0.0,0.0,0.0,0.0,0.0,0.0,0.0,0.0,0.0,0.0,0.0,0.0,0.0,0.0,0.0,-3.7143,-3.7487,-3.8928,0.0,-3.5467,0.0,0.0,0.0,0.0,0.0,0.0,0.0,0.0,0.0,0.0,0.0,0.0,0.0,0.0,0.0,0.0,0.0,0.0,0.0,0.0,0.0,0.0,0.0,0.0,0.0,0.0,0.0,0.0,0.0,0.0,0.0,0.0,0.0,0.0,0.0,0.0,0.0,0.0,0.0,0.0,0.0,0.0,0.0,0.0,0.0,0.0,0.0,0.0,0.0,0.0,0.0,0.0,0.0,0.0,0.0,0.0,0.0,0.0,0.0,0.0,0.0,0.0,0.0,0.0,0.0,0.0,0.0,0.0,0.0,0.0,0.0,0.0,0.0,0.0,0.0,0.0,0.0,0.0,0.0,0.0,0.0,0.0,0.0,0.0,0.0,0.0,0.0,0.0,0.0,0.0,0.0,0.0,0.0,0.0,0.0,0.0,0.0,0.0,0.0,0.0,0.0,0.0,0.0,0.0,0.0,0.0,0.0,0.0,0.0,0.0,-3.8691,-3.932,-3.8049,-3.6796,0.0,0.0,0.0,0.0,0.0,0.0,0.0,0.0,0.0,0.0,0.0,0.0,0.0,0.0,0.0,0.0,0.0,0.0,0.0,0.0,0.0,0.0,0.0,0.0,0.0,0.0,0.0,0.0,0.0,0.0,0.0,0.0,0.0,0.0,0.0,0.0,0.0,0.0,0.0,0.0,0.0,0.0,0.0,0.0,0.0,0.0,0.0,0.0,0.0,0.0,0.0,0.0,0.0,0.0,0.0,0.0,0.0,0.0,0.0,0.0,0.0,0.0,0.0,0.0,0.0,0.0,0.0,0.0,0.0,0.0,0.0,0.0,0.0,0.0,0.0,0.0,0.0,0.0,0.0,0.0,0.0,0.0,0.0,0.0,0.0,0.0,0.0,0.0,0.0,0.0,0.0,0.0,0.0,0.0,0.0,0.0,0.0,0.0,0.0,0.0,0.0,0.0,0.0,0.0,0.0,0.0,0.0,0.0,0.0,0.0,-3.9092,-3.9804,-4.0662,-3.8277,-3.6469,-3.5538,0.0,0.0,0.0,0.0,0.0,0.0,0.0,0.0,0.0,0.0,0.0,0.0,0.0,0.0,0.0,0.0,0.0,0.0,0.0,0.0,0.0,0.0,0.0,0.0,0.0,0.0,0.0,0.0,0.0,0.0,0.0,0.0,0.0,0.0,0.0,0.0,0.0,0.0,0.0,0.0,0.0,0.0,0.0,0.0,0.0,0.0,0.0,0.0,0.0,0.0,0.0,0.0,0.0,0.0,0.0,0.0,0.0,0.0,0.0,0.0,0.0,0.0,0.0,0.0,0.0,0.0,0.0,0.0,0.0,0.0,0.0,0.0,0.0,0.0,0.0,0.0,0.0,0.0,0.0,0.0,0.0,0.0,0.0,0.0,0.0,0.0,0.0,0.0,0.0,0.0,0.0,0.0,0.0,0.0,0.0,0.0,0.0,0.0,0.0,0.0,0.0,0.0,0.0,0.0,0.0,0.0,0.0,0.0,-4.0162,-3.9662,-4.0085,-4.1692,-4.0758,-3.8784,0.0,0.0,0.0,0.0,0.0,0.0,0.0,0.0,0.0,0.0,0.0,0.0,0.0,0.0,0.0,0.0,0.0,0.0,0.0,0.0,0.0,0.0,0.0,0.0,0.0,0.0,0.0,0.0,0.0,0.0,0.0,0.0,0.0,0.0,0.0,0.0,0.0,0.0,0.0,0.0,0.0,0.0,0.0,0.0,0.0,0.0,0.0,0.0,0.0,0.0,0.0,0.0,0.0,0.0,0.0,0.0,0.0,0.0,0.0,0.0,0.0,0.0,0.0,0.0,0.0,0.0,0.0,0.0,0.0,0.0,0.0,0.0,0.0,0.0,0.0,0.0,0.0,0.0,0.0,0.0,0.0,0.0,0.0,0.0,0.0,0.0,0.0,0.0,0.0,0.0,0.0,0.0,0.0,0.0,0.0,0.0,0.0,0.0,0.0,0.0,0.0,0.0,0.0,0.0,0.0,0.0,0.0,0.0,0.0,-3.8808,-4.02,-4.17,-4.322,-3.9969,-3.7507,0.0,0.0,0.0,0.0,0.0,0.0,0.0,0.0,0.0,0.0,0.0,0.0,0.0,0.0,0.0,0.0,0.0,0.0,0.0,0.0,0.0,0.0,0.0,0.0,0.0,0.0,0.0,0.0,0.0,0.0,0.0,0.0,0.0,0.0,0.0,0.0,0.0,0.0,0.0,0.0,0.0,0.0,0.0,0.0,0.0,0.0,0.0,0.0,0.0,0.0,0.0,0.0,0.0,0.0,0.0,0.0,0.0,0.0,0.0,0.0,0.0,0.0,0.0,0.0,0.0,0.0,0.0,0.0,0.0,0.0,0.0,0.0,0.0,0.0,0.0,0.0,0.0,0.0,0.0,0.0,0.0,0.0,0.0,0.0,0.0,0.0,0.0,0.0,0.0,0.0,0.0,0.0,0.0,0.0,0.0,0.0,0.0,0.0,0.0,0.0,0.0,0.0,0.0,0.0,0.0,0.0,0.0,0.0,0.0,-3.8777,0.0,-4.2489,-4.2912,-3.9488,-3.6892,0.0,0.0,0.0,0.0,0.0,0.0,0.0,0.0,0.0,0.0,0.0,0.0,0.0,0.0,0.0,0.0,0.0,0.0,0.0,0.0,0.0,0.0,0.0,0.0,0.0,0.0,0.0,0.0,0.0,0.0,0.0,0.0,0.0,0.0,0.0,0.0,0.0,0.0,0.0,0.0,0.0,0.0,0.0,0.0,0.0,0.0,0.0,0.0,0.0,0.0,0.0,0.0,0.0,0.0,0.0,0.0,0.0,0.0,0.0,0.0,0.0,0.0,0.0,0.0,0.0,0.0,0.0,0.0,0.0,0.0,0.0,0.0,0.0,0.0,0.0,0.0,0.0,0.0,0.0,0.0,0.0,0.0,0.0,0.0,0.0,0.0,0.0,0.0,0.0,0.0,0.0,0.0,0.0,0.0,0.0,0.0,0.0,0.0,0.0,0.0,0.0,0.0,0.0,0.0,0.0,0.0,0.0,0.0,-3.7199,-4.0362,-4.2162,-4.2354,-4.065,-3.9727,-3.7284,0.0,0.0,0.0,0.0,0.0,0.0,0.0,0.0,0.0,0.0,0.0,0.0,0.0,0.0,0.0,0.0,0.0,0.0,0.0,0.0,0.0,0.0,0.0,0.0,0.0,0.0,0.0,0.0,0.0,0.0,0.0,0.0,0.0,0.0,0.0,0.0,0.0,0.0,0.0,0.0,0.0,0.0,0.0,0.0,0.0,0.0,0.0,0.0,0.0,0.0,0.0,0.0,0.0,0.0,0.0,0.0,0.0,0.0,0.0,0.0,0.0,0.0,0.0,0.0,0.0,0.0,0.0,0.0,0.0,0.0,0.0,0.0,0.0,0.0,0.0,0.0,0.0,0.0,0.0,0.0,0.0,0.0,0.0,0.0,0.0,0.0,0.0,0.0,0.0,0.0,0.0,0.0,0.0,0.0,0.0,0.0,0.0,0.0,0.0,0.0,0.0,0.0,0.0,0.0,0.0,0.0,0.0,0.0,0.0,-4.0516,-4.22,-4.3104,-4.3028,-4.0046,-3.7488,0.0,0.0,0.0,0.0,0.0,0.0,0.0,0.0,0.0,0.0,0.0,0.0,0.0,0.0,0.0,0.0,0.0,0.0,0.0,0.0,0.0,0.0,0.0,0.0,0.0,0.0,0.0,0.0,0.0,0.0,0.0,0.0,0.0,0.0,0.0,0.0,0.0,0.0,0.0,0.0,0.0,0.0,0.0,0.0,0.0,0.0,0.0,0.0,0.0,0.0,0.0,0.0,0.0,0.0,0.0,0.0,0.0,0.0,0.0,0.0,0.0,0.0,0.0,0.0,0.0,0.0,0.0,0.0,0.0,0.0,0.0,0.0,0.0,0.0,0.0,0.0,0.0,0.0,0.0,0.0,0.0,0.0,0.0,0.0,0.0,0.0,0.0,0.0,0.0,0.0,0.0,0.0,0.0,0.0,0.0,0.0,0.0,0.0,0.0,0.0,0.0,0.0,0.0,0.0,0.0,0.0,0.0,0.0,0.0,-4.1958,-4.3297,-4.397,-4.3855,-4.0669,-3.8219,-3.6699,0.0,0.0,0.0,0.0,0.0,0.0,0.0,0.0,0.0,0.0,0.0,0.0,0.0,0.0,0.0,0.0,0.0,0.0,0.0,0.0,0.0,0.0,0.0,0.0,0.0,0.0,0.0,0.0,0.0,0.0,0.0,0.0,0.0,0.0,0.0,0.0,0.0,0.0,0.0,0.0,0.0,0.0,0.0,0.0,0.0,0.0,0.0,0.0,0.0,0.0,0.0,0.0,0.0,0.0,0.0,0.0,0.0,0.0,0.0,0.0,0.0,0.0,0.0,0.0,0.0,0.0,0.0,0.0,0.0,0.0,0.0,0.0,0.0,0.0,0.0,0.0,0.0,0.0,0.0,0.0,0.0,0.0,0.0,0.0,0.0,0.0,0.0,0.0,0.0,0.0,0.0,0.0,0.0,0.0,0.0,0.0,0.0,0.0,0.0,0.0,0.0,0.0,0.0,0.0,0.0,0.0,0.0,0.0,-4.4278,-4.5152,-4.4844,-4.3316,-4.1516,-3.9392,0.0,0.0,0.0,0.0,0.0,0.0,0.0,0.0,0.0,0.0,0.0,0.0,0.0,0.0,0.0,0.0,0.0,0.0,0.0,0.0,0.0,0.0,0.0,0.0,0.0,0.0,0.0,0.0,0.0,0.0,0.0,0.0,0.0,0.0,0.0,0.0,0.0,0.0,0.0,0.0,0.0,0.0,0.0,0.0,0.0,0.0,0.0,0.0,0.0,0.0,0.0,0.0,0.0,0.0,0.0,0.0,0.0,0.0,0.0,0.0,0.0,0.0,0.0,0.0,0.0,0.0,0.0,0.0,0.0,0.0,0.0,0.0,0.0,0.0,0.0,0.0,0.0,0.0,0.0,0.0,0.0,0.0,0.0,0.0,0.0,0.0,0.0,0.0,0.0,0.0,0.0,0.0,0.0,0.0,0.0,0.0,0.0,0.0,0.0,0.0,0.0,0.0,0.0,0.0,0.0,0.0,0.0,0.0,0.0,-4.4316,-4.5152,-4.5383,-4.4921,-4.2681,-4.0566,0.0,0.0,0.0,0.0,0.0,0.0,0.0,0.0,0.0,0.0,0.0,0.0,0.0,0.0,0.0,0.0,0.0,0.0,0.0,0.0,0.0,0.0,0.0,0.0,0.0,0.0,0.0,0.0,0.0,0.0,0.0,0.0,0.0,0.0,0.0,0.0,0.0,0.0,0.0,0.0,0.0,0.0,0.0,0.0,0.0,0.0,0.0,0.0,0.0,0.0,0.0,0.0,0.0,0.0,0.0,0.0,0.0,0.0,0.0,0.0,0.0,0.0,0.0,0.0,0.0,0.0,0.0,0.0,0.0,0.0,0.0,0.0,0.0,0.0,0.0,0.0,0.0,0.0,0.0,0.0,0.0,0.0,0.0,0.0,0.0,0.0,0.0,0.0,0.0,0.0,0.0,0.0,0.0,0.0,0.0,0.0,0.0,0.0,0.0,0.0,0.0,0.0,0.0,0.0,0.0,0.0,0.0,0.0,-4.4489,-4.4844,-4.5344,-4.5594,-4.5594,-4.3816,-4.1932,0.0,0.0,0.0,0.0,0.0,0.0,0.0,0.0,0.0,0.0,0.0,0.0,0.0,0.0,0.0,0.0,0.0,0.0,0.0,0.0,0.0,0.0,0.0,0.0,0.0,0.0,0.0,0.0,0.0,0.0,0.0,0.0,0.0,0.0,0.0,0.0,0.0,0.0,0.0,0.0,0.0,0.0,0.0,0.0,0.0,0.0,0.0,0.0,0.0,0.0,0.0,0.0,0.0,0.0,0.0,0.0,0.0,0.0,0.0,0.0,0.0,0.0,0.0,0.0,0.0,0.0,0.0,0.0,0.0,0.0,0.0,0.0,0.0,0.0,0.0,0.0,0.0,0.0,0.0,0.0,0.0,0.0,0.0,0.0,0.0,0.0,0.0,0.0,0.0,0.0,0.0,0.0,0.0,0.0,0.0,0.0,0.0,0.0,0.0,0.0,0.0,0.0,0.0,0.0,0.0,0.0,0.0,0.0,-4.4806,-4.5575,-4.5594,-4.5594,-4.5575,-4.4767,-4.3212,0.0,0.0,0.0,0.0,0.0,0.0,0.0,0.0,0.0,0.0,0.0,0.0,0.0,0.0,0.0,0.0,0.0,0.0,0.0,0.0,0.0,0.0,0.0,0.0,0.0,0.0,0.0,0.0,0.0,0.0,0.0,0.0,0.0,0.0,0.0,0.0,0.0,0.0,0.0,0.0,0.0,0.0,0.0,0.0,0.0,0.0,0.0,0.0,0.0,0.0,0.0,0.0,0.0,0.0,0.0,0.0,0.0,0.0,0.0,0.0,0.0,0.0,0.0,0.0,0.0,0.0,0.0,0.0,0.0,0.0,0.0,0.0,0.0,0.0,0.0,0.0,0.0,0.0,0.0,0.0,0.0,0.0,0.0,0.0,0.0,0.0,0.0,0.0,0.0,0.0,0.0,0.0,0.0,0.0,0.0,0.0,0.0,0.0,0.0,0.0,0.0,0.0,0.0,0.0,0.0,0.0,0.0,0.0,-4.5421,-4.5594,-4.5594,-4.5594,-4.5594,-4.4759,-4.3509,0.0,0.0,0.0,0.0,0.0,0.0,0.0,0.0,0.0,0.0,0.0,0.0,0.0,0.0,0.0,0.0,0.0,0.0,0.0,0.0,0.0,0.0,0.0,0.0,0.0,0.0,0.0,0.0,0.0,0.0,0.0,0.0,0.0,0.0,0.0,0.0,0.0,0.0,0.0,0.0,0.0,0.0,0.0,0.0,0.0,0.0,0.0,0.0,-4.2835,0.0,0.0,0.0,0.0,0.0,0.0,0.0,0.0,0.0,0.0,0.0,0.0,0.0,0.0,0.0,0.0,0.0,0.0,0.0,0.0,0.0,0.0,0.0,0.0,0.0,0.0,0.0,0.0,0.0,0.0,0.0,0.0,0.0,0.0,0.0,0.0,0.0,0.0,0.0,0.0,0.0,0.0,0.0,0.0,0.0,0.0,0.0,0.0,0.0,0.0,0.0,0.0,0.0,0.0,0.0,0.0,0.0,0.0,0.0,-4.5594,-4.5594,-4.5594,-4.5594,-4.5575,-4.4839,-4.3471,0.0,0.0,0.0,0.0,0.0,0.0,0.0,0.0,0.0,0.0,0.0,0.0,0.0,0.0,0.0,0.0,0.0,0.0,0.0,0.0,0.0,0.0,0.0,0.0,0.0,0.0,0.0,0.0,0.0,0.0,0.0,0.0,0.0,0.0,0.0,0.0,0.0,0.0,0.0,0.0,0.0,0.0,0.0,0.0,0.0,0.0,0.0,0.0,0.0,0.0,0.0,0.0,0.0,0.0,0.0,0.0,0.0,0.0,0.0,0.0,0.0,0.0,0.0,0.0,0.0,0.0,0.0,0.0,0.0,0.0,0.0,0.0,0.0,0.0,0.0,0.0,0.0,0.0,0.0,0.0,0.0,0.0,0.0,0.0,0.0,0.0,0.0,0.0,0.0,0.0,0.0,0.0,0.0,0.0,0.0,0.0,0.0,0.0,0.0,0.0,0.0,0.0,0.0,0.0,0.0,0.0,0.0,-4.469,-4.5479,-4.5594,-4.5594,-4.5594,-4.5594,-4.4901,-4.3363,-4.0915,0.0,0.0,0.0,0.0,0.0,0.0,0.0,0.0,0.0,0.0,0.0,0.0,0.0,0.0,0.0,0.0,0.0,0.0,0.0,0.0,0.0,0.0,0.0,0.0,0.0,0.0,0.0,0.0,0.0,0.0,0.0,0.0,0.0,0.0,0.0,0.0,0.0,0.0,-4.0766,-4.2874,0.0,0.0,0.0,0.0,0.0,0.0,0.0,0.0,-4.5124,0.0,0.0,0.0,0.0,0.0,0.0,0.0,0.0,0.0,0.0,0.0,0.0,0.0,0.0,0.0,0.0,0.0,0.0,0.0,0.0,0.0,0.0,0.0,0.0,0.0,0.0,0.0,0.0,0.0,0.0,0.0,0.0,0.0,0.0,0.0,0.0,0.0,0.0,0.0,0.0,0.0,0.0,0.0,0.0,0.0,0.0,0.0,0.0,0.0,0.0,0.0,0.0,0.0,0.0,0.0,0.0,-4.4047,-4.4374,-4.4855,-4.5575,-4.5594,-4.5594,-4.5584,-4.4982,-4.3447,-4.0958,0.0,0.0,0.0,0.0,0.0,0.0,0.0,0.0,0.0,0.0,0.0,0.0,0.0,0.0,0.0,0.0,0.0,0.0,0.0,0.0,0.0,0.0,0.0,0.0,0.0,0.0,0.0,0.0,0.0,0.0,0.0,0.0,0.0,0.0,0.0,0.0,0.0,0.0,0.0,-4.3605,-4.4605,0.0,0.0,0.0,0.0,0.0,0.0,0.0,0.0,-4.5518,0.0,0.0,0.0,0.0,0.0,0.0,0.0,0.0,0.0,0.0,0.0,0.0,0.0,0.0,0.0,0.0,0.0,0.0,0.0,0.0,0.0,0.0,0.0,0.0,0.0,0.0,0.0,0.0,0.0,0.0,0.0,0.0,0.0,0.0,0.0,0.0,0.0,0.0,0.0,0.0,0.0,0.0,0.0,0.0,0.0,0.0,0.0,0.0,0.0,0.0,0.0,0.0,0.0,0.0,0.0,-4.3624,-4.4536,-4.5171,-4.5575,-4.5594,-4.5594,-4.5565,-4.4141,-4.2527,0.0,0.0,0.0,0.0,0.0,0.0,0.0,0.0,0.0,0.0,0.0,0.0,0.0,0.0,0.0,0.0,0.0,0.0,0.0,0.0,0.0,0.0,0.0,0.0,0.0,0.0,0.0,0.0,0.0,0.0,0.0,0.0,0.0,0.0,0.0,0.0,0.0,0.0,0.0,0.0,-4.4082,-4.5133,-4.5537,0.0,0.0,0.0,0.0,0.0,0.0,-4.5594,-4.5594,0.0,0.0,0.0,0.0,0.0,0.0,0.0,0.0,0.0,0.0,0.0,0.0,0.0,0.0,0.0,0.0,0.0,0.0,0.0,0.0,0.0,0.0,0.0,0.0,0.0,0.0,0.0,0.0,0.0,0.0,0.0,0.0,0.0,0.0,0.0,0.0,0.0,0.0,0.0,0.0,0.0,0.0,0.0,0.0,0.0,0.0,0.0,0.0,0.0,0.0,0.0,0.0,0.0,0.0,0.0,-4.3104,-4.4586,-4.5421,-4.5594,-4.5594,-4.5518,-4.5315,-4.3399,-4.1803,0.0,0.0,0.0,0.0,0.0,0.0,0.0,0.0,0.0,0.0,0.0,0.0,0.0,0.0,0.0,0.0,0.0,0.0,0.0,0.0,0.0,0.0,0.0,0.0,0.0,0.0,0.0,0.0,0.0,0.0,0.0,0.0,0.0,0.0,0.0,0.0,0.0,0.0,0.0,0.0,0.0,-4.5513,-4.5605,-4.6201,0.0,0.0,0.0,0.0,-4.5594,-4.5594,0.0,0.0,0.0,0.0,0.0,0.0,0.0,0.0,0.0,0.0,0.0,0.0,0.0,0.0,0.0,0.0,0.0,0.0,0.0,0.0,0.0,0.0,0.0,0.0,0.0,0.0,0.0,0.0,0.0,0.0,0.0,0.0,0.0,0.0,0.0,0.0,0.0,0.0,0.0,0.0,0.0,0.0,0.0,0.0,0.0,0.0,0.0,0.0,0.0,0.0,0.0,0.0,0.0,0.0,0.0,0.0,-4.3028,-4.3989,-4.4825,-4.5556,-4.5594,-4.5229,-4.4479,-4.3676,-4.2103,0.0,0.0,0.0,0.0,0.0,0.0,0.0,0.0,0.0,0.0,0.0,0.0,0.0,0.0,0.0,0.0,0.0,0.0,0.0,0.0,0.0,0.0,0.0,0.0,0.0,0.0,0.0,0.0,0.0,0.0,0.0,0.0,0.0,0.0,0.0,0.0,0.0,0.0,0.0,0.0,0.0,-4.5263,-4.5559,-4.5691,-4.5729,0.0,0.0,-4.5594,-4.5594,-4.5594,0.0,0.0,0.0,0.0,0.0,0.0,0.0,0.0,0.0,0.0,0.0,0.0,0.0,0.0,0.0,0.0,0.0,0.0,0.0,0.0,0.0,0.0,0.0,0.0,0.0,0.0,0.0,0.0,0.0,0.0,0.0,0.0,0.0,0.0,0.0,0.0,0.0,0.0,0.0,0.0,0.0,0.0,0.0,0.0,0.0,0.0,0.0,0.0,0.0,0.0,0.0,0.0,0.0,0.0,0.0,-4.1016,-4.3047,-4.4374,-4.5229,-4.5556,-4.5114,-4.4682,-4.4316,-4.2765,-4.1166,0.0,0.0,0.0,0.0,0.0,0.0,0.0,0.0,0.0,0.0,0.0,0.0,0.0,0.0,0.0,0.0,0.0,0.0,0.0,0.0,0.0,0.0,0.0,0.0,0.0,0.0,0.0,0.0,0.0,0.0,0.0,0.0,0.0,0.0,0.0,0.0,0.0,0.0,0.0,0.0,0.0,0.0,-4.5635,-4.6018,0.0,0.0,0.0,-4.5594,-4.5594,0.0,0.0,0.0,0.0,0.0,0.0,0.0,0.0,0.0,0.0,0.0,0.0,0.0,0.0,0.0,0.0,0.0,0.0,0.0,0.0,0.0,0.0,0.0,0.0,0.0,0.0,0.0,0.0,0.0,0.0,0.0,0.0,0.0,0.0,0.0,0.0,0.0,0.0,0.0,0.0,0.0,0.0,0.0,0.0,0.0,0.0,0.0,0.0,0.0,0.0,0.0,0.0,0.0,0.0,0.0,0.0,0.0,-4.3085,-4.4739,-4.5498,-4.5278,-4.4624,-4.4085,-4.3671,-4.2009,0.0,0.0,0.0,0.0,0.0,0.0,0.0,0.0,0.0,0.0,0.0,0.0,0.0,0.0,0.0,0.0,0.0,0.0,0.0,0.0,0.0,0.0,0.0,0.0,0.0,0.0,0.0,-3.1288,0.0,0.0,0.0,0.0,0.0,0.0,0.0,0.0,0.0,0.0,0.0,0.0,0.0,0.0,-4.6244,-4.5682,-4.6144,-4.6336,0.0,0.0,-4.5594,-4.5594,-4.5594,-4.5594,0.0,0.0,0.0,0.0,0.0,0.0,0.0,0.0,0.0,0.0,0.0,0.0,0.0,0.0,0.0,0.0,0.0,0.0,0.0,0.0,0.0,0.0,0.0,0.0,0.0,0.0,0.0,0.0,0.0,0.0,0.0,0.0,0.0,0.0,0.0,0.0,0.0,0.0,0.0,0.0,0.0,0.0,0.0,0.0,0.0,0.0,0.0,0.0,0.0,0.0,0.0,0.0,0.0,0.0,-4.1343,-4.3066,-4.4739,-4.519,-4.4432,-4.4335,-4.3566,-4.2027,-4.2,-4.0863,0.0,0.0,0.0,0.0,0.0,0.0,0.0,0.0,0.0,0.0,0.0,0.0,0.0,0.0,0.0,0.0,0.0,0.0,0.0,0.0,0.0,0.0,0.0,0.0,0.0,0.0,0.0,0.0,0.0,0.0,0.0,0.0,0.0,0.0,0.0,0.0,0.0,0.0,0.0,0.0,0.0,-4.5319,-4.5578,-4.5652,-4.5671,0.0,-4.5594,-4.5594,-4.5594,-4.5594,-4.5594,-4.5594,0.0,0.0,0.0,0.0,0.0,0.0,0.0,0.0,0.0,0.0,0.0,0.0,0.0,0.0,0.0,0.0,0.0,0.0,0.0,0.0,0.0,0.0,0.0,0.0,0.0,0.0,0.0,0.0,0.0,0.0,0.0,0.0,0.0,0.0,0.0,0.0,0.0,0.0,0.0,0.0,0.0,0.0,0.0,0.0,0.0,0.0,0.0,0.0,0.0,0.0,0.0,0.0,0.0,-4.0342,-4.1497,-4.3181,-4.3893,-4.3566,-4.3028,-4.245,-4.1816,-4.1448,-4.0325,0.0,0.0,0.0,0.0,0.0,0.0,0.0,0.0,0.0,0.0,0.0,0.0,0.0,0.0,0.0,0.0,0.0,0.0,0.0,0.0,0.0,0.0,0.0,0.0,0.0,0.0,0.0,0.0,-3.4814,-3.5391,-3.643,0.0,0.0,0.0,0.0,0.0,0.0,0.0,0.0,0.0,0.0,-4.5222,-4.554,-4.5594,0.0,0.0,-4.5594,-4.5594,-4.5594,-4.5594,-4.5594,-4.5594,-4.5594,0.0,0.0,0.0,0.0,0.0,0.0,0.0,0.0,0.0,0.0,0.0,0.0,0.0,0.0,0.0,0.0,0.0,0.0,0.0,0.0,0.0,0.0,0.0,0.0,0.0,0.0,0.0,0.0,0.0,0.0,0.0,0.0,0.0,0.0,0.0,0.0,0.0,0.0,0.0,0.0,0.0,0.0,0.0,0.0,0.0,0.0,0.0,0.0,0.0,0.0,0.0,0.0,-3.9842,-4.0881,-4.2354,-4.2951,-4.2701,-4.2104,-4.1673,-4.1412,-4.0958,-3.9929,0.0,0.0,0.0,0.0,0.0,0.0,0.0,0.0,0.0,0.0,0.0,0.0,0.0,0.0,0.0,0.0,0.0,0.0,0.0,0.0,0.0,0.0,0.0,0.0,0.0,0.0,0.0,0.0,-3.5846,-3.6423,-3.7853,0.0,0.0,0.0,0.0,0.0,0.0,0.0,0.0,0.0,0.0,-4.5074,-4.541,-4.5467,-4.5505,-4.5586,-4.5594,-4.5594,-4.5594,-4.5797,-4.5902,-4.5652,0.0,0.0,0.0,0.0,0.0,0.0,0.0,0.0,0.0,0.0,0.0,0.0,0.0,0.0,0.0,0.0,0.0,0.0,0.0,0.0,0.0,0.0,0.0,0.0,0.0,0.0,0.0,-3.6673,0.0,0.0,-3.5519,0.0,0.0,0.0,0.0,0.0,0.0,0.0,0.0,0.0,0.0,0.0,0.0,0.0,0.0,0.0,0.0,0.0,0.0,0.0,0.0,0.0,0.0,-4.0085,-4.1739,-4.2566,-4.2643,-4.1865,-4.1816,-4.1373,-4.0573,-4.0636,-3.9865,-3.8142,0.0,0.0,0.0,0.0,0.0,0.0,0.0,0.0,0.0,0.0,0.0,0.0,0.0,0.0,0.0,0.0,0.0,0.0,0.0,0.0,0.0,0.0,0.0,0.0,0.0,0.0,-3.6788,-3.6673,-3.7046,0.0,0.0,0.0,0.0,0.0,0.0,0.0,0.0,0.0,-4.4479,-4.4624,-4.472,-4.5074,-4.5107,-4.5232,-4.5559,-4.5614,-4.5614,-4.5633,-4.6317,-4.6586,0.0,0.0,0.0,0.0,0.0,0.0,0.0,0.0,0.0,0.0,0.0,0.0,0.0,0.0,0.0,0.0,0.0,0.0,0.0,0.0,0.0,0.0,0.0,0.0,0.0,0.0,0.0,-3.8873,-3.7603,0.0,0.0,0.0,0.0,0.0,0.0,0.0,0.0,0.0,0.0,0.0,-4.0169,-4.1574,0.0,0.0,0.0,0.0,0.0,0.0,0.0,0.0,0.0,0.0,0.0,0.0,-3.8988,-4.0123,-4.0958,-4.1239,-4.095,-4.0931,-4.0785,-4.0516,-4.0557,-3.9515,-3.7307,0.0,0.0,0.0,0.0,0.0,0.0,0.0,0.0,0.0,0.0,0.0,0.0,0.0,0.0,0.0,0.0,0.0,0.0,0.0,0.0,0.0,0.0,0.0,0.0,0.0,-3.8738,0.0,0.0,0.0,0.0,0.0,0.0,0.0,0.0,0.0,0.0,0.0,-4.363,-4.4142,-4.4209,-4.4428,-4.5011,-4.5115,-4.5222,0.0,0.0,0.0,0.0,0.0,0.0,0.0,0.0,0.0,0.0,0.0,0.0,0.0,0.0,-4.7259,-4.5864,-4.4883,-4.4201,-4.3951,0.0,0.0,0.0,0.0,0.0,0.0,0.0,0.0,0.0,0.0,0.0,0.0,0.0,0.0,-4.0623,0.0,-3.9315,0.0,0.0,0.0,0.0,0.0,0.0,0.0,0.0,-4.2354,-4.2662,-4.1901,-4.3297,-4.3401,0.0,-4.2266,-4.1843,0.0,0.0,0.0,0.0,0.0,0.0,0.0,0.0,-3.8873,-3.9708,-4.0246,-4.0496,-4.0496,-4.0496,-4.0362,-4.0073,-3.9496,-3.8451,-3.6881,-3.5581,-3.4519,0.0,0.0,0.0,0.0,0.0,0.0,0.0,0.0,0.0,0.0,0.0,0.0,0.0,0.0,0.0,0.0,0.0,0.0,0.0,0.0,0.0,0.0,0.0,-3.9304,0.0,0.0,0.0,0.0,0.0,0.0,0.0,0.0,0.0,-4.3927,-4.3728,-4.358,-4.3804,-4.3836,-4.4046,-4.4638,0.0,0.0,0.0,0.0,0.0,0.0,0.0,-4.699,-4.7201,-4.6817,-4.6567,-4.6855,-4.7135,-4.7231,-4.6951,0.0,0.0,-4.6259,-4.5586,-4.5124,-4.4797,-4.521,-4.5594,-4.5594,-4.5143,-4.4748,0.0,0.0,0.0,0.0,0.0,0.0,0.0,0.0,-4.3143,-4.2604,0.0,-4.1797,0.0,0.0,0.0,0.0,0.0,-4.1412,0.0,0.0,-4.472,-4.5105,-4.4393,-4.5171,-4.5575,-4.5594,-4.5518,-4.5075,-4.4201,-4.1862,0.0,0.0,0.0,0.0,0.0,0.0,-3.9727,-4.0516,-4.0516,-4.0496,-4.0496,-4.0496,-4.0131,-3.9323,-3.7642,-3.6794,-3.6848,-3.6046,-3.5252,-3.4558,-3.4487,0.0,0.0,0.0,0.0,0.0,0.0,0.0,0.0,0.0,0.0,0.0,0.0,0.0,0.0,0.0,0.0,0.0,0.0,0.0,0.0,-3.8803,0.0,0.0,0.0,0.0,0.0,0.0,0.0,0.0,0.0,0.0,-4.3971,-4.3693,-4.3479,-4.3496,0.0,0.0,0.0,0.0,-4.4276,-4.5,-4.5135,-4.5298,-4.5617,-4.6355,-4.6644,-4.5883,0.0,0.0,-4.6981,-4.749,-4.7702,-4.7,-4.6855,-4.6865,-4.6817,-4.6721,-4.649,-4.5729,-4.5575,-4.5594,-4.5594,-4.5556,-4.5537,-4.4382,0.0,0.0,0.0,0.0,-4.3355,-4.3778,-4.4836,-4.422,-4.3489,-4.2739,-4.272,0.0,0.0,0.0,0.0,0.0,0.0,-4.3162,-4.397,-4.4459,-4.4874,-4.5248,-4.5479,-4.5594,-4.5594,-4.5594,-4.5479,-4.521,-4.4498,-4.2805,-4.0227,0.0,0.0,0.0,0.0,-4.0593,-4.1335,-4.0796,-4.0496,-4.0496,-4.0496,-4.0112,-3.9323,-3.7623,-3.672,-3.6749,-3.5984,-3.546,-3.5267,-3.4681,0.0,0.0,0.0,0.0,0.0,0.0,0.0,0.0,0.0,0.0,0.0,0.0,0.0,0.0,0.0,0.0,0.0,0.0,0.0,-3.8834,-3.915,-3.9676,0.0,0.0,0.0,0.0,0.0,0.0,0.0,0.0,0.0,-4.3629,-4.3563,-4.3479,0.0,0.0,-4.3631,-4.3955,-4.4016,-4.4276,-4.4969,-4.5584,0.0,-4.6492,-4.674,-4.7019,-4.7336,-4.7317,-4.6971,-4.6105,-4.6163,-4.624,-4.6009,-4.597,-4.597,-4.597,-4.597,-4.5893,-4.5652,-4.5594,-4.5594,-4.5594,-4.5594,-4.5594,-4.4989,-4.4105,-4.4094,-4.4374,-4.4767,-4.4297,-4.4671,-4.5575,-4.5037,-4.4528,-4.4085,-4.4085,-4.3316,-4.1989,-4.167,0.0,0.0,0.0,-4.3957,-4.4614,-4.4614,-4.4882,-4.5391,-4.541,-4.5485,-4.5594,-4.5594,-4.5594,-4.5594,-4.5594,-4.4402,-4.2093,0.0,0.0,-4.1574,-4.1535,-4.1604,-4.1777,-4.1277,-4.0835,-4.0496,-4.0189,-3.9631,-3.8803,-3.743,-3.6558,-3.6231,-3.575,-3.5528,-3.5556,-3.5062,-3.4411,0.0,0.0,0.0,0.0,0.0,0.0,0.0,0.0,0.0,0.0,0.0,-3.65,-3.6019,0.0,0.0,0.0,-3.8007,-3.9142,-3.9544,-4.0177,0.0,0.0,0.0,0.0,0.0,0.0,0.0,-4.3709,-4.3612,-4.3479,-4.3479,-4.3479,-4.3479,-4.3479,-4.3479,-4.3563,-4.3772,0.0,-4.4001,-4.4587,-4.5073,-4.5575,-4.6088,-4.6186,-4.6388,-4.701,-4.6721,-4.624,-4.5729,-4.5594,-4.5594,-4.5594,-4.5594,-4.5594,-4.5594,-4.5594,-4.5594,-4.5594,-4.5594,-4.5594,-4.5594,-4.5594,-4.5594,-4.5594,-4.5594,-4.5594,-4.5594,-4.5594,-4.5594,-4.5594,-4.5594,-4.5594,-4.5594,-4.5594,-4.5594,-4.5152,-4.4355,-4.3624,0.0,-4.4367,-4.4348,-4.4595,-4.5063,-4.5063,-4.5063,-4.5044,-4.5085,-4.5253,-4.5559,-4.5586,-4.5594,-4.5594,-4.5594,-4.519,-4.4432,-4.4393,-4.4008,-4.3239,-4.3181,-4.2777,-4.1931,-4.1846,-4.1354,-4.0516,-3.9708,-3.8873,-3.8027,-3.7161,-3.6327,-3.5538,-3.55,-3.55,-3.55,-3.55,-3.5096,-3.4244,0.0,0.0,0.0,0.0,0.0,0.0,0.0,0.0,0.0,0.0,0.0,0.0,0.0,0.0,-3.8046,-3.9558,0.0,-4.0175,-4.1489,0.0,0.0,0.0,-4.2259,-4.2802,-4.285,-4.3024,-4.3439,0.0,0.0,-4.3479,-4.3479,-4.3479,-4.3479,-4.3479,-4.3479,-4.3479,-4.3496,-4.3631,-4.4001,-4.4031,-4.4276,-4.5019,-4.514,-4.5286,-4.5676,-4.5596,-4.5578,-4.5605,-4.5594,-4.5594,-4.5594,-4.5594,-4.5594,-4.5594,-4.5594,-4.5594,-4.5594,-4.5594,-4.5594,-4.5594,-4.5594,-4.5594,-4.5594,-4.5594,-4.5594,-4.5594,-4.5594,-4.5594,-4.5594,-4.5594,-4.5594,-4.5594,-4.5594,-4.5594,-4.5498,-4.5267,-4.5094,-4.4968,-4.4887,-4.4906,-4.4851,-4.4739,-4.4707,-4.4726,-4.4739,-4.4966,-4.5129,-4.5232,-4.5485,-4.5594,-4.5594,-4.5594,-4.5498,-4.5297,-4.5287,-4.4863,-4.4047,-4.4008,-4.3605,-4.2816,-4.2135,-4.1373,-4.0516,-3.9708,-3.8873,-3.8027,-3.7161,-3.6327,-3.5538,-3.55,-3.55,-3.55,-3.55,-3.5103,-3.4244,-3.4007,0.0,0.0,0.0,0.0,0.0,0.0,0.0,0.0,0.0,-3.8123,-3.6796,0.0,-3.8765,0.0,-3.9663,-4.0498,-4.1437,-4.1345,0.0,0.0,-4.2598,-4.2806,-4.3295,-4.3338,-4.3396,-4.3478,-4.3479,-4.3479,-4.3479,-4.3479,-4.3479,-4.3479,-4.3479,-4.3479,-4.3479,-4.3479,-4.3612,-4.3927,-4.4001,-4.4175,-4.4618,-4.4726,-4.4912,-4.5504,-4.54,-4.5293,-4.554,-4.5594,-4.5594,-4.5594,-4.5594,-4.5594,-4.5594,-4.5594,-4.5594,-4.5594,-4.5594,-4.5594,-4.5594,-4.5594,-4.5594,-4.5594,-4.5594,-4.5594,-4.5594,-4.5594,-4.5594,-4.5594,-4.5594,-4.5594,-4.5594,-4.5594,-4.5594,-4.5594,-4.5594,-4.5594,-4.5495,-4.5322,-4.5322,-4.514,-4.4837,-4.4825,-4.4732,-4.4624,-4.48,-4.4884,-4.4896,-4.5222,-4.5381,-4.539,-4.5541,-4.5594,-4.5594,-4.5594,-4.5364,-4.4913,-4.4893,-4.4297,-4.3104,-4.1854,-4.0977,-4.0516,-4.0073,-3.9238,-3.8065,-3.793,-3.7276,-3.6077,-3.6404,-3.6442,-3.6058,-3.6038,-3.5808,-3.5334,-3.4968,-3.4737,0.0,0.0,0.0,0.0,0.0,0.0,0.0,0.0,0.0,0.0,0.0,-3.9715,-3.9939,-4.0872,-4.1709,-4.2302,-4.228,-4.2478,-4.3032,-4.3111,-4.3215,-4.3477,-4.3479,-4.3479,-4.3479,-4.3479,-4.3479,-4.3479,-4.3479,-4.3479,-4.3479,-4.3479,-4.3479,-4.3479,-4.3479,-4.3582,-4.374,-4.3772,-4.3896,-4.4261,-4.4487,-4.472,-4.5044,-4.5,-4.4977,-4.5312,-4.5381,-4.5419,-4.5568,-4.5594,-4.5594,-4.5594,-4.5594,-4.5594,-4.5594,-4.5594,-4.5594,-4.5594,-4.5594,-4.5594,-4.5594,-4.5594,-4.5594,-4.5594,-4.5594,-4.5594,-4.5594,-4.5594,-4.5594,-4.5594,-4.5594,-4.5594,-4.5594,-4.5594,-4.5594,-4.5577,-4.5522,-4.5522,-4.5352,-4.5052,-4.5041,-4.4884,-4.4593,-4.4537,-4.448,-4.4436,-4.4779,-4.4944,-4.4965,-4.5352,-4.5559,-4.5594,-4.5594,-4.5594,-4.5594,-4.5498,-4.4643,-4.3124,-4.1393,-4.0496,-4.0496,-4.0496,-3.9746,-3.8296,-3.8911,-3.8527,-3.6988,-3.7603,-3.7661,-3.693,-3.6885,-3.6865,-3.6846,-3.6192,-3.6135,0.0,-3.6192,0.0,0.0,0.0,0.0,0.0,0.0,0.0,0.0,-4.0988,-4.064,-4.1023,-4.2485,-4.3267,-4.2921,-4.3519,-4.382,-4.3529,-4.3479,-4.3479,-4.3479,-4.3479,-4.3479,-4.3479,-4.3479,-4.3479,-4.3479,-4.3479,-4.3479,-4.3479,-4.3479,-4.3479,-4.3479,-4.3479,-4.3496,-4.3479,-4.3479,-4.3662,-4.3971,-4.4266,-4.446,-4.4553,-4.4567,-4.4644,-4.4977,-4.5085,-4.5201,-4.5448,-4.5549,-4.5594,-4.5594,-4.5594,-4.5594,-4.5594,-4.5594,-4.5594,-4.5594,-4.5594,-4.5556,-4.5594,-4.5594,-4.5594,-4.5594,-4.5594,-4.5594,-4.5594,-4.5594,-4.5594,-4.5594,-4.5594,-4.5594,-4.5594,-4.5594,-4.5594,-4.5448,-4.5182,-4.5201,-4.5019,-4.4682,-4.4701,-4.4676,-4.4581,-4.4151,-4.3817,-4.3574,-4.3886,-4.4067,-4.4128,-4.4847,-4.5332,-4.5586,-4.5594,-4.5594,-4.5556,0.0,0.0,0.0,-4.1381,-4.0496,-4.0496,-4.0496,-4.0054,-3.9092,-3.9207,0.0,-3.7815,-3.7911,-3.793,-3.7757,-3.7757,0.0,0.0,0.0,0.0,0.0,0.0,0.0,0.0,0.0,0.0,0.0,-4.1758,-4.1296,-4.1769,-4.2575,-4.2898,-4.2492,-4.3308,-4.3732,-4.341,-4.3488,-4.3563,-4.3496,-4.3479,-4.3479,-4.3479,-4.3479,-4.3479,-4.3479,-4.3479,-4.3479,-4.3479,-4.3479,-4.3479,-4.3479,-4.3479,-4.3479,-4.3479,-4.3479,-4.3479,-4.3479,-4.3479,-4.3631,-4.3974,-4.3852,-4.3977,-4.4364,-4.4323,-4.429,-4.4618,-4.4919,-4.5085,-4.5201,-4.5419,-4.5586,-4.5586,-4.5594,-4.5594,-4.5594,-4.5594,-4.5594,-4.5594,-4.5594,-4.5402,-4.5594,0.0,-4.5594,-4.5594,0.0,-4.5594,-4.5594,-4.5594,-4.5594,-4.5594,-4.5594,-4.5594,-4.5594,-4.5594,-4.5594,-4.5504,-4.5342,-4.5342,-4.5272,-4.5088,-4.5088,-4.479,-4.4192,-4.3942,-4.3396,-4.2693,-4.3019,-4.317,-4.3268,-4.423,-4.4796,-4.497,-4.5402,-4.5383,-4.494,-4.3701,-4.2874,-4.247,-4.117,-4.0496,-4.0496,-4.0496,-4.0131,-3.9361,-3.9688,0.0,0.0,0.0,0.0,0.0,0.0,0.0,0.0,0.0,0.0,-3.92,-3.9227,-3.9438,-3.9881,-4.0681,-4.1739,-4.2989,-4.3299,-4.3168,-4.2588,-4.3393,-4.3699,-4.3196,-4.3518,-4.3677,-4.3513,-4.3479,-4.3479,-4.3479,-4.3479,-4.3479,-4.3479,-4.3479,-4.3479,-4.3479,-4.3479,-4.3479,-4.3479,-4.3479,-4.3479,-4.3479,-4.3479,-4.3479,-4.3479,-4.3479,-4.3479,-4.3479,-4.3479,-4.3546,-4.3712,-4.3629,-4.358,-4.3946,-4.3884,-4.3927,-4.4233,-4.4441,-4.4612,-4.4825,-4.5129,-4.5342,-4.5381,-4.5466,-4.5594,-4.5594,-4.5594,-4.5421,-4.5094,-4.4951,-4.4701,-4.5594,-4.5594,-4.5594,-4.5594,-4.5594,-4.5594,-4.5518,-4.5383,0.0,0.0,0.0,-4.5594,-4.5594,-4.5594,-4.5594,-4.5594,-4.5594,-4.5594,-4.5594,-4.5594,-4.5441,-4.4843,-4.3901,-4.3585,-4.2892,-4.1924,-4.2156,-4.2292,-4.2331,-4.3426,-4.4109,-4.4335,-4.4883,-4.472,-4.3835,-4.2489,-4.1731,-4.1546,-4.0881,-4.0496,-4.0496,-4.0496,-4.0189,-3.9534,-4.015,-4.0189,-3.9554,-4.015,-4.0208,-3.9554,-3.9515,-3.9515,-3.9515,-3.9515,-3.9823,-4.0439,-4.0496,-4.0554,-4.0746,-4.2014,-4.2893,-4.3118,-4.423,-4.4478,-4.3508,-4.3783,-4.3865,-4.3531,-4.3479,-4.3496,-4.3479,-4.3479,-4.3479,-4.3479,-4.3479,-4.3479,-4.3479,-4.3479,-4.3479,-4.3479,-4.3479,-4.3479,-4.3479,-4.3479,-4.3479,-4.3479,-4.3479,-4.3479,-4.3479,-4.3479,-4.3479,-4.3479,-4.3479,-4.3496,-4.3496,-4.3496,-4.3479,-4.3548,-4.3531,-4.3614,-4.3818,-4.3937,-4.4117,-4.4428,-4.4769,-4.4966,-4.5041,-4.5263,-4.5504,-4.5523,-4.5433,-4.5114,-4.4316,-4.3951,-4.3624,-4.5594,-4.5594,-4.5594,-4.5594,-4.5594,-4.5594,-4.519,-4.4566,-4.5259,-4.5594,-4.5594,-4.5594,-4.5594,-4.5594,-4.5594,-4.5594,-4.5594,-4.5594,-4.5594,-4.5556,-4.4825,-4.4376,-4.4149,-4.2757,-4.1856,-4.1433,-4.1443,-4.1453,-4.156,-4.2353,-4.3264,-4.4107,-4.3739,-4.3028,-4.2212,-4.1923,-4.1431,-4.0708,-4.0554,-4.0496,-4.0496,-4.0496,-4.0458,-4.0342,-4.0439,-4.0458,-4.0342,-4.0439,-4.0439,-4.0342,-4.0342,-4.0342,-4.0323,-4.0323,-4.0381,-4.0496,-4.0496,-4.0816,-4.1538,-4.1578,-4.2053,-4.3166,-4.3823,-4.4076,-4.3923,-4.3972,-4.3865,-4.3548,-4.3479,-4.3479,-4.3479,-4.3479,-4.3479,-4.3479,-4.3479,-4.3479,-4.3479,-4.3479,-4.3479,-4.3479,-4.3479,-4.3479,-4.3479,-4.3479,-4.3479,-4.3479,-4.3479,-4.3479,-4.3479,-4.3479,-4.3479,-4.3479,-4.3479,-4.3479,-4.3479,-4.3479,-4.3479,-4.3479,-4.3479,-4.3513,-4.3579,-4.3804,-4.3986,-4.4058,-4.4401,-4.4612,-4.467,-4.4943,-4.514,-4.5163,-4.4892,-4.429,-4.35,-4.2797,-4.2181,-4.5594,-4.5594,-4.5594,-4.5594,-4.5575,-4.5094,-4.444,-4.3701,-4.4066,-4.4239,-4.4259,-4.4259,-4.4489,-4.4874,-4.4874,-4.5152,-4.5575,-4.5114,-4.4902,-4.4836,-4.4047,-4.3393,-4.2893,-4.2162,-4.1451,-4.0905,-4.0849,-4.0868,-4.0954,-4.1711,-4.2398,-4.2885,-4.2566,-4.2181,-4.1788,-4.1335,-4.0893,-4.0516,-4.0496,-4.0496,-4.0496,-4.0496,-4.0496,-4.0496,-4.0496,-4.0496,-4.0496,-4.0496,-4.0496,-4.0496,-4.0496,-4.0496,-4.0496,-4.0496,-4.0496,-4.0496,-4.0496,-4.0595,-4.0851,-4.1402,-4.2118,-4.2948,-4.365,-4.3909,-4.3724,-4.3742,-4.3662,-4.3513,-4.3479,-4.3479,-4.3479,-4.3479,-4.3479,-4.3479,-4.3479,-4.3479,-4.3479,-4.3479,-4.3479,-4.3479,-4.3479,-4.3479,-4.3479,-4.3479,-4.3479,-4.3479,-4.3479,-4.3479,-4.3479,-4.3479,-4.3479,-4.3479,-4.3479,-4.3479,-4.3479,-4.3479,-4.3479,-4.3479,-4.3479,-4.3479,-4.3496,-4.3662,-4.371,-4.3758,-4.4035,-4.4233,-4.4294,-4.4574,-4.4842,-4.5009,-4.4503,-4.381,-4.3169,-4.2066,-4.1181,-4.5594,-4.5594,-4.5594,-4.5498,-4.5248,-4.4586,-4.3739,-4.2854,-4.2816,-4.2701,-4.2585,-4.2893,-4.3451,-4.3989,-4.4028,-4.4393,-4.4874,-4.4335,-4.4028,-4.3951,-4.3181,-4.245,-4.1827,-4.1623,-4.1162,-4.0554,-4.0496,-4.0496,-4.0593,-4.1181,-4.1508,-4.1527,-4.17,-4.1692,-4.1489,-4.0835,-4.0496,-4.0489,-4.0449,-4.0449,-4.0489,-4.0496,-4.0496,-4.0496,-4.0496,-4.0473,-4.0425,-4.0406,-4.0417,-4.0397,-4.0406,-4.0422,-4.0489,-4.0496,-4.0473,-4.0414,-4.0406,-4.0239,-3.9977,-4.1019,-4.1833,-4.2118,-4.3076,-4.3495,-4.329,-4.3404,-4.3479,-4.3479,-4.3479,-4.3479,-4.3479,-4.3479,-4.3479,-4.3479,-4.3479,-4.3479,-4.3479,-4.3479,-4.3479,-4.3479,-4.3479,-4.3479,-4.3479,-4.3479,-4.3479,-4.3479,-4.3479,-4.3479,-4.3479,-4.3479,-4.3479,-4.3479,-4.3479,-4.3479,-4.3479,-4.3479,-4.3479,-4.3479,-4.3479,-4.3479,-4.3515,-4.3496,-4.3496,-4.3548,-4.3728,-4.3865,-4.3927,-4.4209,-4.4527,-4.4681,-4.4068,-4.3271,-4.2458,-4.147,-4.0573,-4.5594,-4.5594,-4.5594,-4.5133,-4.4432,-4.4297,-4.3355,-4.2008,-4.1931,-4.147,-4.0997,-4.2412,-4.3104,-4.3201,-4.3201,-4.3278,-4.3412,-4.3258,-4.3201,-4.3124,-4.2308,-4.1865,-4.1692,-4.1008,-4.0573,-4.0496,-4.0496,-4.0496,-4.0496,-4.0612,-4.065,-4.0727,-4.1412,-4.1393,-4.0727,-4.0527,-4.0489,-4.0489,-4.025,-4.0269,-4.0481,-4.0496,-4.0496,-4.0496,-4.0489,-4.0381,-4.0177,-4.0139,-4.0139,-4.0139,-4.0139,-4.026,-4.0457,-4.0489,-4.0381,-4.0139,-4.0129,-3.9861,-3.9332,-3.9973,-4.0424,-4.0302,-4.1671,-4.2518,-4.2488,-4.3111,-4.3479,-4.3479,-4.3479,-4.3479,-4.3479,-4.3479,-4.3479,-4.3479,-4.3479,-4.3479,-4.3479,-4.3479,-4.3479,-4.3479,-4.3479,-4.3479,-4.3479,-4.3479,-4.3479,-4.3479,-4.3479,-4.3479,-4.3479,-4.3479,-4.3479,-4.3479,-4.3479,-4.3479,-4.3479,-4.3479,-4.3479,-4.3479,-4.3479,-4.3479,-4.3479,-4.3479,-4.3479,-4.3496,-4.3531,-4.358,-4.3646,-4.382,-4.4039,-4.3929,-4.3283,-4.2267,-4.1146,-4.0608,-4.0446,-4.5594,-4.5594,-4.5594,-4.4816,-4.3624,-4.3047,-4.2124,-4.1066,-4.1027,-4.0816,-4.0593,-4.1266,-4.1854,-4.2335,-4.2354,-4.2596,-4.3066,-4.2585,-4.2327,-4.2316,-4.195,-4.1546,-4.1066,-4.1239,-4.1027,-4.0535,-4.0496,-4.0496,-4.0496,-4.0496,-4.0496,-4.0535,-4.0881,-4.0835,-4.0508,-4.0328,-4.0347,-4.0508,-4.0232,-4.0242,-4.0438,-4.0347,-4.0278,-4.0278,-4.0269,-4.0213,-4.0101,-3.9893,-3.9797,-3.9808,-3.9808,-3.9861,-3.9955,-3.9955,-3.9924,-3.9797,-3.9611,-3.9389,-3.9107,-3.9707,-4.0016,-3.9898,-4.1387,-4.2304,-4.2341,-4.3039,-4.3479,-4.3479,-4.3479,-4.3479,-4.3479,-4.3479,-4.3479,-4.3479,-4.3479,-4.3479,-4.3479,-4.3479,-4.3479,-4.3479,-4.3479,-4.3479,-4.3479,-4.3479,-4.3479,-4.3479,-4.3479,-4.3479,-4.3479,-4.3479,-4.3479,-4.3479,-4.3479,-4.3479,-4.3479,-4.3479,-4.3479,-4.3479,-4.3479,-4.3479,-4.3479,-4.3479,-4.3479,-4.3479,-4.3479,-4.3479,-4.3513,-4.3542,-4.3647,-4.326,-4.2318,-4.1228,-4.0155,-4.012,-4.0212,-4.5594,-4.5556,-4.5344,-4.4278,-4.272,-4.2077,-4.1296,-4.0554,-4.0496,-4.0496,-4.0496,-4.0496,-4.0854,-4.1393,-4.145,-4.1816,-4.2239,-4.172,-4.145,-4.145,-4.1431,-4.1104,-4.0631,-4.1104,-4.1123,-4.0593,-4.0496,-4.0496,-4.0496,-4.0496,-4.0465,-4.0397,-4.0408,-4.0336,-4.0229,-4.0043,-4.0053,-4.0221,-4.0043,-4.0053,-4.0212,-4.0139,-4.0129,-4.0195,-4.0223,-4.0177,-4.0101,-3.988,-3.9698,-3.9611,-3.9611,-3.9611,-3.9611,-3.9611,-3.9564,-3.9457,-3.9171,-3.8985,-3.8985,-3.9371,-3.957,-3.968,-4.1056,-4.1974,-4.2139,-4.291,-4.3442,-4.3479,-4.3479,-4.3479,-4.3479,-4.3479,-4.3479,-4.3479,-4.3479,-4.3479,-4.3479,-4.3479,-4.3479,-4.3479,-4.3479,-4.3479,-4.3479,-4.3479,-4.3479,-4.3479,-4.3479,-4.3479,-4.3479,-4.3479,-4.3479,-4.3479,-4.3479,-4.3479,-4.3479,-4.3479,-4.3479,-4.3479,-4.3479,-4.3479,-4.3479,-4.3479,-4.3479,-4.3479,-4.3479,-4.3479,-4.3479,-4.3475,-4.3117,-4.2456,-4.155,-4.0527,-3.9819,-3.9857,-3.9992,-4.5594,-4.546,-4.471,-4.3412,-4.1865,-4.1788,-4.1296,-4.0496,-4.0496,-4.0496,-4.0496,-4.0496,-4.0535,-4.0604,-4.065,-4.0612,-4.065,-4.065,-4.0631,-4.065,-4.0708,-4.0573,-4.0516,-4.0535,-4.0573,-4.0516,-4.0496,-4.0496,-4.0496,-4.0489,-4.0364,-4.0139,-4.012,-3.9972,-3.9724,-3.9679,-3.9634,-3.9724,-3.969,-3.9668,-3.9724,-3.9982,-4.0213,-4.0441,-4.0454,-4.0311,-4.012,-4.0081,-3.9941,-3.9611,-3.9587,-3.9587,-3.9587,-3.9576,-3.9432,-3.9139,-3.8869,-3.8719,-3.8735,-3.8778,-3.8817,-3.9001,-4.0341,-4.1187,-4.1387,-4.2635,-4.3442,-4.3479,-4.3479,-4.3479,-4.3479,-4.3479,-4.3479,-4.3479,-4.3479,-4.3479,-4.3479,-4.3479,-4.3479,-4.3479,-4.3479,-4.3479,-4.3479,-4.3479,-4.3479,-4.3479,-4.3479,-4.3479,-4.3479,-4.3479,-4.3479,-4.3479,-4.3479,-4.3479,-4.3479,-4.3479,-4.3479,-4.3479,-4.3479,-4.3479,-4.3479,-4.3479,-4.3479,-4.3424,-4.3314,-4.3314,-4.3424,-4.3143,-4.2576,-4.1838,-4.0899,-4.0,-3.9452,-3.9548,-3.9668,-4.5267,-4.4701,-4.3874,-4.2854,-4.1788,-4.12,-4.0777,-4.0516,-4.0496,-4.0496,-4.0496,-4.0496,-4.0496,-4.0496,-4.0496,-4.0496,-4.0496,-4.0496,-4.0496,-4.0631,-4.1651,-4.1574,-4.0669,-4.1585,-4.1516,-4.0612,-4.0496,-4.0496,-4.0473,-4.0339,-4.0195,-4.0062,-3.988,-3.9701,-3.9622,-3.9611,-3.969,-3.988,-3.972,-3.9778,-4.0091,-4.012,-4.0242,-4.0473,-4.0311,-4.0101,-3.9786,-3.9775,-3.9622,-3.9289,-3.9295,-3.921,-3.905,-3.9022,-3.8984,-3.884,-3.8765,-3.8707,-3.8707,-3.8707,-3.8707,-3.8817,-4.0194,-4.1113,-4.137,-4.2525,-4.3479,-4.3479,-4.3479,-4.3479,-4.3479,-4.3479,-4.3479,-4.3479,-4.3479,-4.3479,-4.3479,-4.3479,-4.3479,-4.3479,-4.3479,-4.3479,-4.3462,-4.3479,-4.3479,-4.3479,-4.3479,-4.3462,-4.3479,-4.3479,-4.3462,-4.3479,-4.3479,-4.3479,-4.3479,-4.3479,-4.3479,-4.3479,-4.3479,-4.3479,-4.3479,-4.3479,-4.3479,-4.291,-4.2855,-4.2616,-4.2525,-4.1752,-4.1312,-4.0922,-3.9993,-3.9548,-3.9054,-3.9208,-3.932,-4.4836,-4.422,-4.3431,-4.2604,-4.1769,-4.1162,-4.0766,-4.0535,-4.0496,-4.0496,-4.0496,-4.0496,-4.0496,-4.0496,-4.0496,-4.0669,-4.0862,-4.065,-4.065,-4.1016,-4.2143,-4.1893,-4.0939,-4.1989,-4.1912,-4.0689,-4.0496,-4.0465,-4.0345,-4.0186,-3.9992,-3.9765,-3.9541,-3.9383,-3.9339,-3.9396,-3.9529,-3.9637,-3.9709,-3.9934,-4.0203,-4.0221,-4.0213,-4.0221,-4.0223,-4.0091,-3.9775,-3.9656,-3.9457,-3.9165,-3.9093,-3.8971,-3.8716,-3.8707,-3.8707,-3.8707,-3.8707,-3.8707,-3.8707,-3.8707,-3.8707,-3.8781,-4.0141,-4.1113,-4.1224,-4.258,-4.3351,-4.3479,-4.3479,-4.3479,-4.3479,-4.3479,-4.3479,-4.3479,-4.3479,-4.3479,-4.3479,-4.3479,-4.3479,-4.3462,-4.3303,-4.325,-4.3214,-4.3051,-4.294,-4.2977,-4.2959,-4.2977,-4.3196,-4.325,-4.3339,-4.3462,-4.3479,-4.3479,-4.3479,-4.3479,-4.3479,-4.3479,-4.3479,-4.3479,-4.3387,-4.3406,-4.3112,-4.2525,-4.2084,-4.1774,-4.124,-4.0432,-4.0029,-3.9843,-3.9433,-3.9009,-3.8851,-3.8873,-3.9045,-4.4335,-4.4182,-4.3412,-4.2566,-4.1835,-4.1623,-4.1219,-4.0573,-4.0496,-4.0496,-4.0496,-4.0496,-4.0496,-4.0496,-4.0496,-4.095,-4.1566,-4.092,-4.0997,-4.1797,-4.2019,-4.1604,-4.0727,-4.1623,-4.1546,-4.0554,-4.0496,-4.0364,-4.0139,-4.0071,-3.9775,-3.9269,-3.9192,-3.9068,-3.875,-3.9049,-3.904,-3.905,-3.959,-3.9872,-3.9712,-4.0138,-4.0176,-3.981,-4.0166,-4.0304,-4.0032,-3.9765,-3.9505,-3.9192,-3.9093,-3.8971,-3.875,-3.8707,-3.8707,-3.8707,-3.8707,-3.8707,-3.8707,-3.8707,-3.8707,-3.8909,-4.0194,-4.1113,-4.1315,-4.2543,-4.3479,-4.3479,-4.3479,-4.3479,-4.3479,-4.3479,-4.3479,-4.3479,-4.3479,-4.3479,-4.3479,-4.3479,-4.3462,-4.3375,-4.3014,-4.2713,-4.2596,-4.2324,-4.2083,-4.2041,-4.2021,-4.2165,-4.2617,-4.2751,-4.2976,-4.3304,-4.3444,-4.348,-4.3479,-4.3479,-4.3462,-4.3462,-4.3479,-4.3461,-4.3222,-4.313,-4.2543,-4.1956,-4.1258,-4.0928,-4.0545,-3.9845,-3.9717,-3.9478,-3.9001,-3.8707,-3.875,-3.8788,-3.8873,-4.4316,-4.4124,-4.2777,-4.2058,-4.1731,-4.1181,-4.0727,-4.0516,-4.0496,-4.0496,-4.0496,-4.0496,-4.0496,-4.0496,-4.0516,-4.1296,-4.2489,-4.1277,-4.1277,-4.2585,-4.322,-4.2701,-4.1777,-4.2277,-4.1912,-4.0708,-4.0496,-4.0364,-4.0091,-3.988,-3.9622,-3.9438,-3.9199,-3.9058,-3.8999,-3.9269,-3.9295,-3.9054,-3.9257,-3.9545,-3.9861,-3.9903,-3.9874,-3.9982,-4.0129,-3.9983,-3.9462,-3.9735,-3.9757,-3.9457,-3.9212,-3.8971,-3.8762,-3.8707,-3.8707,-3.8707,-3.8707,-3.8707,-3.8707,-3.8707,-3.8707,-3.8982,-4.0178,-4.1003,-4.126,-4.2543,-4.3406,-4.3479,-4.3479,-4.3479,-4.3479,-4.3479,-4.3479,-4.3479,-4.3479,-4.3497,-4.341,-4.316,-4.2976,-4.2865,-4.2442,-4.2103,-4.2041,-4.1814,-4.1725,-4.1725,-4.1725,-4.1853,-4.2059,-4.2402,-4.2693,-4.292,-4.316,-4.3268,-4.3051,-4.2996,-4.3051,-4.3031,-4.3082,-4.3149,-4.2947,-4.258,-4.1992,-4.1295,-4.0598,-4.0065,-3.9664,-3.946,-3.9313,-3.9166,-3.8817,-3.8707,-3.8707,-3.8676,-3.8634,-4.4316,-4.4143,-4.2854,-4.2085,-4.1769,-4.1181,-4.0785,-4.0535,-4.0496,-4.0496,-4.0496,-4.0496,-4.07,-4.0854,-4.0669,-4.1497,-4.2854,-4.1939,-4.22,-4.3374,-4.3662,-4.3239,-4.2335,-4.2431,-4.2143,-4.1123,-4.065,-4.0364,-4.0101,-3.9901,-3.9712,-3.9576,-3.9396,-3.9289,-3.9314,-3.9599,-3.9622,-3.9352,-3.9534,-3.9716,-3.9872,-3.9934,-3.9934,-3.9953,-4.012,-3.9842,-3.9225,-3.9634,-3.9746,-3.9469,-3.9218,-3.8971,-3.8735,-3.8707,-3.8707,-3.8707,-3.8707,-3.8707,-3.8707,-3.8707,-3.8707,-3.8946,-3.9918,-4.0783,-4.1205,-4.2378,-4.3075,-4.346,-4.3479,-4.3479,-4.3479,-4.3479,-4.3479,-4.3479,-4.3479,-4.341,-4.3232,-4.292,-4.2578,-4.2344,-4.1814,-4.1534,-4.1468,-4.1241,-4.1173,-4.1168,-4.119,-4.1308,-4.149,-4.1979,-4.2203,-4.248,-4.2808,-4.2733,-4.2462,-4.2469,-4.2589,-4.2595,-4.2594,-4.2606,-4.2543,-4.2047,-4.1479,-4.0561,-3.979,-3.9441,-3.9074,-3.8982,-3.8872,-3.8707,-3.8707,-3.8707,-3.8652,-3.823,-3.8121,-4.4316,-4.4201,-4.3431,-4.2547,-4.1854,-4.1739,-4.1239,-4.0573,-4.0496,-4.0496,-4.0496,-4.0496,-4.0893,-4.1354,-4.0777,-4.1401,-4.272,-4.2624,-4.3066,-4.3701,-4.3624,-4.3104,-4.3104,-4.2374,-4.1854,-4.1623,-4.0881,-4.0375,-4.011,-4.0071,-3.9932,-3.9698,-3.9645,-3.9622,-3.9668,-3.9943,-3.9901,-3.9668,-4.0072,-4.0053,-3.9724,-4.0138,-4.0212,-3.9735,-4.0185,-4.0034,-3.9302,-3.9401,-3.9432,-3.9125,-3.9085,-3.8971,-3.8747,-3.8707,-3.8707,-3.8707,-3.8707,-3.8707,-3.8707,-3.8707,-3.8707,-3.8781,-3.9496,-4.023,-4.1077,-4.1919,-4.2763,-4.3387,-4.3479,-4.3479,-4.3479,-4.3479,-4.3479,-4.3479,-4.341,-4.3178,-4.2807,-4.2635,-4.2221,-4.1768,-4.1246,-4.0856,-4.085,-4.049,-4.0328,-4.0254,-4.0279,-4.0521,-4.0844,-4.1313,-4.1643,-4.1979,-4.2284,-4.2221,-4.1934,-4.2085,-4.2087,-4.1495,-4.1575,-4.1682,-4.1631,-4.1132,-4.0708,-3.9827,-3.9294,-3.8909,-3.8707,-3.8707,-3.8707,-3.8707,-3.8707,-3.8707,-3.8358,-3.7863,-3.7456,-4.4316,-4.422,-4.3431,-4.2604,-4.1873,-4.1816,-4.1316,-4.0554,-4.0516,-4.0554,-4.0496,-4.0496,-4.065,-4.0804,-4.065,-4.1131,-4.1873,-4.1604,-4.2431,-4.3932,-4.347,-4.3508,-4.3547,-4.2508,-4.1827,-4.1739,-4.0969,-4.0383,-4.011,-4.012,-4.0071,-3.9982,-3.9963,-3.9953,-4.0002,-4.0062,-3.9922,-3.9656,-3.9727,-3.9944,-3.9993,-4.0101,-4.0139,-4.0033,-4.0311,-4.0024,-3.9212,-3.9173,-3.9109,-3.8859,-3.8999,-3.8971,-3.8716,-3.8707,-3.8707,-3.8707,-3.8707,-3.8707,-3.8707,-3.8707,-3.8707,-3.8781,-3.9368,-4.023,-4.104,-4.1846,-4.2635,-4.3296,-4.3479,-4.3479,-4.3479,-4.3479,-4.3479,-4.3444,-4.3124,-4.2827,-4.2596,-4.1916,-4.1291,-4.111,-4.0648,-4.0417,-4.0336,-4.0229,-4.0113,-4.0113,-4.0121,-4.0146,-4.0473,-4.085,-4.1291,-4.1358,-4.1534,-4.1508,-4.1525,-4.1703,-4.1428,-4.0535,-4.0388,-4.0489,-4.0256,-3.9816,-3.9428,-3.8927,-3.9001,-3.8744,-3.8707,-3.8707,-3.8707,-3.8707,-3.8285,-3.808,-3.7661,-3.7217,-3.678,-4.4624,-4.4259,-4.3797,-4.2912,-4.1923,-4.22,-4.1643,-4.0746,-4.0912,-4.0816,-4.0573,-4.0496,-4.0708,-4.0989,-4.0669,-4.0969,-4.1673,-4.1662,-4.247,-4.3547,-4.4047,-4.4432,-4.4355,-4.3162,-4.2354,-4.22,-4.1093,-4.0463,-4.0304,-4.0278,-4.0278,-4.0258,-4.0278,-4.0258,-4.0258,-4.0278,-4.0176,-4.0024,-3.9984,-4.0053,-4.0101,-4.0233,-4.0186,-4.0186,-4.0339,-4.011,-3.9395,-3.9173,-3.8971,-3.8815,-3.8933,-3.8971,-3.8735,-3.8707,-3.8707,-3.8707,-3.8707,-3.8707,-3.8707,-3.8707,-3.8707,-3.8762,-3.9203,-3.9955,-4.0857,-4.1572,-4.2194,-4.3296,-4.3442,-4.3479,-4.3479,-4.3479,-4.3392,-4.3142,-4.2656,-4.2342,-4.2322,-4.149,-4.0874,-4.0577,-4.0311,-4.0113,-4.0113,-4.0113,-4.0113,-4.0113,-4.0113,-4.0096,-4.0204,-4.0577,-4.0827,-4.085,-4.0967,-4.103,-4.0695,-4.0701,-4.0456,-3.96,-3.8894,-3.9048,-3.9062,-3.8696,-3.8617,-3.8488,-3.8596,-3.8707,-3.8707,-3.8707,-3.8707,-3.8487,-3.7915,-3.7511,-3.7254,-3.6358,-3.5954,-4.5094,-4.4316,-4.4393,-4.3412,-4.2077,-4.2681,-4.2066,-4.0843,-4.1181,-4.1123,-4.0612,-4.0496,-4.0835,-4.1623,-4.095,-4.1104,-4.1846,-4.2489,-4.2893,-4.3662,-4.4489,-4.5355,-4.494,-4.3643,-4.2874,-4.2508,-4.1227,-4.0623,-4.0457,-4.0473,-4.0481,-4.0465,-4.0473,-4.0489,-4.0438,-4.0473,-4.0489,-4.043,-4.0397,-4.0311,-4.0241,-4.0356,-4.0356,-4.0241,-4.0304,-4.0138,-3.9626,-3.9276,-3.8971,-3.8704,-3.8919,-3.8894,-3.8719,-3.8707,-3.8707,-3.8707,-3.8707,-3.8707,-3.8707,-3.8707,-3.8707,-3.8726,-3.8726,-3.9331,-4.0526,-4.0983,-4.1607,-4.3094,-4.3368,-4.3206,-4.3119,-4.3264,-4.2887,-4.2314,-4.1762,-4.1626,-4.1494,-4.1126,-4.0625,-4.0196,-4.0113,-4.0113,-4.0113,-4.0113,-4.0113,-4.0113,-4.0113,-4.0113,-4.0146,-4.0392,-4.0424,-4.0336,-4.0466,-4.0601,-4.0119,-3.9644,-3.9203,-3.8592,-3.7644,-3.7461,-3.7952,-3.7863,-3.7966,-3.8065,-3.8415,-3.8627,-3.8707,-3.8707,-3.8707,-3.834,-3.779,-3.7511,-3.7144,-3.5734,-3.4926,-4.5094,-4.4355,-4.5037,-4.3951,-4.2154,-4.2681,-4.2124,-4.0554,-4.0739,-4.0893,-4.0554,-4.0516,-4.0689,-4.0881,-4.1335,-4.1635,-4.197,-4.2701,-4.3085,-4.3316,-4.4816,-4.5075,-4.4528,-4.3451,-4.2758,-4.2066,-4.1073,-4.0535,-4.0496,-4.0496,-4.0496,-4.0496,-4.0496,-4.0496,-4.0496,-4.0496,-4.0496,-4.0496,-4.0496,-4.0473,-4.0414,-4.0449,-4.0465,-4.0381,-4.0286,-3.9993,-3.9615,-3.9276,-3.899,-3.8807,-3.8747,-3.8773,-3.8704,-3.8707,-3.8707,-3.8707,-3.8707,-3.8707,-3.8707,-3.8707,-3.8707,-3.8707,-3.8744,-3.9111,-3.9955,-4.0194,-4.0965,-4.2158,-4.2561,-4.2405,-4.2159,-4.254,-4.1989,-4.0935,-4.038,-4.0244,-4.0237,-4.0264,-4.016,-4.0129,-4.0113,-4.0113,-4.0113,-4.0113,-4.0113,-4.0113,-4.0079,-4.0079,-4.0137,-4.0228,-4.0153,-4.0011,-4.0196,-4.0292,-3.9759,-3.9063,-3.825,-3.7734,-3.6823,-3.6312,-3.6805,-3.7305,-3.7524,-3.7911,-3.8382,-3.853,-3.8627,-3.8689,-3.8689,-3.8175,-3.7606,-3.7037,-3.6266,-3.4963,-3.4215,-4.5344,-4.4921,-4.4998,-4.3989,-4.2701,-4.3239,-4.245,-4.1035,-4.1843,-4.1574,-4.0862,-4.1266,-4.1497,-4.1181,-4.1989,-4.2412,-4.2489,-4.2854,-4.3085,-4.3258,-4.4047,-4.3874,-4.3239,-4.2816,-4.2335,-4.2104,-4.1066,-4.0554,-4.0496,-4.0496,-4.0496,-4.0496,-4.0496,-4.0496,-4.0496,-4.0496,-4.0496,-4.0496,-4.0496,-4.0496,-4.0496,-4.0496,-4.0496,-4.0457,-4.0251,-3.9951,-3.9611,-3.9264,-3.899,-3.8777,-3.8707,-3.8707,-3.8707,-3.8707,-3.8707,-3.8707,-3.8707,-3.8707,-3.8707,-3.8707,-3.8707,-3.8707,-3.8707,-3.9148,-3.9643,-3.9882,-4.0432,-4.1387,-4.1719,-4.16,-4.1357,-4.1306,-4.0755,-3.9982,-3.9371,-3.919,-3.906,-3.9309,-3.9757,-3.9977,-4.0113,-4.0113,-4.0113,-3.991,-4.0011,-3.996,-3.9503,-3.952,-3.9893,-3.9934,-3.9934,-3.991,-4.0045,-3.9943,-3.9417,-3.8563,-3.7407,-3.6826,-3.6173,-3.5915,-3.6118,-3.6666,-3.721,-3.7632,-3.805,-3.8433,-3.8546,-3.8609,-3.8407,-3.7863,-3.7184,-3.6413,-3.5569,-3.4619,-3.4119,-4.5364,-4.5498,-4.4528,-4.372,-4.3239,-4.3605,-4.2547,-4.1054,-4.2912,-4.2393,-4.1324,-4.2431,-4.2489,-4.2288,-4.2893,-4.3297,-4.347,-4.3297,-4.3412,-4.3489,-4.3316,-4.3047,-4.2431,-4.2181,-4.2162,-4.2662,-4.1266,-4.0554,-4.0496,-4.0496,-4.0496,-4.0496,-4.0496,-4.0496,-4.0496,-4.0496,-4.0496,-4.0496,-4.0496,-4.0496,-4.0496,-4.0496,-4.0496,-4.0457,-4.033,-3.9983,-3.9656,-3.9346,-3.9059,-3.8735,-3.8707,-3.8707,-3.8707,-3.8707,-3.8707,-3.8707,-3.8707,-3.8707,-3.8707,-3.8707,-3.8707,-3.8707,-3.8707,-3.8982,-3.9478,-3.9643,-4.0065,-4.0616,-4.1022,-4.1064,-4.0813,-4.0546,-3.9867,-3.9075,-3.8558,-3.8241,-3.797,-3.8311,-3.8843,-3.9428,-3.9377,-3.9292,-3.9411,-3.9377,-3.9639,-3.9706,-3.9191,-3.8971,-3.9351,-3.9469,-3.9317,-3.9216,-3.9233,-3.8911,-3.8386,-3.8115,-3.6943,-3.6316,-3.5695,-3.5701,-3.5689,-3.6054,-3.6626,-3.7192,-3.7614,-3.7981,-3.82,-3.8167,-3.7885,-3.7415,-3.6765,-3.5962,-3.5166,-3.4348,-3.4045,-4.4335,-4.546,-4.3951,-4.322,-4.3028,-4.2489,-4.1643,-4.0804,-4.1873,-4.2019,-4.1777,-4.2643,-4.3143,-4.3104,-4.372,-4.4432,-4.4547,-4.4201,-4.3912,-4.3701,-4.3297,-4.2797,-4.272,-4.1931,-4.1893,-4.172,-4.0969,-4.0516,-4.0496,-4.0496,-4.0496,-4.0496,-4.0496,-4.0496,-4.0496,-4.0496,-4.0496,-4.0496,-4.0496,-4.0496,-4.0496,-4.0496,-4.0496,-4.0481,-4.0364,-4.0053,-3.9701,-3.9529,-3.9262,-3.8762,-3.8707,-3.8707,-3.8707,-3.8707,-3.8707,-3.8707,-3.8707,-3.8707,-3.8707,-3.8707,-3.8707,-3.8707,-3.8707,-3.8707,-3.8909,-3.8964,-3.9405,-3.9974,-4.0529,-4.0613,-3.9549,-3.9443,-3.8656,-3.7631,-3.7123,-3.7115,-3.7039,-3.7178,-3.7499,-3.8125,-3.8227,-3.843,-3.8633,-3.8751,-3.8785,-3.8751,-3.8379,-3.8261,-3.8514,-3.8481,-3.8278,-3.821,-3.8159,-3.7702,-3.7218,-3.71,-3.6558,-3.6084,-3.5639,-3.5639,-3.5644,-3.5627,-3.6015,-3.6746,-3.7156,-3.7416,-3.7578,-3.7613,-3.7191,-3.6574,-3.6009,-3.5481,-3.4816,-3.416,-3.399,-4.4863,-4.5402,-4.3797,-4.3085,-4.2931,-4.2173,-4.1296,-4.0862,-4.2277,-4.2604,-4.2527,-4.3508,-4.4105,-4.4047,-4.4605,-4.4836,-4.4316,-4.4412,-4.3816,-4.3143,-4.2624,-4.2739,-4.2835,-4.1816,-4.1585,-4.145,-4.0969,-4.0496,-4.0496,-4.0496,-4.0496,-4.0496,-4.0496,-4.0496,-4.0496,-4.0496,-4.0496,-4.0496,-4.0496,-4.0496,-4.0496,-4.0496,-4.0496,-4.0457,-4.0212,-3.9884,-3.9645,-3.9229,-3.9008,-3.8747,-3.8707,-3.8707,-3.8707,-3.8707,-3.8707,-3.8707,-3.8707,-3.8707,-3.8707,-3.8707,-3.8707,-3.8707,-3.8707,-3.8707,-3.8707,-3.8781,-3.8909,-3.9258,-3.9462,-3.9504,-3.8576,-3.8451,-3.7648,-3.6752,-3.6317,-3.6209,-3.6197,-3.6197,-3.6485,-3.6924,-3.7516,-3.7889,-3.8041,-3.8075,-3.7973,-3.777,-3.7516,-3.7567,-3.7696,-3.7567,-3.7364,-3.7516,-3.7483,-3.7127,-3.6654,-3.6434,-3.6315,-3.5876,-3.5616,-3.5616,-3.56,-3.5622,-3.5946,-3.6522,-3.681,-3.6893,-3.6734,-3.6684,-3.62,-3.5744,-3.5245,-3.4787,-3.4447,-3.41,-3.3917,-4.5306,-4.546,-4.3605,-4.2931,-4.2912,-4.197,-4.1143,-4.1054,-4.2739,-4.3066,-4.2508,-4.4182,-4.4951,-4.4778,-4.4844,-4.4613,-4.3374,-4.3951,-4.3374,-4.2835,-4.2346,-4.2547,-4.247,-4.1777,-4.1085,-4.1219,-4.0881,-4.0496,-4.0496,-4.0496,-4.0496,-4.0496,-4.0496,-4.0496,-4.0496,-4.0496,-4.0496,-4.0496,-4.0496,-4.0496,-4.0496,-4.0496,-4.0496,-4.0489,-4.0024,-3.981,-3.969,-3.9288,-3.8998,-3.8833,-3.8732,-3.8707,-3.8707,-3.8707,-3.8707,-3.8707,-3.8707,-3.8707,-3.8707,-3.8707,-3.8707,-3.8707,-3.8707,-3.8707,-3.8707,-3.8707,-3.8726,-3.8707,-3.8765,-3.8629,-3.8107,-3.7541,-3.7032,-3.6474,-3.598,-3.5633,-3.5701,-3.5735,-3.5791,-3.6276,-3.6975,-3.7178,-3.7172,-3.707,-3.6901,-3.6867,-3.6654,-3.6705,-3.6783,-3.6688,-3.662,-3.6874,-3.6891,-3.662,-3.6282,-3.5994,-3.591,-3.5735,-3.5616,-3.5616,-3.5616,-3.56,-3.5916,-3.6042,-3.6228,-3.6257,-3.6009,-3.5768,-3.5435,-3.5031,-3.4518,-3.4183,-3.4045,-3.3977,-3.3862,-4.4259,-4.5402,-4.2989,-4.2393,-4.2797,-4.1401,-4.065,-4.0689,-4.1739,-4.2489,-4.2893,-4.397,-4.4844,-4.5094,-4.4643,-4.4374,-4.3989,-4.3643,-4.3624,-4.3566,-4.3201,-4.3008,-4.297,-4.2162,-4.1258,-4.1046,-4.0669,-4.0516,-4.0496,-4.0496,-4.0496,-4.0496,-4.0496,-4.0496,-4.0496,-4.0496,-4.0496,-4.0496,-4.0496,-4.0496,-4.0496,-4.0496,-4.0496,-4.0473,-4.0353,-4.0194,-3.9943,-3.9559,-3.9275,-3.9027,-3.8818,-3.8704,-3.8707,-3.8707,-3.8707,-3.8707,-3.8707,-3.8707,-3.8707,-3.8707,-3.8707,-3.8707,-3.8707,-3.8707,-3.8707,-3.8707,-3.8707,-3.8707,-3.8707,-3.8465,-3.7963,-3.7524,-3.6999,-3.6498,-3.5989,-3.5717,-3.5605,-3.5616,-3.5616,-3.565,-3.6309,-3.6174,-3.6056,-3.5938,-3.5836,-3.5819,-3.5836,-3.5938,-3.6005,-3.6028,-3.6011,-3.6282,-3.64,-3.6163,-3.6079,-3.5752,-3.5667,-3.5616,-3.56,-3.5583,-3.5549,-3.5464,-3.5148,-3.5283,-3.5465,-3.5574,-3.5462,-3.5179,-3.4794,-3.4315,-3.3771,-3.3733,-3.3831,-3.3803,-3.3807,-4.494,-4.5402,-4.3393,-4.2739,-4.2854,-4.1247,-4.0496,-4.0689,-4.1412,-4.2288,-4.3143,-4.3951,-4.4528,-4.4701,-4.4412,-4.4047,-4.372,-4.3682,-4.3932,-4.422,-4.3932,-4.3739,-4.3451,-4.2489,-4.1489,-4.1143,-4.0766,-4.0516,-4.0496,-4.0496,-4.0496,-4.0496,-4.0496,-4.0496,-4.0496,-4.0496,-4.0496,-4.0496,-4.0496,-4.0496,-4.0496,-4.0496,-4.0496,-4.0489,-4.0364,-4.0251,-4.0052,-3.9576,-3.9276,-3.9044,-3.8859,-3.8707,-3.8707,-3.8707,-3.8707,-3.8707,-3.8707,-3.8707,-3.8707,-3.8707,-3.8707,-3.8707,-3.8707,-3.8707,-3.8707,-3.8707,-3.8707,-3.8707,-3.8707,-3.843,-3.803,-3.7737,-3.7136,-3.6606,-3.6182,-3.5898,-3.5717,-3.5622,-3.5616,-3.5616,-3.5616,-3.5616,-3.5616,-3.565,-3.5684,-3.5701,-3.5718,-3.5752,-3.5769,-3.5752,-3.5718,-3.5735,-3.5785,-3.5718,-3.5735,-3.5633,-3.565,-3.56,-3.5549,-3.5532,-3.5447,-3.5278,-3.4793,-3.4421,-3.4435,-3.4585,-3.4715,-3.4418,-3.3902,-3.3442,-3.302,-3.3261,-3.353,-3.3771,-3.3793,-4.5594,-4.5441,-4.3797,-4.3085,-4.2912,-4.1239,-4.0496,-4.0593,-4.1143,-4.2085,-4.3104,-4.3912,-4.422,-4.4028,-4.3932,-4.3643,-4.3201,-4.3932,-4.4239,-4.4316,-4.4278,-4.4105,-4.3489,-4.247,-4.1662,-4.1489,-4.0785,-4.0516,-4.0496,-4.0496,-4.0496,-4.0496,-4.0496,-4.0496,-4.0496,-4.0496,-4.0496,-4.0496,-4.0496,-4.0496,-4.0496,-4.0496,-4.0496,-4.0449,-4.033,-4.0214,-4.011,-3.9712,-3.9401,-3.9205,-3.8975,-3.88,-3.8719,-3.8707,-3.8707,-3.8707,-3.8707,-3.8707,-3.8707,-3.8707,-3.8707,-3.8707,-3.8707,-3.8707,-3.8707,-3.8707,-3.8707,-3.8707,-3.8707,-3.8415,-3.8047,-3.7876,-3.7452,-3.6923,-3.6457,-3.6161,-3.5876,-3.5761,-3.5667,-3.5616,-3.5616,-3.5616,-3.5616,-3.5616,-3.5616,-3.5616,-3.5616,-3.5616,-3.5616,-3.5616,-3.5616,-3.5616,-3.5616,-3.5616,-3.5616,-3.5616,-3.5616,-3.5498,-3.5447,-3.5301,-3.5115,-3.4658,-3.4066,-3.3778,-3.358,-3.33,-3.3271,-3.3131,-3.3019,-3.3095,-3.3139,-3.3093,-3.324,-3.3564,-3.3762,-4.5594,-4.546,-4.3797,-4.3143,-4.3028,-4.1247,-4.0554,-4.0631,-4.065,-4.1623,-4.297,-4.3835,-4.3797,-4.3335,-4.3162,-4.3104,-4.3085,-4.3932,-4.4143,-4.4239,-4.4259,-4.3893,-4.3239,-4.2412,-4.1489,-4.0796,-4.0535,-4.0516,-4.0496,-4.0496,-4.0496,-4.0496,-4.0496,-4.0496,-4.0496,-4.0496,-4.0496,-4.0496,-4.0496,-4.0496,-4.0496,-4.0496,-4.0496,-4.0496,-4.0481,-4.0465,-4.0438,-4.011,-3.9765,-3.9529,-3.9178,-3.8894,-3.8732,-3.8707,-3.8707,-3.8707,-3.8707,-3.8707,-3.8707,-3.8707,-3.8707,-3.8707,-3.8707,-3.8707,-3.8707,-3.8707,-3.8707,-3.8707,-3.8707,-3.8481,-3.8132,-3.7859,-3.772,-3.7323,-3.6884,-3.6542,-3.6207,-3.5876,-3.5778,-3.5644,-3.5616,-3.5616,-3.5616,-3.5616,-3.5616,-3.5616,-3.5616,-3.5616,-3.5616,-3.5616,-3.5616,-3.5616,-3.5616,-3.5616,-3.5616,-3.5583,-3.5515,-3.5267,-3.5064,-3.481,-3.4539,-3.3981,-3.3322,-3.3113,-3.2863,-3.233,-3.1975,-3.2267,-3.2614,-3.3106,-3.3256,-3.3084,-3.327,-3.368,-3.3793,-4.5594,-4.5479,-4.4316,-4.3835,-4.3758,-4.2585,-4.1797,-4.1335,-4.1316,-4.1604,-4.2354,-4.3124,-4.3104,-4.25,-4.2308,-4.2316,-4.2354,-4.2585,-4.3374,-4.4066,-4.422,-4.3797,-4.3162,-4.2547,-4.1931,-4.0785,-4.0496,-4.0496,-4.0496,-4.0496,-4.0496,-4.0496,-4.0496,-4.0496,-4.0496,-4.0496,-4.0496,-4.0496,-4.0496,-4.0496,-4.0496,-4.0496,-4.0496,-4.0496,-4.0496,-4.0496,-4.0457,-4.0251,-3.9943,-3.9611,-3.9276,-3.899,-3.8747,-3.8704,-3.8707,-3.8707,-3.8707,-3.8707,-3.8707,-3.8707,-3.8707,-3.8707,-3.8707,-3.8707,-3.8707,-3.8707,-3.8707,-3.8707,-3.8707,-3.853,-3.8481,-3.8366,-3.8218,-3.7773,-3.7342,-3.6964,-3.6586,-3.6249,-3.5937,-3.5827,-3.5689,-3.5616,-3.5616,-3.5616,-3.5616,-3.5616,-3.5616,-3.5616,-3.5616,-3.5566,-3.5532,-3.5532,-3.5532,-3.5363,-3.5329,-3.5363,-3.5402,-3.4996,-3.459,-3.4235,-3.3829,-3.319,-3.2635,-3.2425,-3.2267,-3.1932,-3.1769,-3.1848,-3.2149,-3.2599,-3.287,-3.2963,-3.3302,-3.3766,-3.3807,-4.4855,-4.4786,-4.4182,-4.3951,-4.3835,-4.3066,-4.2239,-4.1508,-4.1354,-4.1412,-4.147,-4.2277,-4.2239,-4.1662,-4.175,-4.1854,-4.1989,-4.2316,-4.3162,-4.3624,-4.372,-4.3431,-4.3028,-4.2374,-4.1431,-4.065,-4.0496,-4.0496,-4.0496,-4.0496,-4.0496,-4.0496,-4.0496,-4.0496,-4.0496,-4.0496,-4.0496,-4.0496,-4.0496,-4.0496,-4.0496,-4.0496,-4.0496,-4.0473,-4.0425,-4.0441,-4.0336,-4.0148,-3.9829,-3.9576,-3.9295,-3.899,-3.8803,-3.8707,-3.8707,-3.8707,-3.8707,-3.8707,-3.8707,-3.8707,-3.8707,-3.8707,-3.8707,-3.8707,-3.8707,-3.8707,-3.8707,-3.8707,-3.8707,-3.8707,-3.8707,-3.8627,-3.8546,-3.8133,-3.7807,-3.7452,-3.7022,-3.6666,-3.6291,-3.6006,-3.5827,-3.56,-3.5616,-3.5616,-3.5616,-3.5616,-3.5616,-3.5616,-3.5616,-3.5532,-3.5397,-3.5397,-3.5397,-3.5194,-3.4974,-3.494,-3.4827,-3.4201,-3.3795,-3.3457,-3.3021,-3.2412,-3.2026,-3.1879,-3.1706,-3.1574,-3.1596,-3.1699,-3.1872,-3.2092,-3.2549,-3.3151,-3.339,-3.3807,-3.3807,-4.322,-4.3162,-4.3181,-4.3162,-4.3047,-4.222,-4.145,-4.0843,-4.0669,-4.0708,-4.0854,-4.1566,-4.1412,-4.0912,-4.1354,-4.1566,-4.1739,-4.2354,-4.3162,-4.3451,-4.2854,-4.2566,-4.2316,-4.1758,-4.1112,-4.065,-4.0496,-4.0496,-4.0496,-4.0496,-4.0496,-4.0496,-4.0496,-4.0496,-4.0496,-4.0496,-4.0496,-4.0496,-4.0496,-4.0496,-4.0496,-4.0496,-4.0496,-4.0465,-4.0339,-4.0356,-4.0285,-4.0043,-3.9742,-3.9493,-3.9251,-3.899,-3.875,-3.8707,-3.8707,-3.8707,-3.8707,-3.8707,-3.8707,-3.8707,-3.8707,-3.8707,-3.8707,-3.8707,-3.8707,-3.8707,-3.8707,-3.8707,-3.8707,-3.8707,-3.8707,-3.8692,-3.8627,-3.853,-3.8183,-3.7859,-3.7452,-3.7155,-3.6805,-3.6416,-3.5941,-3.5622,-3.56,-3.5616,-3.5616,-3.5616,-3.5616,-3.56,-3.5583,-3.5329,-3.5126,-3.5013,-3.4962,-3.4607,-3.4332,-3.4421,-3.4201,-3.3541,-3.3051,-3.2801,-3.2395,-3.187,-3.1568,-3.1385,-3.1593,-3.1824,-3.1714,-3.16,-3.195,-3.2383,-3.3057,-3.3564,-3.3753,-3.3807,-3.3807,-4.3085,-4.3085,-4.3085,-4.2777,-4.2335,-4.2566,-4.2162,-4.1354,-4.0823,-4.0804,-4.1181,-4.1181,-4.0843,-4.0689,-4.0746,-4.0989,-4.1066,-4.1093,-4.1824,-4.2508,-4.197,-4.2047,-4.1912,-4.1623,-4.0997,-4.0631,-4.0496,-4.0496,-4.0496,-4.0496,-4.0496,-4.0496,-4.0496,-4.0496,-4.0496,-4.0496,-4.0496,-4.0496,-4.0496,-4.0496,-4.0496,-4.0496,-4.0496,-4.0489,-4.0372,-4.0276,-4.0241,-3.9932,-3.9634,-3.9339,-3.9112,-3.8961,-3.8747,-3.8707,-3.8707,-3.8707,-3.8707,-3.8707,-3.8707,-3.8707,-3.8707,-3.8707,-3.8707,-3.8707,-3.8707,-3.8707,-3.8707,-3.8707,-3.8707,-3.8707,-3.8707,-3.8707,-3.8676,-3.8676,-3.843,-3.82,-3.7877,-3.7685,-3.7379,-3.6943,-3.6481,-3.5946,-3.5739,-3.5616,-3.5594,-3.5497,-3.5486,-3.5487,-3.5481,-3.503,-3.4692,-3.4472,-3.4303,-3.3914,-3.3694,-3.3677,-3.3423,-3.278,-3.2442,-3.2259,-3.1819,-3.143,-3.1387,-3.1359,-3.1768,-3.2144,-3.2057,-3.2039,-3.2349,-3.2807,-3.3211,-3.3592,-3.378,-3.3807,-3.3807,-4.22,-4.22,-4.22,-4.1893,-4.1546,-4.2297,-4.2162,-4.1354,-4.0766,-4.0997,-4.147,-4.0893,-4.0727,-4.0796,-4.0623,-4.0496,-4.0496,-4.0535,-4.0997,-4.1662,-4.1431,-4.1585,-4.1662,-4.1489,-4.092,-4.0593,-4.0496,-4.0496,-4.0496,-4.0496,-4.0496,-4.0496,-4.0516,-4.0496,-4.0496,-4.0496,-4.0496,-4.0496,-4.0496,-4.0496,-4.0496,-4.0496,-4.0496,-4.0422,-4.0302,-4.0148,-4.0022,-3.9794,-3.9469,-3.9152,-3.8999,-3.8913,-3.8747,-3.8707,-3.8707,-3.8707,-3.8707,-3.8707,-3.8707,-3.8707,-3.8707,-3.8707,-3.8707,-3.8707,-3.8707,-3.8707,-3.8707,-3.8707,-3.8707,-3.8707,-3.8707,-3.8707,-3.8707,-3.8707,-3.8627,-3.8382,-3.8283,-3.8083,-3.7844,-3.7414,-3.6915,-3.6406,-3.598,-3.5676,-3.5554,-3.5445,-3.5314,-3.5282,-3.5177,-3.4692,-3.4117,-3.38,-3.3558,-3.322,-3.2966,-3.2865,-3.2547,-3.2022,-3.187,-3.1769,-3.1599,-3.1258,-3.1305,-3.1428,-3.1932,-3.2298,-3.24,-3.2516,-3.2582,-3.2679,-3.2872,-3.327,-3.3707,-3.3807,-3.3807,-4.0516,-4.0496,-4.0496,-4.0573,-4.0669,-4.145,-4.1316,-4.0593,-4.0554,-4.0989,-4.172,-4.0893,-4.0804,-4.1354,-4.0835,-4.0516,-4.0496,-4.0496,-4.095,-4.1258,-4.0989,-4.1219,-4.12,-4.0969,-4.0708,-4.0573,-4.0496,-4.0496,-4.0516,-4.0739,-4.0739,-4.0573,-4.07,-4.0623,-4.0593,-4.0496,-4.0496,-4.0496,-4.0496,-4.0496,-4.0496,-4.0496,-4.0496,-4.0397,-4.0138,-3.9973,-3.9772,-3.9421,-3.9109,-3.8923,-3.8873,-3.8762,-3.8707,-3.8707,-3.8707,-3.8707,-3.8707,-3.8707,-3.8707,-3.8707,-3.8707,-3.8707,-3.8707,-3.8707,-3.8707,-3.8707,-3.8707,-3.8707,-3.8707,-3.8707,-3.8707,-3.8707,-3.8707,-3.8707,-3.8707,-3.8611,-3.8562,-3.8403,-3.8189,-3.7811,-3.7291,-3.6873,-3.661,-3.631,-3.5518,-3.5203,-3.4929,-3.4316,-3.4218,-3.4134,-3.3563,-3.2903,-3.2699,-3.251,-3.2307,-3.2188,-3.2002,-3.1613,-3.1478,-3.1376,-3.1207,-3.121,-3.1271,-3.1524,-3.2109,-3.2467,-3.2681,-3.2663,-3.2565,-3.2679,-3.295,-3.324,-3.3748,-3.3807,-3.3807,-4.0496,-4.0496,-4.0496,-4.0496,-4.0535,-4.0785,-4.1046,-4.1316,-4.0823,-4.0989,-4.1739,-4.0873,-4.0746,-4.0823,-4.0612,-4.0516,-4.0496,-4.0516,-4.0612,-4.0689,-4.0689,-4.0719,-4.07,-4.0642,-4.0496,-4.0496,-4.0496,-4.0516,-4.0662,-4.095,-4.095,-4.0623,-4.1085,-4.0989,-4.0719,-4.0516,-4.0554,-4.0554,-4.0573,-4.0496,-4.0496,-4.0496,-4.0489,-4.0336,-4.0082,-3.9912,-3.9583,-3.9249,-3.8975,-3.8788,-3.8747,-3.8707,-3.8707,-3.8707,-3.8707,-3.8707,-3.8707,-3.8707,-3.8707,-3.8707,-3.8707,-3.8707,-3.8707,-3.8707,-3.8707,-3.8707,-3.8707,-3.8707,-3.8707,-3.8707,-3.8707,-3.8707,-3.8707,-3.8707,-3.8707,-3.8692,-3.8643,-3.858,-3.8427,-3.8556,-3.8058,-3.763,-3.7341,-3.6266,-3.5511,-3.5084,-3.4514,-3.3781,-3.3326,-3.3254,-3.2983,-3.2327,-3.2005,-3.1884,-3.1698,-3.1546,-3.1427,-3.1275,-3.1207,-3.119,-3.119,-3.121,-3.1271,-3.1601,-3.2179,-3.2665,-3.3045,-3.2965,-3.287,-3.3057,-3.3317,-3.3518,-3.3703,-3.378,-3.3807,-4.0496,-4.0496,-4.0496,-4.0496,-4.0496,-4.0496,-4.0835,-4.1143,-4.0727,-4.0989,-4.1654,-4.0881,-4.0689,-4.0989,-4.0727,-4.0496,-4.0496,-4.0496,-4.0554,-4.0554,-4.0496,-4.0535,-4.0516,-4.0496,-4.0496,-4.0496,-4.0496,-4.0496,-4.0727,-4.1258,-4.1412,-4.1162,-4.1662,-4.1431,-4.12,-4.1104,-4.1066,-4.0912,-4.0746,-4.0554,-4.0489,-4.0481,-4.0449,-4.0302,-4.0072,-3.9735,-3.9445,-3.9099,-3.8869,-3.8719,-3.8707,-3.8707,-3.8707,-3.8707,-3.8707,-3.8707,-3.8707,-3.8707,-3.8707,-3.8707,-3.8707,-3.8707,-3.8707,-3.8707,-3.8707,-3.8707,-3.8707,-3.8707,-3.8707,-3.8707,-3.8707,-3.8707,-3.8707,-3.8707,-3.8707,-3.8707,-3.8707,-3.8707,-3.8914,-3.9243,-3.8992,-3.8528,-3.7709,-3.6468,-3.5391,-3.4754,-3.3982,-3.3145,-3.2699,-3.253,-3.2273,-3.1799,-3.1529,-3.1326,-3.119,-3.119,-3.1207,-3.1224,-3.1207,-3.119,-3.119,-3.1232,-3.1293,-3.1714,-3.2265,-3.2713,-3.3154,-3.3302,-3.3299,-3.3462,-3.3494,-3.355,-3.3662,-3.3793,-3.3807,-4.0496,-4.0496,-4.0496,-4.0496,-4.0496,-4.0496,-4.0535,-4.0496,-4.0516,-4.0939,-4.1412,-4.0835,-4.0873,-4.1104,-4.0785,-4.0516,-4.0496,-4.0496,-4.0496,-4.0496,-4.0496,-4.0496,-4.0496,-4.0496,-4.0496,-4.0496,-4.0496,-4.0516,-4.0785,-4.1431,-4.2027,-4.1835,-4.197,-4.195,-4.195,-4.1654,-4.1538,-4.145,-4.1066,-4.0746,-4.0519,-4.0438,-4.0356,-4.0091,-3.9757,-3.9414,-3.9125,-3.8894,-3.8707,-3.8707,-3.8707,-3.8707,-3.8707,-3.8707,-3.8707,-3.8707,-3.8707,-3.8707,-3.8707,-3.8707,-3.8707,-3.8707,-3.8707,-3.8707,-3.8707,-3.8707,-3.8707,-3.8707,-3.8707,-3.8707,-3.8707,-3.8707,-3.8707,-3.8707,-3.8707,-3.8707,-3.8707,-3.8949,-3.9527,-3.9745,-3.9628,-3.9102,-3.8205,-3.6965,-3.5329,-3.4484,-3.3516,-3.2608,-3.2361,-3.2124,-3.1836,-3.1495,-3.1326,-3.1207,-3.119,-3.119,-3.119,-3.119,-3.119,-3.119,-3.119,-3.1252,-3.1351,-3.1733,-3.2144,-3.2713,-3.3121,-3.3255,-3.3433,-3.362,-3.3638,-3.3536,-3.3606,-3.378,-3.3807,-4.0496,-4.0496,-4.0496,-4.0496,-4.0496,-4.0496,-4.0496,-4.0496,-4.0496,-4.0631,-4.0746,-4.065,-4.0612,-4.0777,-4.0689,-4.0496,-4.0496,-4.0496,-4.0496,-4.0496,-4.0496,-4.0496,-4.0496,-4.0496,-4.0496,-4.0496,-4.0496,-4.0593,-4.1073,-4.1873,-4.2431,-4.2,-4.2346,-4.2777,-4.2739,-4.2365,-4.2038,-4.195,-4.17,-4.1123,-4.0662,-4.0351,-4.0129,-3.9969,-3.9717,-3.9432,-3.9157,-3.8914,-3.8753,-3.8707,-3.8707,-3.8707,-3.8707,-3.8707,-3.8707,-3.8707,-3.8707,-3.8707,-3.8707,-3.8707,-3.8707,-3.8707,-3.8707,-3.8707,-3.8707,-3.8707,-3.8707,-3.8707,-3.8707,-3.8707,-3.8707,-3.8707,-3.8707,-3.8707,-3.8707,-3.8707,-3.8707,-3.9355,-4.002,-4.0136,-4.0088,-3.9393,-3.8502,-3.7183,-3.558,-3.4255,-3.312,-3.2364,-3.2344,-3.2192,-3.1904,-3.1596,-3.136,-3.1241,-3.1207,-3.119,-3.119,-3.119,-3.119,-3.119,-3.119,-3.1232,-3.1312,-3.1621,-3.2022,-3.2466,-3.2856,-3.3166,-3.3361,-3.3578,-3.3766,-3.3666,-3.3666,-3.3807,-3.3807,-4.0496,-4.0496,-4.0496,-4.0496,-4.0496,-4.0496,-4.0496,-4.0496,-4.0496,-4.0496,-4.0496,-4.0496,-4.0496,-4.0496,-4.0496,-4.0496,-4.0496,-4.0496,-4.0496,-4.0496,-4.0496,-4.0496,-4.0496,-4.0496,-4.0496,-4.0496,-4.0573,-4.0804,-4.1477,-4.2335,-4.2816,-4.2835,-4.3393,-4.3585,-4.3547,-4.3104,-4.2624,-4.2431,-4.2404,-4.1931,-4.12,-4.0922,-4.0911,-4.0762,-4.0608,-4.0133,-3.9515,-3.9274,-3.9029,-3.8836,-3.8707,-3.8707,-3.8707,-3.8707,-3.8707,-3.8707,-3.8707,-3.8707,-3.8707,-3.8707,-3.8707,-3.8707,-3.8707,-3.8707,-3.8707,-3.8707,-3.8707,-3.8707,-3.8707,-3.8707,-3.8707,-3.8707,-3.8707,-3.8707,-3.8707,-3.8707,-3.8946,-3.9407,-4.0107,-4.0641,-4.0253,-3.938,-3.8381,-3.7148,-3.5642,-3.4525,-3.3303,-3.2551,-3.2462,-3.2446,-3.2107,-3.1887,-3.1749,-3.1393,-3.1207,-3.119,-3.119,-3.119,-3.119,-3.119,-3.119,-3.121,-3.131,-3.1507,-3.1733,-3.2022,-3.2382,-3.284,-3.3166,-3.3375,-3.3625,-3.3793,-3.3807,-3.3807,-3.3807,-4.0496,-4.0496,-4.0496,-4.0496,-4.0496,-4.0496,-4.0496,-4.0496,-4.0496,-4.0496,-4.0496,-4.0496,-4.0496,-4.0496,-4.0496,-4.0496,-4.0496,-4.0496,-4.0496,-4.0496,-4.0496,-4.0496,-4.0496,-4.0496,-4.0496,-4.0496,-4.0535,-4.1285,-4.2124,-4.2816,-4.3393,-4.4028,-4.422,-4.4297,-4.4451,-4.4162,-4.3662,-4.3528,-4.3355,-4.297,-4.2442,-4.189,-4.178,-4.1889,-4.1933,-4.1254,-4.0366,-3.9772,-3.9423,-3.9038,-3.8707,-3.8707,-3.8707,-3.8707,-3.8707,-3.8707,-3.8707,-3.8707,-3.8707,-3.8707,-3.8707,-3.8707,-3.8707,-3.8762,-3.8781,-3.8891,-3.8909,-3.9074,-3.9074,-3.9019,-3.9019,-3.9074,-3.9074,-3.8836,-3.8836,-3.8726,-3.9056,-3.9423,-4.012,-4.0818,-4.0125,-3.9253,-3.8058,-3.6844,-3.5854,-3.4744,-3.3918,-3.3258,-3.2767,-3.2763,-3.2628,-3.2527,-3.2459,-3.2036,-3.1512,-3.1241,-3.1258,-3.119,-3.119,-3.119,-3.119,-3.119,-3.121,-3.1269,-3.1488,-3.1733,-3.2092,-3.255,-3.2856,-3.3151,-3.355,-3.3807,-3.3807,-3.3807,-3.3807,-4.0496,-4.0496,-4.0496,-4.0496,-4.0496,-4.0496,-4.0496,-4.0496,-4.0496,-4.0496,-4.0496,-4.0496,-4.0496,-4.0496,-4.0496,-4.0496,-4.0496,-4.0496,-4.0496,-4.0496,-4.0496,-4.0496,-4.0496,-4.0496,-4.0496,-4.0496,-4.0496,-4.0785,-4.1893,-4.2701,-4.3181,-4.3489,-4.3508,-4.4278,-4.5855,-4.5182,-4.4008,-4.4124,-4.4259,-4.3942,-4.3873,-4.313,-4.1867,-4.1791,-4.1801,-4.0973,-4.0225,-3.9916,-3.9405,-3.8964,-3.8707,-3.8707,-3.8707,-3.8707,-3.8707,-3.8707,-3.8707,-3.8707,-3.8707,-3.8707,-3.8707,-3.8726,-3.8817,-3.9111,-3.9294,-3.9643,-3.9863,-4.0396,-4.0377,-4.0194,-4.0194,-4.0343,-4.0343,-3.9588,-3.9276,-3.8927,-3.8891,-3.9331,-3.9882,-3.9992,-3.9687,-3.8597,-3.7328,-3.6412,-3.5858,-3.4904,-3.4236,-3.36,-3.3326,-3.3237,-3.3119,-3.3068,-3.3034,-3.2713,-3.2226,-3.1532,-3.1379,-3.1258,-3.119,-3.119,-3.119,-3.119,-3.121,-3.123,-3.1271,-3.1449,-3.186,-3.2213,-3.2599,-3.2934,-3.3476,-3.3793,-3.3793,-3.3807,-3.3807]},{"header":{"parameterUnit":"m.s-1","parameterCategory":1,"la1":31.0,"la2":29.5877,"lo1":-88.7671,"lo2":-86.6584,"dy":0.0162,"dx":0.0185,"nx":115,"ny":88,"refTime":"2024-07-01T18:00:00:Z","depth":0,"parameterNumber":3,"parameterNumberName":"V-component_of_WINDS"},"data":[0.0,0.0,0.0,0.0,0.0,0.0,0.0,0.0,0.0,0.0,0.0,0.0,0.0,0.0,0.0,0.0,0.0,0.0,0.0,0.0,0.0,0.0,0.0,0.0,0.0,0.0,0.0,0.0,0.0,0.0,0.0,0.0,0.0,0.0,0.0,0.0,0.0,0.0,0.0,0.0,0.0,0.0,0.0,0.0,0.0,0.0,0.0,0.0,0.0,0.0,0.0,0.0,0.0,0.0,0.0,0.0,0.0,0.0,0.0,0.0,0.0,0.0,0.0,0.0,0.0,0.0,0.0,0.0,0.0,0.0,0.0,0.0,0.0,0.0,0.0,0.0,0.0,0.0,0.0,0.0,0.0,0.0,0.0,0.0,0.0,0.0,0.0,0.0,0.0,0.0,0.0,0.0,0.0,0.0,0.0,0.0,0.0,0.0,0.0,0.0,0.0,0.0,0.0,0.0,0.0,0.0,0.0,0.0,0.0,0.0,0.0,0.0,0.0,0.0,0.0,0.0,0.0,0.0,0.0,0.0,0.0,0.0,0.0,0.0,0.0,0.0,0.0,0.0,0.0,0.0,0.0,0.0,0.0,0.0,0.0,0.0,0.0,0.0,0.0,0.0,0.0,0.0,0.0,0.0,0.0,0.0,0.0,0.0,0.0,0.0,0.0,0.0,0.0,0.0,0.0,0.0,0.0,0.0,0.0,0.0,0.0,0.0,0.0,0.0,0.0,0.0,0.0,0.0,0.0,0.0,0.0,0.0,0.0,0.0,0.0,0.0,0.0,0.0,0.0,0.0,0.0,0.0,0.0,0.0,0.0,0.0,0.0,0.0,0.0,0.0,0.0,0.0,0.0,0.0,0.0,0.0,0.0,0.0,0.0,0.0,0.0,0.0,0.0,0.0,0.0,0.0,0.0,0.0,0.0,0.0,0.0,0.0,0.0,0.0,0.0,0.0,0.0,0.0,0.0,0.0,0.0,0.0,0.0,0.0,0.0,0.0,0.0,0.0,0.0,0.0,0.0,0.0,0.0,0.0,0.0,0.0,0.0,0.0,0.0,0.0,0.0,0.0,0.0,0.0,0.0,0.0,0.0,0.0,0.0,0.0,0.0,0.0,0.0,0.0,0.0,0.0,0.0,0.0,0.0,0.0,0.0,0.0,0.0,0.0,0.0,0.0,0.0,0.0,0.0,0.0,0.0,0.0,0.0,0.0,0.0,0.0,0.0,0.0,0.0,0.0,0.0,0.0,0.0,0.0,0.0,0.0,0.0,0.0,0.0,0.0,0.0,0.0,0.0,0.0,0.0,0.0,0.0,0.0,0.0,0.0,0.0,0.0,0.0,0.0,0.0,0.0,0.0,0.0,0.0,0.0,0.0,0.0,0.0,0.0,0.0,0.0,0.0,0.0,0.0,0.0,0.0,0.0,0.0,0.0,0.0,0.0,0.0,0.0,0.0,0.0,0.0,0.0,0.0,0.0,0.0,0.0,0.0,0.0,0.0,0.0,0.0,0.0,0.0,0.0,0.0,0.0,0.0,0.0,0.0,0.0,0.0,0.0,0.0,0.0,0.0,0.0,0.0,0.0,0.0,0.0,0.0,0.0,0.0,0.0,0.0,0.0,0.0,0.0,0.0,0.0,0.0,0.0,0.0,0.0,0.0,0.0,0.0,0.0,0.0,0.0,0.0,0.0,0.0,0.0,0.0,0.0,0.0,0.0,0.0,0.0,0.0,0.0,0.0,0.0,0.0,0.0,0.0,0.0,0.0,0.0,0.0,0.0,0.0,0.0,0.0,0.0,0.0,0.0,0.0,0.0,0.0,0.0,0.0,0.0,0.0,0.0,0.0,0.0,0.0,0.0,0.0,0.0,0.0,0.0,0.0,0.0,0.0,0.0,0.0,0.0,0.0,0.0,0.0,0.0,0.0,0.0,0.0,0.0,0.0,0.0,0.0,0.0,0.0,0.0,0.0,0.0,0.0,0.0,0.0,0.0,0.0,0.0,0.0,0.0,0.0,0.0,0.0,0.0,0.0,0.0,0.0,0.0,0.0,0.0,0.0,0.0,0.0,0.0,0.0,0.0,0.0,0.0,0.0,0.0,0.0,0.0,0.0,0.0,0.0,0.0,0.0,0.0,0.0,0.0,0.0,0.0,0.0,0.0,0.0,0.0,0.0,0.0,0.0,0.0,0.0,0.0,0.0,0.0,0.0,0.0,0.0,0.0,0.0,0.0,0.0,0.0,0.0,0.0,0.0,0.0,0.0,0.0,0.0,0.0,0.0,0.0,0.0,0.0,0.0,0.0,0.0,0.0,0.0,0.0,0.0,0.0,0.0,0.0,0.0,0.0,0.0,0.0,0.0,0.0,0.0,0.0,0.0,0.0,0.0,0.0,0.0,0.0,0.0,0.0,0.0,0.0,0.0,0.0,0.0,0.0,0.0,0.0,0.0,0.0,0.0,0.0,0.0,0.0,0.0,0.0,0.0,0.0,0.0,0.0,0.0,0.0,0.0,0.0,0.0,0.0,0.0,0.0,0.0,0.0,0.0,0.0,0.0,0.0,0.0,0.0,0.0,0.0,0.0,0.0,0.0,0.0,0.0,0.0,0.0,0.0,0.0,0.0,0.0,0.0,0.0,0.0,0.0,0.0,0.0,0.0,0.0,0.0,0.0,0.0,0.0,0.0,0.0,0.0,0.0,0.0,0.0,0.0,0.0,0.0,0.0,0.0,0.0,0.0,0.0,0.0,0.0,0.0,0.0,0.0,0.0,0.0,0.0,0.0,0.0,0.0,0.0,0.0,0.0,0.0,0.0,0.0,0.0,0.0,0.0,0.0,0.0,0.0,0.0,0.0,0.0,0.0,0.0,0.0,0.0,0.0,0.0,0.0,0.0,0.0,0.0,0.0,0.0,0.0,0.0,0.0,0.0,0.0,0.0,0.0,0.0,0.0,0.0,0.0,0.0,0.0,0.0,0.0,0.0,0.0,0.0,0.0,0.0,0.0,0.0,0.0,0.0,0.0,0.0,0.0,0.0,0.0,0.0,0.0,0.0,0.0,0.0,0.0,0.0,0.0,0.0,0.0,0.0,0.0,0.0,0.0,0.0,0.0,0.0,0.0,0.0,0.0,0.0,0.0,0.0,0.0,0.0,0.0,0.0,0.0,0.0,0.0,0.0,0.0,0.0,0.0,0.0,0.0,0.0,0.0,0.0,0.0,0.0,0.0,0.0,0.0,0.0,0.0,0.0,0.0,0.0,0.0,0.0,0.0,0.0,0.0,0.0,0.0,0.0,0.0,0.0,0.0,0.0,0.0,0.0,0.0,0.0,0.0,0.0,0.0,0.0,0.0,0.0,0.0,0.0,0.0,0.0,0.0,0.0,0.0,0.0,0.0,0.0,0.0,0.0,0.0,0.0,0.0,0.0,0.0,0.0,0.0,0.0,0.0,0.0,0.0,0.0,0.0,0.0,0.0,0.0,0.0,0.0,0.0,0.0,0.0,0.0,0.0,0.0,0.0,0.0,0.0,0.0,0.0,0.0,0.0,0.0,0.0,0.0,0.0,0.0,0.0,0.0,0.0,0.0,0.0,0.0,0.0,0.0,0.0,0.0,0.0,0.0,0.0,0.0,0.0,0.0,0.0,0.0,0.0,0.0,0.0,0.0,0.0,0.0,0.0,0.0,0.0,0.0,0.0,0.0,0.0,0.0,0.0,0.0,0.0,0.0,0.0,0.0,0.0,0.0,0.0,0.0,0.0,0.0,0.0,0.0,0.0,0.0,0.0,0.0,0.0,0.0,0.0,0.0,0.0,0.0,0.0,0.0,0.0,0.0,0.0,0.0,0.0,0.0,0.0,0.0,0.0,0.0,0.0,0.0,0.0,0.0,0.0,0.0,0.0,0.0,0.0,0.0,0.0,0.0,0.0,0.0,0.0,0.0,0.0,0.0,0.0,0.0,0.0,0.0,0.0,0.0,0.0,0.0,0.0,0.0,0.0,0.0,0.0,0.0,0.0,0.0,0.0,0.0,0.0,0.0,0.0,0.0,0.0,0.0,0.0,0.0,0.0,0.0,0.0,0.0,0.0,0.0,0.0,0.0,0.0,0.0,0.0,0.0,0.0,0.0,0.0,0.0,0.0,0.0,0.0,0.0,0.0,0.0,0.0,0.0,0.0,0.0,0.0,0.0,0.0,0.0,0.0,0.0,0.0,0.0,0.0,0.0,0.0,0.0,0.0,0.0,0.0,0.0,0.0,0.0,0.0,0.0,0.0,0.0,0.0,0.6101,0.0,0.0,0.0,0.0,0.0,0.0,0.0,0.0,0.0,0.0,0.0,0.0,0.0,0.0,0.0,0.0,0.0,0.0,0.0,0.0,0.0,0.0,0.0,0.0,0.0,0.0,0.0,0.0,0.0,0.0,0.0,0.0,0.0,0.0,0.0,0.0,0.0,0.0,0.0,0.0,0.0,0.0,0.0,0.0,0.0,0.0,0.0,0.0,0.0,0.0,0.0,0.0,0.0,0.0,0.0,0.0,0.0,0.0,0.0,0.0,0.0,0.0,0.0,0.0,0.0,0.0,0.0,0.0,0.0,0.0,0.0,0.0,0.0,0.0,0.0,0.0,0.0,0.0,0.0,0.0,0.0,0.0,0.0,0.0,0.0,0.0,0.0,0.0,0.0,0.0,0.0,0.0,0.0,0.0,0.0,0.0,0.0,0.0,0.0,0.0,0.0,0.0,0.0,0.0,0.0,0.0,0.0,0.0,0.0,0.0,1.0343,0.8665,0.8709,0.7825,0.5928,0.0,0.0,0.0,0.0,0.0,0.0,0.0,0.0,0.0,0.0,0.0,0.0,0.0,0.0,0.0,0.0,0.0,0.0,0.0,0.0,0.0,0.0,0.0,0.0,0.0,0.0,0.0,0.0,0.0,0.0,0.0,0.0,0.0,0.0,0.0,0.0,0.0,0.0,0.0,0.0,0.0,0.0,0.0,0.0,0.0,0.0,0.0,0.0,0.0,0.0,0.0,0.0,0.0,0.0,0.0,0.0,0.0,0.0,0.0,0.0,0.0,0.0,0.0,0.0,0.0,0.0,0.0,0.0,0.0,0.0,0.0,0.0,0.0,0.0,0.0,0.0,0.0,0.0,0.0,0.0,0.0,0.0,0.0,0.0,0.0,0.0,0.0,0.0,0.0,0.0,0.0,0.0,0.0,0.0,0.0,0.0,0.0,0.0,0.0,0.0,0.0,0.0,0.0,0.0,0.0,0.0,0.0,0.0,0.0,0.0,0.0,0.0,0.8152,0.7489,0.6002,0.0,0.0,0.0,0.0,0.0,0.0,0.0,0.0,0.0,0.0,0.0,0.0,0.0,0.0,0.0,0.0,0.0,0.0,0.0,0.0,0.0,0.0,0.0,0.0,0.0,0.0,0.0,0.0,0.0,0.0,0.0,0.0,0.0,0.0,0.0,0.0,0.0,0.0,0.0,0.0,0.0,0.0,0.0,0.0,0.0,0.0,0.0,0.0,0.0,0.0,0.0,0.0,0.0,0.0,0.0,0.0,0.0,0.0,0.0,0.0,0.0,0.0,0.0,0.0,0.0,0.0,0.0,0.0,0.0,0.0,0.0,0.0,0.0,0.0,0.0,0.0,0.0,0.0,0.0,0.0,0.0,0.0,0.0,0.0,0.0,0.0,0.0,0.0,0.0,0.0,0.0,0.0,0.0,0.0,0.0,0.0,0.0,0.0,0.0,0.0,0.0,0.0,0.0,0.0,0.0,0.0,0.0,0.0,0.0,0.0,0.9347,0.8225,0.8586,0.0,0.6374,0.0,0.0,0.0,0.0,0.0,0.0,0.0,0.0,0.0,0.0,0.0,0.0,0.0,0.0,0.0,0.0,0.0,0.0,0.0,0.0,0.0,0.0,0.0,0.0,0.0,0.0,0.0,0.0,0.0,0.0,0.0,0.0,0.0,0.0,0.0,0.0,0.0,0.0,0.0,0.0,0.0,0.0,0.0,0.0,0.0,0.0,0.0,0.0,0.0,0.0,0.0,0.0,0.0,0.0,0.0,0.0,0.0,0.0,0.0,0.0,0.0,0.0,0.0,0.0,0.0,0.0,0.0,0.0,0.0,0.0,0.0,0.0,0.0,0.0,0.0,0.0,0.0,0.0,0.0,0.0,0.0,0.0,0.0,0.0,0.0,0.0,0.0,0.0,0.0,0.0,0.0,0.0,0.0,0.0,0.0,0.0,0.0,0.0,0.0,0.0,0.0,0.0,0.0,0.0,0.0,0.0,0.0,0.0,0.0,0.0,0.7916,0.7554,0.7439,0.7027,0.0,0.0,0.0,0.0,0.0,0.0,0.0,0.0,0.0,0.0,0.0,0.0,0.0,0.0,0.0,0.0,0.0,0.0,0.0,0.0,0.0,0.0,0.0,0.0,0.0,0.0,0.0,0.0,0.0,0.0,0.0,0.0,0.0,0.0,0.0,0.0,0.0,0.0,0.0,0.0,0.0,0.0,0.0,0.0,0.0,0.0,0.0,0.0,0.0,0.0,0.0,0.0,0.0,0.0,0.0,0.0,0.0,0.0,0.0,0.0,0.0,0.0,0.0,0.0,0.0,0.0,0.0,0.0,0.0,0.0,0.0,0.0,0.0,0.0,0.0,0.0,0.0,0.0,0.0,0.0,0.0,0.0,0.0,0.0,0.0,0.0,0.0,0.0,0.0,0.0,0.0,0.0,0.0,0.0,0.0,0.0,0.0,0.0,0.0,0.0,0.0,0.0,0.0,0.0,0.0,0.0,0.0,0.0,0.0,0.0,0.6849,0.6974,0.717,0.6749,0.643,0.6306,0.0,0.0,0.0,0.0,0.0,0.0,0.0,0.0,0.0,0.0,0.0,0.0,0.0,0.0,0.0,0.0,0.0,0.0,0.0,0.0,0.0,0.0,0.0,0.0,0.0,0.0,0.0,0.0,0.0,0.0,0.0,0.0,0.0,0.0,0.0,0.0,0.0,0.0,0.0,0.0,0.0,0.0,0.0,0.0,0.0,0.0,0.0,0.0,0.0,0.0,0.0,0.0,0.0,0.0,0.0,0.0,0.0,0.0,0.0,0.0,0.0,0.0,0.0,0.0,0.0,0.0,0.0,0.0,0.0,0.0,0.0,0.0,0.0,0.0,0.0,0.0,0.0,0.0,0.0,0.0,0.0,0.0,0.0,0.0,0.0,0.0,0.0,0.0,0.0,0.0,0.0,0.0,0.0,0.0,0.0,0.0,0.0,0.0,0.0,0.0,0.0,0.0,0.0,0.0,0.0,0.0,0.0,0.0,0.7082,0.6993,0.7068,0.7398,0.7187,0.6795,0.0,0.0,0.0,0.0,0.0,0.0,0.0,0.0,0.0,0.0,0.0,0.0,0.0,0.0,0.0,0.0,0.0,0.0,0.0,0.0,0.0,0.0,0.0,0.0,0.0,0.0,0.0,0.0,0.0,0.0,0.0,0.0,0.0,0.0,0.0,0.0,0.0,0.0,0.0,0.0,0.0,0.0,0.0,0.0,0.0,0.0,0.0,0.0,0.0,0.0,0.0,0.0,0.0,0.0,0.0,0.0,0.0,0.0,0.0,0.0,0.0,0.0,0.0,0.0,0.0,0.0,0.0,0.0,0.0,0.0,0.0,0.0,0.0,0.0,0.0,0.0,0.0,0.0,0.0,0.0,0.0,0.0,0.0,0.0,0.0,0.0,0.0,0.0,0.0,0.0,0.0,0.0,0.0,0.0,0.0,0.0,0.0,0.0,0.0,0.0,0.0,0.0,0.0,0.0,0.0,0.0,0.0,0.0,0.0,0.6887,0.7088,0.7353,0.7621,0.7048,0.6614,0.0,0.0,0.0,0.0,0.0,0.0,0.0,0.0,0.0,0.0,0.0,0.0,0.0,0.0,0.0,0.0,0.0,0.0,0.0,0.0,0.0,0.0,0.0,0.0,0.0,0.0,0.0,0.0,0.0,0.0,0.0,0.0,0.0,0.0,0.0,0.0,0.0,0.0,0.0,0.0,0.0,0.0,0.0,0.0,0.0,0.0,0.0,0.0,0.0,0.0,0.0,0.0,0.0,0.0,0.0,0.0,0.0,0.0,0.0,0.0,0.0,0.0,0.0,0.0,0.0,0.0,0.0,0.0,0.0,0.0,0.0,0.0,0.0,0.0,0.0,0.0,0.0,0.0,0.0,0.0,0.0,0.0,0.0,0.0,0.0,0.0,0.0,0.0,0.0,0.0,0.0,0.0,0.0,0.0,0.0,0.0,0.0,0.0,0.0,0.0,0.0,0.0,0.0,0.0,0.0,0.0,0.0,0.0,0.0,0.6837,0.0,0.7492,0.7567,0.6963,0.6505,0.0,0.0,0.0,0.0,0.0,0.0,0.0,0.0,0.0,0.0,0.0,0.0,0.0,0.0,0.0,0.0,0.0,0.0,0.0,0.0,0.0,0.0,0.0,0.0,0.0,0.0,0.0,0.0,0.0,0.0,0.0,0.0,0.0,0.0,0.0,0.0,0.0,0.0,0.0,0.0,0.0,0.0,0.0,0.0,0.0,0.0,0.0,0.0,0.0,0.0,0.0,0.0,0.0,0.0,0.0,0.0,0.0,0.0,0.0,0.0,0.0,0.0,0.0,0.0,0.0,0.0,0.0,0.0,0.0,0.0,0.0,0.0,0.0,0.0,0.0,0.0,0.0,0.0,0.0,0.0,0.0,0.0,0.0,0.0,0.0,0.0,0.0,0.0,0.0,0.0,0.0,0.0,0.0,0.0,0.0,0.0,0.0,0.0,0.0,0.0,0.0,0.0,0.0,0.0,0.0,0.0,0.0,0.0,0.6559,0.7071,0.7434,0.7468,0.7122,0.696,0.6532,0.0,0.0,0.0,0.0,0.0,0.0,0.0,0.0,0.0,0.0,0.0,0.0,0.0,0.0,0.0,0.0,0.0,0.0,0.0,0.0,0.0,0.0,0.0,0.0,0.0,0.0,0.0,0.0,0.0,0.0,0.0,0.0,0.0,0.0,0.0,0.0,0.0,0.0,0.0,0.0,0.0,0.0,0.0,0.0,0.0,0.0,0.0,0.0,0.0,0.0,0.0,0.0,0.0,0.0,0.0,0.0,0.0,0.0,0.0,0.0,0.0,0.0,0.0,0.0,0.0,0.0,0.0,0.0,0.0,0.0,0.0,0.0,0.0,0.0,0.0,0.0,0.0,0.0,0.0,0.0,0.0,0.0,0.0,0.0,0.0,0.0,0.0,0.0,0.0,0.0,0.0,0.0,0.0,0.0,0.0,0.0,0.0,0.0,0.0,0.0,0.0,0.0,0.0,0.0,0.0,0.0,0.0,0.0,0.0,0.7098,0.7441,0.76,0.7587,0.7061,0.661,0.0,0.0,0.0,0.0,0.0,0.0,0.0,0.0,0.0,0.0,0.0,0.0,0.0,0.0,0.0,0.0,0.0,0.0,0.0,0.0,0.0,0.0,0.0,0.0,0.0,0.0,0.0,0.0,0.0,0.0,0.0,0.0,0.0,0.0,0.0,0.0,0.0,0.0,0.0,0.0,0.0,0.0,0.0,0.0,0.0,0.0,0.0,0.0,0.0,0.0,0.0,0.0,0.0,0.0,0.0,0.0,0.0,0.0,0.0,0.0,0.0,0.0,0.0,0.0,0.0,0.0,0.0,0.0,0.0,0.0,0.0,0.0,0.0,0.0,0.0,0.0,0.0,0.0,0.0,0.0,0.0,0.0,0.0,0.0,0.0,0.0,0.0,0.0,0.0,0.0,0.0,0.0,0.0,0.0,0.0,0.0,0.0,0.0,0.0,0.0,0.0,0.0,0.0,0.0,0.0,0.0,0.0,0.0,0.0,0.7351,0.7634,0.7753,0.7733,0.7125,0.6739,0.6471,0.0,0.0,0.0,0.0,0.0,0.0,0.0,0.0,0.0,0.0,0.0,0.0,0.0,0.0,0.0,0.0,0.0,0.0,0.0,0.0,0.0,0.0,0.0,0.0,0.0,0.0,0.0,0.0,0.0,0.0,0.0,0.0,0.0,0.0,0.0,0.0,0.0,0.0,0.0,0.0,0.0,0.0,0.0,0.0,0.0,0.0,0.0,0.0,0.0,0.0,0.0,0.0,0.0,0.0,0.0,0.0,0.0,0.0,0.0,0.0,0.0,0.0,0.0,0.0,0.0,0.0,0.0,0.0,0.0,0.0,0.0,0.0,0.0,0.0,0.0,0.0,0.0,0.0,0.0,0.0,0.0,0.0,0.0,0.0,0.0,0.0,0.0,0.0,0.0,0.0,0.0,0.0,0.0,0.0,0.0,0.0,0.0,0.0,0.0,0.0,0.0,0.0,0.0,0.0,0.0,0.0,0.0,0.0,0.7807,0.7911,0.7857,0.7638,0.7274,0.6946,0.0,0.0,0.0,0.0,0.0,0.0,0.0,0.0,0.0,0.0,0.0,0.0,0.0,0.0,0.0,0.0,0.0,0.0,0.0,0.0,0.0,0.0,0.0,0.0,0.0,0.0,0.0,0.0,0.0,0.0,0.0,0.0,0.0,0.0,0.0,0.0,0.0,0.0,0.0,0.0,0.0,0.0,0.0,0.0,0.0,0.0,0.0,0.0,0.0,0.0,0.0,0.0,0.0,0.0,0.0,0.0,0.0,0.0,0.0,0.0,0.0,0.0,0.0,0.0,0.0,0.0,0.0,0.0,0.0,0.0,0.0,0.0,0.0,0.0,0.0,0.0,0.0,0.0,0.0,0.0,0.0,0.0,0.0,0.0,0.0,0.0,0.0,0.0,0.0,0.0,0.0,0.0,0.0,0.0,0.0,0.0,0.0,0.0,0.0,0.0,0.0,0.0,0.0,0.0,0.0,0.0,0.0,0.0,0.0,0.7814,0.7911,0.7951,0.787,0.7526,0.7153,0.0,0.0,0.0,0.0,0.0,0.0,0.0,0.0,0.0,0.0,0.0,0.0,0.0,0.0,0.0,0.0,0.0,0.0,0.0,0.0,0.0,0.0,0.0,0.0,0.0,0.0,0.0,0.0,0.0,0.0,0.0,0.0,0.0,0.0,0.0,0.0,0.0,0.0,0.0,0.0,0.0,0.0,0.0,0.0,0.0,0.0,0.0,0.0,0.0,0.0,0.0,0.0,0.0,0.0,0.0,0.0,0.0,0.0,0.0,0.0,0.0,0.0,0.0,0.0,0.0,0.0,0.0,0.0,0.0,0.0,0.0,0.0,0.0,0.0,0.0,0.0,0.0,0.0,0.0,0.0,0.0,0.0,0.0,0.0,0.0,0.0,0.0,0.0,0.0,0.0,0.0,0.0,0.0,0.0,0.0,0.0,0.0,0.0,0.0,0.0,0.0,0.0,0.0,0.0,0.0,0.0,0.0,0.0,0.7845,0.7857,0.7944,0.7988,0.7988,0.7726,0.7158,0.0,0.0,0.0,0.0,0.0,0.0,0.0,0.0,0.0,0.0,0.0,0.0,0.0,0.0,0.0,0.0,0.0,0.0,0.0,0.0,0.0,0.0,0.0,0.0,0.0,0.0,0.0,0.0,0.0,0.0,0.0,0.0,0.0,0.0,0.0,0.0,0.0,0.0,0.0,0.0,0.0,0.0,0.0,0.0,0.0,0.0,0.0,0.0,0.0,0.0,0.0,0.0,0.0,0.0,0.0,0.0,0.0,0.0,0.0,0.0,0.0,0.0,0.0,0.0,0.0,0.0,0.0,0.0,0.0,0.0,0.0,0.0,0.0,0.0,0.0,0.0,0.0,0.0,0.0,0.0,0.0,0.0,0.0,0.0,0.0,0.0,0.0,0.0,0.0,0.0,0.0,0.0,0.0,0.0,0.0,0.0,0.0,0.0,0.0,0.0,0.0,0.0,0.0,0.0,0.0,0.0,0.0,0.0,0.785,0.7985,0.7988,0.7988,0.7985,0.7843,0.7086,0.0,0.0,0.0,0.0,0.0,0.0,0.0,0.0,0.0,0.0,0.0,0.0,0.0,0.0,0.0,0.0,0.0,0.0,0.0,0.0,0.0,0.0,0.0,0.0,0.0,0.0,0.0,0.0,0.0,0.0,0.0,0.0,0.0,0.0,0.0,0.0,0.0,0.0,0.0,0.0,0.0,0.0,0.0,0.0,0.0,0.0,0.0,0.0,0.0,0.0,0.0,0.0,0.0,0.0,0.0,0.0,0.0,0.0,0.0,0.0,0.0,0.0,0.0,0.0,0.0,0.0,0.0,0.0,0.0,0.0,0.0,0.0,0.0,0.0,0.0,0.0,0.0,0.0,0.0,0.0,0.0,0.0,0.0,0.0,0.0,0.0,0.0,0.0,0.0,0.0,0.0,0.0,0.0,0.0,0.0,0.0,0.0,0.0,0.0,0.0,0.0,0.0,0.0,0.0,0.0,0.0,0.0,0.0,0.7958,0.7988,0.7988,0.7988,0.7988,0.7892,0.7086,0.0,0.0,0.0,0.0,0.0,0.0,0.0,0.0,0.0,0.0,0.0,0.0,0.0,0.0,0.0,0.0,0.0,0.0,0.0,0.0,0.0,0.0,0.0,0.0,0.0,0.0,0.0,0.0,0.0,0.0,0.0,0.0,0.0,0.0,0.0,0.0,0.0,0.0,0.0,0.0,0.0,0.0,0.0,0.0,0.0,0.0,0.0,0.0,0.7553,0.0,0.0,0.0,0.0,0.0,0.0,0.0,0.0,0.0,0.0,0.0,0.0,0.0,0.0,0.0,0.0,0.0,0.0,0.0,0.0,0.0,0.0,0.0,0.0,0.0,0.0,0.0,0.0,0.0,0.0,0.0,0.0,0.0,0.0,0.0,0.0,0.0,0.0,0.0,0.0,0.0,0.0,0.0,0.0,0.0,0.0,0.0,0.0,0.0,0.0,0.0,0.0,0.0,0.0,0.0,0.0,0.0,0.0,0.0,0.7988,0.7988,0.7988,0.7988,0.7985,0.7302,0.6303,0.0,0.0,0.0,0.0,0.0,0.0,0.0,0.0,0.0,0.0,0.0,0.0,0.0,0.0,0.0,0.0,0.0,0.0,0.0,0.0,0.0,0.0,0.0,0.0,0.0,0.0,0.0,0.0,0.0,0.0,0.0,0.0,0.0,0.0,0.0,0.0,0.0,0.0,0.0,0.0,0.0,0.0,0.0,0.0,0.0,0.0,0.0,0.0,0.0,0.0,0.0,0.0,0.0,0.0,0.0,0.0,0.0,0.0,0.0,0.0,0.0,0.0,0.0,0.0,0.0,0.0,0.0,0.0,0.0,0.0,0.0,0.0,0.0,0.0,0.0,0.0,0.0,0.0,0.0,0.0,0.0,0.0,0.0,0.0,0.0,0.0,0.0,0.0,0.0,0.0,0.0,0.0,0.0,0.0,0.0,0.0,0.0,0.0,0.0,0.0,0.0,0.0,0.0,0.0,0.0,0.0,0.0,0.783,0.7968,0.7988,0.7988,0.7988,0.7988,0.651,0.518,0.403,0.0,0.0,0.0,0.0,0.0,0.0,0.0,0.0,0.0,0.0,0.0,0.0,0.0,0.0,0.0,0.0,0.0,0.0,0.0,0.0,0.0,0.0,0.0,0.0,0.0,0.0,0.0,0.0,0.0,0.0,0.0,0.0,0.0,0.0,0.0,0.0,0.0,0.0,0.7142,0.756,0.0,0.0,0.0,0.0,0.0,0.0,0.0,0.0,0.7957,0.0,0.0,0.0,0.0,0.0,0.0,0.0,0.0,0.0,0.0,0.0,0.0,0.0,0.0,0.0,0.0,0.0,0.0,0.0,0.0,0.0,0.0,0.0,0.0,0.0,0.0,0.0,0.0,0.0,0.0,0.0,0.0,0.0,0.0,0.0,0.0,0.0,0.0,0.0,0.0,0.0,0.0,0.0,0.0,0.0,0.0,0.0,0.0,0.0,0.0,0.0,0.0,0.0,0.0,0.0,0.0,0.7767,0.7824,0.7909,0.7985,0.7988,0.7988,0.7935,0.5623,0.4231,0.3989,0.0,0.0,0.0,0.0,0.0,0.0,0.0,0.0,0.0,0.0,0.0,0.0,0.0,0.0,0.0,0.0,0.0,0.0,0.0,0.0,0.0,0.0,0.0,0.0,0.0,0.0,0.0,0.0,0.0,0.0,0.0,0.0,0.0,0.0,0.0,0.0,0.0,0.0,0.0,0.7689,0.7865,0.0,0.0,0.0,0.0,0.0,0.0,0.0,0.0,0.7975,0.0,0.0,0.0,0.0,0.0,0.0,0.0,0.0,0.0,0.0,0.0,0.0,0.0,0.0,0.0,0.0,0.0,0.0,0.0,0.0,0.0,0.0,0.0,0.0,0.0,0.0,0.0,0.0,0.0,0.0,0.0,0.0,0.0,0.0,0.0,0.0,0.0,0.0,0.0,0.0,0.0,0.0,0.0,0.0,0.0,0.0,0.0,0.0,0.0,0.0,0.0,0.0,0.0,0.0,0.0,0.7692,0.7803,0.7914,0.7985,0.7988,0.7988,0.7932,0.542,0.4001,0.0,0.0,0.0,0.0,0.0,0.0,0.0,0.0,0.0,0.0,0.0,0.0,0.0,0.0,0.0,0.0,0.0,0.0,0.0,0.0,0.0,0.0,0.0,0.0,0.0,0.0,0.0,0.0,0.0,0.0,0.0,0.0,0.0,0.0,0.0,0.0,0.0,0.0,0.0,0.0,0.812,0.7907,0.7978,0.0,0.0,0.0,0.0,0.0,0.0,0.7988,0.7988,0.0,0.0,0.0,0.0,0.0,0.0,0.0,0.0,0.0,0.0,0.0,0.0,0.0,0.0,0.0,0.0,0.0,0.0,0.0,0.0,0.0,0.0,0.0,0.0,0.0,0.0,0.0,0.0,0.0,0.0,0.0,0.0,0.0,0.0,0.0,0.0,0.0,0.0,0.0,0.0,0.0,0.0,0.0,0.0,0.0,0.0,0.0,0.0,0.0,0.0,0.0,0.0,0.0,0.0,0.0,0.76,0.7862,0.7958,0.7988,0.7988,0.7975,0.7888,0.5377,0.3979,0.0,0.0,0.0,0.0,0.0,0.0,0.0,0.0,0.0,0.0,0.0,0.0,0.0,0.0,0.0,0.0,0.0,0.0,0.0,0.0,0.0,0.0,0.0,0.0,0.0,0.0,0.0,0.0,0.0,0.0,0.0,0.0,0.0,0.0,0.0,0.0,0.0,0.0,0.0,0.0,0.0,0.8333,0.8041,0.8147,0.0,0.0,0.0,0.0,0.7988,0.7988,0.0,0.0,0.0,0.0,0.0,0.0,0.0,0.0,0.0,0.0,0.0,0.0,0.0,0.0,0.0,0.0,0.0,0.0,0.0,0.0,0.0,0.0,0.0,0.0,0.0,0.0,0.0,0.0,0.0,0.0,0.0,0.0,0.0,0.0,0.0,0.0,0.0,0.0,0.0,0.0,0.0,0.0,0.0,0.0,0.0,0.0,0.0,0.0,0.0,0.0,0.0,0.0,0.0,0.0,0.0,0.0,0.7587,0.7756,0.7853,0.7982,0.7988,0.7924,0.7793,0.5363,0.3915,0.0,0.0,0.0,0.0,0.0,0.0,0.0,0.0,0.0,0.0,0.0,0.0,0.0,0.0,0.0,0.0,0.0,0.0,0.0,0.0,0.0,0.0,0.0,0.0,0.0,0.0,0.0,0.0,0.0,0.0,0.0,0.0,0.0,0.0,0.0,0.0,0.0,0.0,0.0,0.0,0.0,0.9312,0.8187,0.8005,0.8012,0.0,0.0,0.7988,0.7988,0.7988,0.0,0.0,0.0,0.0,0.0,0.0,0.0,0.0,0.0,0.0,0.0,0.0,0.0,0.0,0.0,0.0,0.0,0.0,0.0,0.0,0.0,0.0,0.0,0.0,0.0,0.0,0.0,0.0,0.0,0.0,0.0,0.0,0.0,0.0,0.0,0.0,0.0,0.0,0.0,0.0,0.0,0.0,0.0,0.0,0.0,0.0,0.0,0.0,0.0,0.0,0.0,0.0,0.0,0.0,0.0,0.7186,0.759,0.7824,0.7924,0.7982,0.7904,0.7879,0.7814,0.5251,0.3873,0.0,0.0,0.0,0.0,0.0,0.0,0.0,0.0,0.0,0.0,0.0,0.0,0.0,0.0,0.0,0.0,0.0,0.0,0.0,0.0,0.0,0.0,0.0,0.0,0.0,0.0,0.0,0.0,0.0,0.0,0.0,0.0,0.0,0.0,0.0,0.0,0.0,0.0,0.0,0.0,0.0,0.0,0.8098,0.8062,0.0,0.0,0.0,0.7988,0.7988,0.0,0.0,0.0,0.0,0.0,0.0,0.0,0.0,0.0,0.0,0.0,0.0,0.0,0.0,0.0,0.0,0.0,0.0,0.0,0.0,0.0,0.0,0.0,0.0,0.0,0.0,0.0,0.0,0.0,0.0,0.0,0.0,0.0,0.0,0.0,0.0,0.0,0.0,0.0,0.0,0.0,0.0,0.0,0.0,0.0,0.0,0.0,0.0,0.0,0.0,0.0,0.0,0.0,0.0,0.0,0.0,0.0,0.7597,0.7889,0.7971,0.7984,0.7868,0.7773,0.7651,0.5158,0.0,0.0,0.0,0.0,0.0,0.0,0.0,0.0,0.0,0.0,0.0,0.0,0.0,0.0,0.0,0.0,0.0,0.0,0.0,0.0,0.0,0.0,0.0,0.0,0.0,0.0,0.0,0.5552,0.0,0.0,0.0,0.0,0.0,0.0,0.0,0.0,0.0,0.0,0.0,0.0,0.0,0.0,0.8571,0.8055,0.8136,0.817,0.0,0.0,0.7988,0.7988,0.7988,0.7988,0.0,0.0,0.0,0.0,0.0,0.0,0.0,0.0,0.0,0.0,0.0,0.0,0.0,0.0,0.0,0.0,0.0,0.0,0.0,0.0,0.0,0.0,0.0,0.0,0.0,0.0,0.0,0.0,0.0,0.0,0.0,0.0,0.0,0.0,0.0,0.0,0.0,0.0,0.0,0.0,0.0,0.0,0.0,0.0,0.0,0.0,0.0,0.0,0.0,0.0,0.0,0.0,0.0,0.0,0.7243,0.7594,0.7889,0.7917,0.7834,0.7818,0.7682,0.7411,0.5064,0.3755,0.0,0.0,0.0,0.0,0.0,0.0,0.0,0.0,0.0,0.0,0.0,0.0,0.0,0.0,0.0,0.0,0.0,0.0,0.0,0.0,0.0,0.0,0.0,0.0,0.0,0.0,0.0,0.0,0.0,0.0,0.0,0.0,0.0,0.0,0.0,0.0,0.0,0.0,0.0,0.0,0.0,0.9426,0.8191,0.7998,0.8002,0.0,0.7988,0.7988,0.7988,0.7988,0.7988,0.7988,0.0,0.0,0.0,0.0,0.0,0.0,0.0,0.0,0.0,0.0,0.0,0.0,0.0,0.0,0.0,0.0,0.0,0.0,0.0,0.0,0.0,0.0,0.0,0.0,0.0,0.0,0.0,0.0,0.0,0.0,0.0,0.0,0.0,0.0,0.0,0.0,0.0,0.0,0.0,0.0,0.0,0.0,0.0,0.0,0.0,0.0,0.0,0.0,0.0,0.0,0.0,0.0,0.0,0.7068,0.727,0.7614,0.774,0.7682,0.7587,0.7485,0.7373,0.5687,0.4416,0.0,0.0,0.0,0.0,0.0,0.0,0.0,0.0,0.0,0.0,0.0,0.0,0.0,0.0,0.0,0.0,0.0,0.0,0.0,0.0,0.0,0.0,0.0,0.0,0.0,0.0,0.0,0.0,0.6139,0.624,0.6424,0.0,0.0,0.0,0.0,0.0,0.0,0.0,0.0,0.0,0.0,0.9509,0.8184,0.7988,0.0,0.0,0.7988,0.7988,0.7988,0.7988,0.7988,0.7988,0.7988,0.0,0.0,0.0,0.0,0.0,0.0,0.0,0.0,0.0,0.0,0.0,0.0,0.0,0.0,0.0,0.0,0.0,0.0,0.0,0.0,0.0,0.0,0.0,0.0,0.0,0.0,0.0,0.0,0.0,0.0,0.0,0.0,0.0,0.0,0.0,0.0,0.0,0.0,0.0,0.0,0.0,0.0,0.0,0.0,0.0,0.0,0.0,0.0,0.0,0.0,0.0,0.0,0.698,0.7162,0.7468,0.7573,0.7529,0.7424,0.7395,0.7302,0.6076,0.4947,0.0,0.0,0.0,0.0,0.0,0.0,0.0,0.0,0.0,0.0,0.0,0.0,0.0,0.0,0.0,0.0,0.0,0.0,0.0,0.0,0.0,0.0,0.0,0.0,0.0,0.0,0.0,0.0,0.6361,0.6463,0.6675,0.0,0.0,0.0,0.0,0.0,0.0,0.0,0.0,0.0,0.0,1.0096,0.8775,0.8581,0.8485,0.8038,0.7988,0.7988,0.7988,0.8075,0.8042,0.7998,0.0,0.0,0.0,0.0,0.0,0.0,0.0,0.0,0.0,0.0,0.0,0.0,0.0,0.0,0.0,0.0,0.0,0.0,0.0,0.0,0.0,0.0,0.0,0.0,0.0,0.0,0.0,0.6508,0.0,0.0,0.6303,0.0,0.0,0.0,0.0,0.0,0.0,0.0,0.0,0.0,0.0,0.0,0.0,0.0,0.0,0.0,0.0,0.0,0.0,0.0,0.0,0.0,0.0,0.7068,0.736,0.7506,0.7519,0.7429,0.7373,0.7295,0.7109,0.5983,0.5293,0.5064,0.0,0.0,0.0,0.0,0.0,0.0,0.0,0.0,0.0,0.0,0.0,0.0,0.0,0.0,0.0,0.0,0.0,0.0,0.0,0.0,0.0,0.0,0.0,0.0,0.0,0.0,0.6528,0.6508,0.6532,0.0,0.0,0.0,0.0,0.0,0.0,0.0,0.0,0.0,1.1866,1.1853,1.1409,1.0096,0.9948,0.946,0.8187,0.7992,0.7992,0.7995,0.8167,0.8214,0.0,0.0,0.0,0.0,0.0,0.0,0.0,0.0,0.0,0.0,0.0,0.0,0.0,0.0,0.0,0.0,0.0,0.0,0.0,0.0,0.0,0.0,0.0,0.0,0.0,0.0,0.0,0.6854,0.663,0.0,0.0,0.0,0.0,0.0,0.0,0.0,0.0,0.0,0.0,0.0,0.7038,0.7284,0.0,0.0,0.0,0.0,0.0,0.0,0.0,0.0,0.0,0.0,0.0,0.0,0.6875,0.7075,0.7176,0.7272,0.7221,0.7217,0.7146,0.7098,0.6741,0.6082,0.5119,0.0,0.0,0.0,0.0,0.0,0.0,0.0,0.0,0.0,0.0,0.0,0.0,0.0,0.0,0.0,0.0,0.0,0.0,0.0,0.0,0.0,0.0,0.0,0.0,0.0,0.6831,0.0,0.0,0.0,0.0,0.0,0.0,0.0,0.0,0.0,0.0,0.0,1.4124,1.3338,1.3253,1.2425,1.0288,1.0002,0.9509,0.0,0.0,0.0,0.0,0.0,0.0,0.0,0.0,0.0,0.0,0.0,0.0,0.0,0.0,0.8333,0.8035,0.7864,0.7794,0.775,0.0,0.0,0.0,0.0,0.0,0.0,0.0,0.0,0.0,0.0,0.0,0.0,0.0,0.0,0.7163,0.0,0.6932,0.0,0.0,0.0,0.0,0.0,0.0,0.0,0.0,0.7468,0.7522,0.7341,0.7634,0.7604,0.0,0.7405,0.7331,0.0,0.0,0.0,0.0,0.0,0.0,0.0,0.0,0.6854,0.6957,0.7051,0.7095,0.7095,0.7095,0.7071,0.7021,0.692,0.6305,0.506,0.4133,0.321,0.0,0.0,0.0,0.0,0.0,0.0,0.0,0.0,0.0,0.0,0.0,0.0,0.0,0.0,0.0,0.0,0.0,0.0,0.0,0.0,0.0,0.0,0.0,0.6886,0.0,0.0,0.0,0.0,0.0,0.0,0.0,0.0,0.0,1.3903,1.5003,1.5486,1.4657,1.4561,1.3782,1.1648,0.0,0.0,0.0,0.0,0.0,0.0,0.0,0.8286,0.8323,0.8255,0.8211,0.8262,0.8364,0.8381,0.8279,0.0,0.0,0.8157,0.8038,0.7957,0.7899,0.7921,0.7988,0.7988,0.796,0.784,0.0,0.0,0.0,0.0,0.0,0.0,0.0,0.0,0.7607,0.7512,0.0,0.737,0.0,0.0,0.0,0.0,0.0,0.7302,0.0,0.0,0.7885,0.7953,0.7828,0.7914,0.7985,0.7988,0.7975,0.7897,0.7794,0.7334,0.0,0.0,0.0,0.0,0.0,0.0,0.696,0.7098,0.7098,0.7095,0.7095,0.7095,0.7031,0.6889,0.6637,0.6033,0.5015,0.4826,0.425,0.3213,0.3131,0.0,0.0,0.0,0.0,0.0,0.0,0.0,0.0,0.0,0.0,0.0,0.0,0.0,0.0,0.0,0.0,0.0,0.0,0.0,0.0,0.6798,0.0,0.0,0.0,0.0,0.0,0.0,0.0,0.0,0.0,0.0,1.4022,1.5045,1.5825,1.5778,0.0,0.0,0.0,0.0,1.2958,1.0337,1.0006,0.9525,0.8197,0.8174,0.8225,0.8039,0.0,0.0,0.8337,0.8374,0.8411,0.834,0.8262,0.8316,0.8255,0.8238,0.8197,0.8012,0.7985,0.7988,0.7988,0.7982,0.7978,0.7776,0.0,0.0,0.0,0.0,0.7645,0.7719,0.7906,0.7797,0.7668,0.7536,0.7533,0.0,0.0,0.0,0.0,0.0,0.0,0.7611,0.7753,0.7789,0.7913,0.7928,0.7968,0.7988,0.7988,0.7988,0.7968,0.7921,0.7796,0.75,0.7048,0.0,0.0,0.0,0.0,0.7112,0.7288,0.7193,0.7095,0.7095,0.7095,0.7028,0.6889,0.6634,0.6351,0.6067,0.5901,0.5339,0.4291,0.4258,0.0,0.0,0.0,0.0,0.0,0.0,0.0,0.0,0.0,0.0,0.0,0.0,0.0,0.0,0.0,0.0,0.0,0.0,0.0,0.6848,0.6859,0.7353,0.0,0.0,0.0,0.0,0.0,0.0,0.0,0.0,0.0,1.5289,1.5534,1.5825,0.0,0.0,1.5343,1.407,1.3878,1.2958,1.0382,1.0054,0.0,0.8407,0.8241,0.8344,0.8347,0.8343,0.8282,0.813,0.814,0.8153,0.8113,0.8106,0.8106,0.8106,0.8106,0.8092,0.7998,0.7988,0.7988,0.7988,0.7988,0.7988,0.7933,0.7777,0.7725,0.7824,0.7843,0.7811,0.7826,0.7985,0.7891,0.7851,0.7773,0.7773,0.7638,0.7404,0.7301,0.0,0.0,0.0,0.8048,0.8672,0.8672,0.8724,0.8772,0.8775,0.8482,0.7988,0.7988,0.7988,0.7988,0.7988,0.7779,0.7375,0.0,0.0,0.7284,0.7277,0.7336,0.7366,0.7278,0.72,0.7095,0.7041,0.6943,0.6798,0.66,0.6487,0.6429,0.6344,0.6025,0.5354,0.5357,0.4951,0.0,0.0,0.0,0.0,0.0,0.0,0.0,0.0,0.0,0.0,0.0,0.6477,0.6392,0.0,0.0,0.0,0.6702,0.7122,0.7731,0.7855,0.0,0.0,0.0,0.0,0.0,0.0,0.0,1.4572,1.5337,1.5825,1.5825,1.5825,1.5825,1.5825,1.5825,1.5534,1.4752,0.0,1.3926,1.1843,1.1604,1.1047,0.9272,0.8978,0.8859,0.8395,0.8238,0.8153,0.8012,0.7988,0.7988,0.7988,0.7988,0.7988,0.7988,0.7988,0.7988,0.7988,0.7988,0.7988,0.7988,0.7988,0.7988,0.7988,0.7988,0.7988,0.7988,0.7988,0.7988,0.7988,0.7988,0.7988,0.7988,0.7988,0.7988,0.7911,0.7821,0.7692,0.0,0.7973,0.7969,0.8769,1.0145,1.0145,1.0145,1.0141,1.0047,0.9361,0.8187,0.8038,0.7988,0.7988,0.7988,0.7917,0.7834,0.7828,0.776,0.7624,0.7614,0.7543,0.7394,0.7426,0.7292,0.7098,0.6957,0.6854,0.6705,0.6552,0.6446,0.6306,0.63,0.63,0.63,0.63,0.6228,0.6,0.0,0.0,0.0,0.0,0.0,0.0,0.0,0.0,0.0,0.0,0.0,0.0,0.0,0.0,0.6709,0.702,0.0,0.9183,0.9483,0.0,0.0,0.0,1.2267,1.3701,1.3871,1.4343,1.565,0.0,0.0,1.5825,1.5825,1.5825,1.5825,1.5825,1.5825,1.5825,1.5778,1.5343,1.3926,1.383,1.2958,1.06,1.0162,0.9677,0.8311,0.8091,0.8191,0.8041,0.7988,0.7988,0.7988,0.7988,0.7988,0.7988,0.7988,0.7988,0.7988,0.7988,0.7988,0.7988,0.7988,0.7988,0.7988,0.7988,0.7988,0.7988,0.7988,0.7988,0.7988,0.7988,0.7988,0.7988,0.7988,0.7988,0.7971,0.7931,0.7901,0.8487,0.949,0.9494,1.02,1.1414,1.1458,1.1463,1.1414,1.0485,0.985,0.946,0.8482,0.7988,0.7988,0.7988,0.7971,0.7987,0.7934,0.786,0.7767,0.776,0.7689,0.755,0.7477,0.7295,0.7098,0.6957,0.6854,0.6705,0.6552,0.6446,0.6306,0.63,0.63,0.63,0.63,0.619,0.6,0.5996,0.0,0.0,0.0,0.0,0.0,0.0,0.0,0.0,0.0,0.6722,0.6488,0.0,0.6792,0.0,0.7935,0.9257,1.0765,1.0885,0.0,0.0,1.3176,1.3754,1.5119,1.5293,1.5421,1.5771,1.5825,1.5825,1.5825,1.5825,1.5825,1.5825,1.5825,1.5825,1.5825,1.5825,1.5337,1.422,1.3926,1.3295,1.1799,1.1463,1.0627,0.8382,0.8825,0.9164,0.8184,0.7988,0.7988,0.7988,0.7988,0.7988,0.7988,0.7988,0.7988,0.7988,0.7988,0.7988,0.7988,0.7988,0.7988,0.7988,0.7988,0.7988,0.7988,0.7988,0.7988,0.7988,0.7988,0.7988,0.7988,0.7988,0.7988,0.7988,0.7988,0.7988,0.8432,0.9118,0.9118,0.9801,1.1023,1.1072,1.1361,1.1853,1.117,1.0828,1.0779,0.9509,0.8924,0.8874,0.8287,0.7988,0.7988,0.7988,0.7948,0.7919,0.7916,0.7811,0.76,0.738,0.7179,0.7098,0.7021,0.6919,0.6712,0.6688,0.6573,0.6402,0.646,0.6467,0.6399,0.6395,0.6354,0.623,0.6166,0.6125,0.0,0.0,0.0,0.0,0.0,0.0,0.0,0.0,0.0,0.0,0.0,0.817,0.8808,0.9718,1.0884,1.233,1.2474,1.3037,1.4503,1.4634,1.4933,1.5717,1.5825,1.5825,1.5825,1.5825,1.5825,1.5825,1.5825,1.5825,1.5825,1.5825,1.5825,1.5825,1.5825,1.554,1.4848,1.4752,1.4316,1.3006,1.2285,1.1409,1.0141,1.0337,1.0435,0.9167,0.8924,0.8726,0.8137,0.7988,0.7988,0.7988,0.7988,0.7988,0.7988,0.7988,0.7988,0.7988,0.7988,0.7988,0.7988,0.7988,0.7988,0.7988,0.7988,0.7988,0.7988,0.7988,0.7988,0.7988,0.7988,0.7988,0.7988,0.7988,0.7988,0.8088,0.8283,0.8283,0.897,1.0194,1.0243,1.0828,1.1896,1.1726,1.1711,1.1803,1.0596,0.9964,0.9866,0.8764,0.8187,0.7988,0.7988,0.7988,0.7988,0.7971,0.7872,0.7604,0.7299,0.7095,0.7095,0.7095,0.6964,0.6753,0.6861,0.6793,0.6522,0.663,0.6641,0.6512,0.6545,0.6542,0.6538,0.6422,0.6412,0.0,0.6422,0.0,0.0,0.0,0.0,0.0,0.0,0.0,0.0,0.8479,0.9851,1.1473,1.1832,1.2509,1.3842,1.4088,1.4609,1.5629,1.5825,1.5825,1.5825,1.5825,1.5825,1.5825,1.5825,1.5825,1.5825,1.5825,1.5825,1.5825,1.5825,1.5825,1.5825,1.5825,1.5778,1.5825,1.5825,1.5194,1.4022,1.306,1.2382,1.2042,1.1994,1.1702,1.0435,1.0047,0.9608,0.8577,0.8134,0.7988,0.7988,0.7988,0.7988,0.7988,0.7988,0.7988,0.7988,0.7988,0.7982,0.7988,0.7988,0.7988,0.7988,0.7988,0.7988,0.7988,0.7988,0.7988,0.7988,0.7988,0.7988,0.7988,0.7988,0.7988,0.8577,0.9604,0.9608,1.0342,1.1556,1.156,1.1658,1.1789,1.0702,1.0671,1.1472,1.0384,0.9769,0.9581,0.9584,0.9069,0.8038,0.7988,0.7988,0.7982,0.0,0.0,0.0,0.725,0.7095,0.7095,0.7095,0.7018,0.6849,0.6869,0.0,0.6668,0.6685,0.6688,0.6658,0.6658,0.0,0.0,0.0,0.0,0.0,0.0,0.0,0.0,0.0,0.0,0.0,0.7363,0.7282,0.7412,0.8807,1.0646,1.2991,1.3396,1.3999,1.5266,1.5453,1.5534,1.5778,1.5825,1.5825,1.5825,1.5825,1.5825,1.5825,1.5825,1.5825,1.5825,1.5825,1.5825,1.5825,1.5825,1.5825,1.5825,1.5825,1.5825,1.5825,1.5825,1.5343,1.4076,1.4513,1.413,1.2721,1.2866,1.2909,1.1799,1.0681,1.0047,0.9608,0.8726,0.8038,0.8038,0.7988,0.7988,0.7988,0.7988,0.7988,0.7988,0.7988,0.7955,0.7988,0.0,0.7988,0.7988,0.0,0.7988,0.7988,0.7988,0.7988,0.7988,0.7988,0.7988,0.7988,0.7988,0.7988,0.8382,0.9019,0.9019,0.9365,0.9944,0.9944,1.0289,1.0865,1.0145,1.0418,1.144,1.0229,0.9571,0.9493,0.9099,0.8555,0.7929,0.7955,0.7951,0.7874,0.7706,0.756,0.7489,0.7213,0.7095,0.7095,0.7095,0.7031,0.6896,0.6953,0.0,0.0,0.0,0.0,0.0,0.0,0.0,0.0,0.0,0.0,0.6912,0.6873,0.691,0.6987,0.7173,0.736,0.758,0.827,0.893,0.949,1.092,1.2634,1.4506,1.4772,1.5092,1.573,1.5825,1.5825,1.5825,1.5825,1.5825,1.5825,1.5825,1.5825,1.5825,1.5825,1.5825,1.5825,1.5825,1.5825,1.5825,1.5825,1.5825,1.5825,1.5825,1.5825,1.5825,1.5825,1.5581,1.5051,1.5289,1.5486,1.4226,1.4418,1.422,1.3102,1.2377,1.1745,1.1072,0.985,0.9019,0.8924,0.8478,0.7988,0.7988,0.7988,0.7958,0.7901,0.7926,0.7882,0.7988,0.7988,0.7988,0.7988,0.7988,0.7988,0.7975,0.7951,0.0,0.0,0.0,0.7988,0.7988,0.7988,0.7988,0.7988,0.7988,0.7988,0.7988,0.7988,0.7961,0.8514,0.9431,0.9413,1.0001,1.0989,0.9975,0.9473,0.9385,0.854,0.7976,0.7818,0.7864,0.7885,0.7729,0.7492,0.7405,0.7326,0.7162,0.7095,0.7095,0.7095,0.7041,0.6927,0.7034,0.7041,0.693,0.7034,0.7045,0.693,0.6923,0.6923,0.6923,0.6923,0.6977,0.7085,0.7095,0.7105,0.7139,0.7597,0.7998,0.8284,0.9755,1.109,1.2015,1.3177,1.4411,1.5683,1.5825,1.5778,1.5825,1.5825,1.5825,1.5825,1.5825,1.5825,1.5825,1.5825,1.5825,1.5825,1.5825,1.5825,1.5825,1.5825,1.5825,1.5825,1.5825,1.5825,1.5825,1.5825,1.5825,1.5825,1.5825,1.5778,1.5778,1.5778,1.5825,1.5635,1.5683,1.5391,1.4555,1.4064,1.3488,1.2425,1.1214,1.0485,1.0243,0.9312,0.8382,0.8386,0.8113,0.7904,0.7814,0.775,0.7692,0.7988,0.7988,0.7988,0.7988,0.7988,0.7988,0.7917,0.7858,0.798,0.7988,0.7988,0.7988,0.7988,0.7988,0.7988,0.7988,0.7988,0.7988,0.7988,0.7982,0.7853,0.7925,0.8083,0.7876,0.8326,0.9375,0.933,0.9285,0.9166,0.9196,0.8753,0.7876,0.7712,0.7587,0.7491,0.7439,0.7305,0.7132,0.7105,0.7095,0.7095,0.7095,0.7088,0.7068,0.7085,0.7088,0.7068,0.7085,0.7085,0.7068,0.7068,0.7068,0.7065,0.7065,0.7075,0.7095,0.7095,0.7197,0.7371,0.8318,0.9467,1.0863,1.2411,1.3423,1.3586,1.3759,1.4411,1.5635,1.5825,1.5825,1.5825,1.5825,1.5825,1.5825,1.5825,1.5825,1.5825,1.5825,1.5825,1.5825,1.5825,1.5825,1.5825,1.5825,1.5825,1.5825,1.5825,1.5825,1.5825,1.5825,1.5825,1.5825,1.5825,1.5825,1.5825,1.5825,1.5825,1.5825,1.5825,1.573,1.5432,1.4657,1.3974,1.368,1.2522,1.1745,1.1604,1.0583,0.9801,0.96,0.8777,0.7959,0.7719,0.7546,0.7438,0.7988,0.7988,0.7988,0.7988,0.7985,0.7901,0.7786,0.7706,0.777,0.7801,0.7804,0.7804,0.7845,0.7913,0.7913,0.7911,0.7985,0.7904,0.7867,0.7906,0.7767,0.7651,0.7563,0.7434,0.7636,0.7997,0.8079,0.8083,0.8053,0.825,0.8097,0.761,0.7506,0.7438,0.7415,0.7288,0.721,0.7098,0.7095,0.7095,0.7095,0.7095,0.7095,0.7095,0.7095,0.7095,0.7095,0.7095,0.7095,0.7095,0.7095,0.7095,0.7095,0.7095,0.7095,0.7095,0.7095,0.7432,0.8172,0.9511,1.0941,1.2417,1.3345,1.4214,1.4895,1.4902,1.5194,1.573,1.5825,1.5825,1.5825,1.5825,1.5825,1.5825,1.5825,1.5825,1.5825,1.5825,1.5825,1.5825,1.5825,1.5825,1.5825,1.5825,1.5825,1.5825,1.5825,1.5825,1.5825,1.5825,1.5825,1.5825,1.5825,1.5825,1.5825,1.5825,1.5825,1.5825,1.5825,1.5825,1.5778,1.5194,1.4997,1.4854,1.3884,1.3102,1.2963,1.1891,1.0921,1.003,0.951,0.8714,0.7904,0.7417,0.7261,0.7988,0.7988,0.7988,0.7971,0.7928,0.7862,0.7712,0.7556,0.755,0.7529,0.7509,0.7563,0.7662,0.7756,0.7763,0.7828,0.7913,0.7818,0.7763,0.775,0.7614,0.7485,0.7422,0.7339,0.7258,0.7105,0.7095,0.7095,0.7112,0.7261,0.7319,0.7322,0.7353,0.7398,0.7316,0.72,0.7095,0.7139,0.736,0.736,0.7139,0.7095,0.7095,0.7095,0.7095,0.7228,0.7492,0.7489,0.7536,0.7533,0.7489,0.7401,0.7139,0.7095,0.7228,0.7445,0.7489,0.8141,0.9598,1.0895,1.2193,1.3533,1.3996,1.4659,1.5543,1.5744,1.5825,1.5825,1.5825,1.5825,1.5825,1.5825,1.5825,1.5825,1.5825,1.5825,1.5825,1.5825,1.5825,1.5825,1.5825,1.5825,1.5825,1.5825,1.5825,1.5825,1.5825,1.5825,1.5825,1.5825,1.5825,1.5825,1.5825,1.5825,1.5825,1.5825,1.5825,1.5825,1.5825,1.5825,1.5784,1.5778,1.5778,1.5635,1.5003,1.4411,1.422,1.3253,1.2139,1.1244,1.0377,0.9198,0.7773,0.7312,0.7109,0.7988,0.7988,0.7988,0.7907,0.7834,0.7811,0.7645,0.7407,0.7394,0.7312,0.7183,0.7478,0.76,0.7617,0.7617,0.7631,0.7655,0.7628,0.7617,0.7604,0.7508,0.7429,0.7398,0.7231,0.7109,0.7095,0.7095,0.7095,0.7095,0.7115,0.7122,0.7136,0.7302,0.7299,0.7136,0.7146,0.7139,0.7139,0.8189,0.8193,0.7183,0.7095,0.7095,0.7095,0.7139,0.7621,0.8632,0.8715,0.8715,0.8715,0.8715,0.8237,0.7316,0.7139,0.7621,0.8623,0.8759,0.9662,1.1697,1.2412,1.3183,1.4272,1.491,1.5266,1.5464,1.5638,1.5825,1.5825,1.5825,1.5825,1.5825,1.5825,1.5825,1.5825,1.5825,1.5825,1.5825,1.5825,1.5825,1.5825,1.5825,1.5825,1.5825,1.5825,1.5825,1.5825,1.5825,1.5825,1.5825,1.5825,1.5825,1.5825,1.5825,1.5825,1.5825,1.5825,1.5825,1.5825,1.5825,1.5825,1.5825,1.5825,1.5825,1.5778,1.5683,1.5486,1.5242,1.4609,1.3674,1.2752,1.1194,0.9129,0.7672,0.7252,0.7268,0.7988,0.7988,0.7988,0.7902,0.7692,0.759,0.7428,0.7241,0.7234,0.7197,0.7112,0.723,0.738,0.7465,0.7468,0.7559,0.7594,0.7509,0.7511,0.7461,0.7397,0.7326,0.7241,0.7272,0.7234,0.7102,0.7095,0.7095,0.7095,0.7095,0.7095,0.7102,0.7162,0.72,0.7143,0.7793,0.7797,0.7143,0.8277,0.8324,0.7312,0.7797,0.8149,0.8149,0.8193,0.8364,0.889,0.9531,0.9923,0.9879,0.9879,0.9662,0.9179,0.9179,0.9401,0.9923,1.0567,1.1295,1.2237,1.3238,1.4023,1.4472,1.5064,1.5398,1.5411,1.5665,1.5825,1.5825,1.5825,1.5825,1.5825,1.5825,1.5825,1.5825,1.5825,1.5825,1.5825,1.5825,1.5825,1.5825,1.5825,1.5825,1.5825,1.5825,1.5825,1.5825,1.5825,1.5825,1.5825,1.5825,1.5825,1.5825,1.5825,1.5825,1.5825,1.5825,1.5825,1.5825,1.5825,1.5825,1.5825,1.5825,1.5825,1.5825,1.5825,1.5825,1.573,1.5419,1.4816,1.3744,1.2134,0.9993,0.927,0.8619,0.8273,0.7988,0.7982,0.7944,0.7807,0.7533,0.7467,0.7282,0.7105,0.7095,0.7095,0.7095,0.7095,0.7204,0.7299,0.7309,0.7373,0.7448,0.7356,0.7309,0.7309,0.7305,0.7248,0.7119,0.7248,0.7251,0.7112,0.7095,0.7095,0.7095,0.7095,0.7272,0.7533,0.758,0.7749,0.8093,0.8969,0.8925,0.8229,0.8969,0.8925,0.8273,0.8623,0.8759,0.8452,0.8412,0.854,0.889,0.9666,1.0313,1.0567,1.0567,1.0567,1.0567,1.0567,1.074,1.1128,1.2163,1.2808,1.2808,1.3797,1.4402,1.4442,1.4943,1.5277,1.5337,1.5618,1.5812,1.5825,1.5825,1.5825,1.5825,1.5825,1.5825,1.5825,1.5825,1.5825,1.5825,1.5825,1.5825,1.5825,1.5825,1.5825,1.5825,1.5825,1.5825,1.5825,1.5825,1.5825,1.5825,1.5825,1.5825,1.5825,1.5825,1.5825,1.5825,1.5825,1.5825,1.5825,1.5825,1.5825,1.5825,1.5825,1.5825,1.5825,1.5825,1.5825,1.5825,1.5663,1.5215,1.3692,1.2258,1.1144,1.0391,0.9845,0.9279,0.7988,0.7965,0.7833,0.7655,0.7429,0.7415,0.7282,0.7095,0.7095,0.7095,0.7095,0.7095,0.7102,0.716,0.7122,0.7115,0.7122,0.7122,0.7119,0.7122,0.7132,0.7109,0.7098,0.7102,0.7109,0.7098,0.7095,0.7095,0.7095,0.7139,0.7709,0.8715,0.8803,0.9366,1.0135,1.0308,1.0481,1.0135,1.0265,1.0351,1.0135,0.9323,0.8364,0.7404,0.7224,0.7881,0.8803,0.8978,0.9497,1.0567,1.0654,1.0654,1.0654,1.0697,1.1214,1.22,1.3336,1.3997,1.3955,1.4066,1.4128,1.4195,1.4683,1.5042,1.5064,1.5518,1.5812,1.5825,1.5825,1.5825,1.5825,1.5825,1.5825,1.5825,1.5825,1.5825,1.5825,1.5825,1.5825,1.5825,1.5825,1.5825,1.5825,1.5825,1.5825,1.5825,1.5825,1.5825,1.5825,1.5825,1.5825,1.5825,1.5825,1.5825,1.5825,1.5825,1.5825,1.5825,1.5825,1.5825,1.5825,1.5825,1.5825,1.5805,1.5765,1.5765,1.5805,1.549,1.4868,1.3948,1.3239,1.2325,1.1639,1.0875,1.0351,0.7931,0.7882,0.7736,0.7556,0.7415,0.7265,0.719,0.7098,0.7095,0.7095,0.7095,0.7095,0.7095,0.7095,0.7095,0.7095,0.7095,0.7095,0.7095,0.7119,0.7297,0.7284,0.7125,0.7333,0.7274,0.7115,0.7095,0.7095,0.7228,0.7841,0.8452,0.8973,0.9666,1.0221,1.0524,1.0567,1.0265,0.9666,1.0226,0.9918,0.8659,0.8711,0.8324,0.7228,0.7881,0.8798,0.9966,1.0009,1.0524,1.1638,1.1686,1.2035,1.2735,1.282,1.2997,1.3421,1.387,1.4088,1.4088,1.4088,1.4088,1.4128,1.4629,1.5015,1.5109,1.5478,1.5825,1.5825,1.5825,1.5825,1.5825,1.5825,1.5825,1.5825,1.5825,1.5825,1.5825,1.5825,1.5825,1.5825,1.5825,1.5825,1.5872,1.5825,1.5825,1.5825,1.5825,1.5872,1.5825,1.5825,1.5872,1.5825,1.5825,1.5825,1.5825,1.5825,1.5825,1.5825,1.5825,1.5825,1.5825,1.5825,1.5825,1.5618,1.5598,1.5511,1.5478,1.5145,1.4579,1.4391,1.3673,1.3281,1.2973,1.2174,1.1601,0.7906,0.7797,0.7658,0.7512,0.7412,0.7258,0.7142,0.7102,0.7095,0.7095,0.7095,0.7095,0.7095,0.7095,0.7095,0.7125,0.7159,0.7122,0.7122,0.7186,0.7431,0.7387,0.7173,0.7404,0.739,0.7129,0.7095,0.7272,0.7705,0.8496,0.9279,1.0053,1.0826,1.1386,1.1606,1.1343,1.0869,1.0621,1.0269,0.9357,0.8317,0.8229,0.8364,0.8229,0.8321,0.8842,1.0009,1.0394,1.1128,1.2114,1.2279,1.2851,1.3948,1.4088,1.4088,1.4088,1.4088,1.4088,1.4088,1.4088,1.4088,1.4115,1.466,1.5015,1.5055,1.5498,1.5778,1.5825,1.5825,1.5825,1.5825,1.5825,1.5825,1.5825,1.5825,1.5825,1.5825,1.5825,1.5825,1.5872,1.6244,1.6386,1.648,1.6796,1.7023,1.6983,1.6976,1.6929,1.6527,1.6386,1.6204,1.5872,1.5825,1.5825,1.5825,1.5825,1.5825,1.5825,1.5825,1.5825,1.5792,1.5798,1.5691,1.5478,1.5317,1.5256,1.501,1.4716,1.4569,1.4452,1.4206,1.3766,1.3568,1.3385,1.2687,0.7818,0.779,0.7655,0.7506,0.7377,0.7339,0.7268,0.7109,0.7095,0.7095,0.7095,0.7095,0.7095,0.7095,0.7095,0.7221,0.7329,0.7169,0.7183,0.737,0.7456,0.7336,0.7136,0.7339,0.7326,0.7105,0.7095,0.7709,0.8715,0.9021,1.0009,1.1772,1.2029,1.2553,1.3913,1.2547,1.2638,1.2735,1.0794,0.9618,1.0178,0.8532,0.8448,0.9788,0.84,0.8017,0.9104,1.0053,1.0956,1.2029,1.2279,1.2851,1.3913,1.4088,1.4088,1.4088,1.4088,1.4088,1.4088,1.4088,1.4088,1.4162,1.4629,1.5015,1.5089,1.5484,1.5825,1.5825,1.5825,1.5825,1.5825,1.5825,1.5825,1.5825,1.5825,1.5825,1.5825,1.5825,1.5872,1.6109,1.6943,1.7638,1.7917,1.8403,1.8902,1.8993,1.9039,1.8718,1.7816,1.7544,1.7037,1.6298,1.592,1.5879,1.5825,1.5825,1.5872,1.5872,1.5825,1.5818,1.5732,1.5698,1.5484,1.5271,1.5017,1.4897,1.4807,1.4502,1.4456,1.4369,1.4195,1.4088,1.3913,1.3688,1.3385,0.7814,0.778,0.7543,0.7463,0.7405,0.7261,0.7136,0.7098,0.7095,0.7095,0.7095,0.7095,0.7095,0.7095,0.7098,0.7282,0.7492,0.7278,0.7278,0.7509,0.7621,0.7529,0.7366,0.7455,0.739,0.7132,0.7095,0.7709,0.8842,0.9666,1.0524,1.1123,1.1938,1.2456,1.2766,1.1772,1.1686,1.2595,1.1815,1.0735,0.9662,0.9488,0.9527,0.9323,0.8667,0.9231,1.1037,1.0091,1.0005,1.1128,1.1895,1.2851,1.3822,1.4088,1.4088,1.4088,1.4088,1.4088,1.4088,1.4088,1.4088,1.4188,1.4673,1.4975,1.5068,1.5484,1.5798,1.5825,1.5825,1.5825,1.5825,1.5825,1.5825,1.5825,1.5825,1.5832,1.6015,1.6567,1.7037,1.7264,1.818,1.8856,1.8993,1.9443,1.9679,1.9679,1.9679,1.9405,1.9001,1.8272,1.7684,1.7178,1.6622,1.6339,1.6796,1.6828,1.6579,1.6303,1.6054,1.5705,1.5631,1.5498,1.5284,1.503,1.4776,1.4583,1.4486,1.4362,1.4309,1.4255,1.4128,1.4088,1.4088,1.3886,1.3539,0.7814,0.7784,0.7556,0.7421,0.7412,0.7261,0.7146,0.7102,0.7095,0.7095,0.7095,0.7095,0.7177,0.7204,0.7125,0.727,0.7556,0.7348,0.7441,0.7648,0.7699,0.7624,0.7465,0.7482,0.7431,0.7251,0.7122,0.7709,0.889,0.9579,1.0178,1.0697,1.1343,1.1638,1.1552,1.0611,1.0524,1.1423,1.0778,1.0086,0.9618,0.9357,0.9357,0.9362,0.8711,0.9657,1.1852,1.0481,1.0048,1.1085,1.1943,1.2851,1.3955,1.4088,1.4088,1.4088,1.4088,1.4088,1.4088,1.4088,1.4088,1.4175,1.4529,1.4894,1.5048,1.5424,1.5678,1.5764,1.5825,1.5825,1.5825,1.5825,1.5825,1.5825,1.5825,1.6015,1.6433,1.7178,1.7909,1.8357,1.9443,2.0034,2.0169,2.0674,2.0809,2.0863,2.0818,2.0539,2.0124,1.9131,1.868,1.8141,1.7404,1.7537,1.8133,1.7918,1.7424,1.6832,1.6297,1.5824,1.5484,1.5304,1.5097,1.4763,1.4482,1.4355,1.4222,1.4188,1.4148,1.4088,1.4088,1.4088,1.4068,1.3915,1.364,0.7814,0.7794,0.7658,0.7502,0.738,0.736,0.7272,0.7109,0.7095,0.7095,0.7095,0.7095,0.721,0.7292,0.719,0.7253,0.7533,0.7516,0.7594,0.7706,0.7692,0.76,0.76,0.7472,0.738,0.7339,0.7162,0.7757,0.8846,0.9021,0.9449,1.0313,1.0438,1.0524,1.0351,0.9405,0.9579,1.0351,0.8746,0.8834,1.0135,0.8532,0.8273,1.0091,0.8404,0.8829,1.1595,1.1252,1.1214,1.2242,1.237,1.2851,1.3864,1.4088,1.4088,1.4088,1.4088,1.4088,1.4088,1.4088,1.4088,1.4115,1.4376,1.4643,1.5001,1.5257,1.5565,1.5792,1.5825,1.5825,1.5825,1.5825,1.5825,1.5825,1.6015,1.652,1.7458,1.7824,1.8688,1.9588,2.0621,2.1382,2.1436,2.2271,2.2643,2.2775,2.2731,2.2173,2.1489,2.0486,1.9807,1.9131,1.8495,1.8688,1.9276,1.8848,1.8409,1.8204,1.7168,1.5948,1.5307,1.5022,1.4816,1.4496,1.4302,1.4162,1.4088,1.4088,1.4088,1.4088,1.4088,1.4088,1.3961,1.3781,1.3586,0.7814,0.7797,0.7658,0.7512,0.7383,0.7373,0.7285,0.7105,0.7098,0.7105,0.7095,0.7095,0.7122,0.7149,0.7122,0.7206,0.7383,0.7336,0.7482,0.7746,0.7665,0.7672,0.7678,0.7495,0.7422,0.736,0.7224,0.7713,0.8846,0.8803,0.9021,0.9323,0.9318,0.9362,0.9235,0.8973,0.9492,1.0394,1.0043,0.9314,0.9187,0.8798,0.8715,0.9013,0.7881,0.8873,1.1895,1.2023,1.2425,1.3428,1.2766,1.2851,1.3948,1.4088,1.4088,1.4088,1.4088,1.4088,1.4088,1.4088,1.4088,1.4115,1.4329,1.4643,1.4988,1.5231,1.5518,1.5758,1.5825,1.5825,1.5825,1.5825,1.5825,1.592,1.6662,1.7358,1.7917,1.9268,2.0531,2.089,2.1898,2.2403,2.2589,2.2818,2.3101,2.3101,2.3047,2.3003,2.2262,2.1436,2.0531,2.0395,2.0034,2.0133,2.0141,1.9724,1.9484,1.9497,1.8194,1.6051,1.5302,1.4639,1.4448,1.4168,1.4195,1.4102,1.4088,1.4088,1.4088,1.4088,1.3935,1.3813,1.3707,1.35,1.3387,0.7868,0.7804,0.7723,0.7567,0.7439,0.7441,0.7343,0.7139,0.7214,0.7197,0.7109,0.7095,0.7132,0.7227,0.7125,0.7224,0.7395,0.7346,0.7489,0.7678,0.7767,0.7834,0.7821,0.7611,0.7468,0.7441,0.72,0.7499,0.8017,0.8149,0.8149,0.8145,0.8149,0.8145,0.8145,0.8149,0.8448,0.8965,0.9139,0.8925,0.889,0.8368,0.8496,0.8496,0.7841,0.8571,1.1203,1.2023,1.2851,1.3555,1.3027,1.2851,1.3955,1.4088,1.4088,1.4088,1.4088,1.4088,1.4088,1.4088,1.4088,1.4108,1.4269,1.4543,1.4921,1.5182,1.5357,1.5758,1.5812,1.5825,1.5825,1.5825,1.6062,1.6669,1.7723,1.8411,1.8457,2.0124,2.1391,2.2031,2.2633,2.3101,2.3101,2.3101,2.3101,2.3101,2.3101,2.3091,2.2862,2.2031,2.148,2.1436,2.1212,2.1132,2.1354,2.1131,2.006,2.0068,1.9075,1.6877,1.5832,1.4951,1.4776,1.4678,1.4334,1.4088,1.4088,1.4088,1.4088,1.4008,1.3753,1.3606,1.3513,1.3233,1.3086,0.7901,0.7814,0.7828,0.7655,0.7467,0.7526,0.7417,0.7156,0.7261,0.7251,0.7115,0.7095,0.72,0.7339,0.7221,0.7248,0.7426,0.7492,0.7563,0.7699,0.7845,0.7997,0.7874,0.7695,0.756,0.7495,0.7223,0.7163,0.7316,0.7228,0.7183,0.7272,0.7228,0.7139,0.7312,0.7228,0.7139,0.7356,0.7533,0.7881,0.8233,0.7753,0.7753,0.8233,0.8017,0.8532,1.0433,1.1681,1.2851,1.4039,1.3069,1.3203,1.3997,1.4088,1.4088,1.4088,1.4088,1.4088,1.4088,1.4088,1.4088,1.4095,1.4095,1.4315,1.48,1.4917,1.5144,1.5685,1.5731,1.5833,1.6068,1.6015,1.6624,1.7527,1.8758,1.9521,1.9847,2.0729,2.1943,2.2916,2.3101,2.3101,2.3101,2.3101,2.3101,2.3101,2.3101,2.3101,2.3003,2.2448,2.235,2.2589,2.2315,2.1987,2.2296,2.2544,2.1286,2.0358,1.9388,1.7868,1.6848,1.6121,1.5726,1.5379,1.465,1.425,1.4088,1.4088,1.4088,1.3955,1.3754,1.3606,1.3473,1.3006,1.2712,0.7901,0.7821,0.7891,0.775,0.748,0.7526,0.7428,0.7105,0.7183,0.721,0.7105,0.7098,0.7129,0.7162,0.7288,0.7388,0.74,0.7529,0.7597,0.7638,0.7902,0.7897,0.7851,0.7662,0.7539,0.7417,0.7196,0.7102,0.7095,0.7095,0.7095,0.7095,0.7095,0.7095,0.7095,0.7095,0.7095,0.7095,0.7095,0.7228,0.7445,0.736,0.7272,0.7621,0.8105,0.9187,1.0476,1.1681,1.2857,1.3695,1.3864,1.373,1.4039,1.4088,1.4088,1.4088,1.4088,1.4088,1.4088,1.4088,1.4088,1.4088,1.4102,1.4235,1.4543,1.4629,1.491,1.5344,1.5491,1.5802,1.6395,1.7025,1.7446,1.8119,1.9369,2.0395,2.0668,2.1748,2.2663,2.2994,2.3101,2.3101,2.3101,2.3101,2.3101,2.3101,2.3081,2.3081,2.294,2.2702,2.2833,2.3042,2.2916,2.2507,2.238,2.2496,2.1476,2.0595,1.9734,1.9155,1.8101,1.7001,1.656,1.5703,1.4734,1.4454,1.425,1.4082,1.4082,1.3895,1.3687,1.348,1.32,1.2726,1.2496,0.7944,0.787,0.7884,0.7756,0.7529,0.7624,0.7485,0.7189,0.7331,0.7284,0.7159,0.723,0.727,0.7261,0.7404,0.7478,0.7492,0.7556,0.7597,0.7628,0.7767,0.7736,0.7624,0.755,0.7465,0.7424,0.7241,0.7105,0.7095,0.7095,0.7095,0.7095,0.7095,0.7095,0.7095,0.7095,0.7095,0.7095,0.7095,0.7095,0.7095,0.7095,0.7095,0.7316,0.8281,0.9453,1.0567,1.1724,1.2857,1.3779,1.4088,1.4088,1.4088,1.4088,1.4088,1.4088,1.4088,1.4088,1.4088,1.4088,1.4088,1.4088,1.4088,1.4249,1.4429,1.4516,1.4716,1.5064,1.5236,1.5502,1.6031,1.6794,1.7405,1.8379,1.9522,2.0564,2.1263,2.2183,2.2896,2.3023,2.3101,2.3101,2.3101,2.2984,2.3042,2.3013,2.275,2.276,2.2974,2.2824,2.2824,2.2984,2.3062,2.2887,2.2586,2.2152,2.138,2.0782,2.031,2.001,1.9559,1.8381,1.7253,1.6363,1.547,1.4657,1.4412,1.4243,1.4169,1.3781,1.3534,1.3253,1.2946,1.2643,1.2418,0.7948,0.7971,0.7851,0.7709,0.7624,0.7689,0.7502,0.7193,0.7567,0.7475,0.724,0.7482,0.7492,0.7504,0.7563,0.7634,0.7665,0.7634,0.7655,0.7668,0.7638,0.759,0.7482,0.7438,0.7434,0.7522,0.723,0.7105,0.7095,0.7095,0.7095,0.7095,0.7095,0.7095,0.7095,0.7095,0.7095,0.7095,0.7095,0.7095,0.7095,0.7095,0.7095,0.7316,0.7885,0.9231,1.0394,1.1515,1.2644,1.3955,1.4088,1.4088,1.4088,1.4088,1.4088,1.4088,1.4088,1.4088,1.4088,1.4088,1.4088,1.4088,1.4088,1.4188,1.4369,1.4429,1.4583,1.4783,1.4981,1.5149,1.5209,1.6485,1.749,1.8429,1.9488,2.0602,2.1537,2.2119,2.237,2.2764,2.2734,2.2685,2.2754,2.2734,2.2828,2.2867,2.2627,2.25,2.2662,2.273,2.2643,2.2584,2.2594,2.2409,2.2107,2.1951,2.1168,2.0809,2.0557,2.0508,2.045,1.9678,1.8461,1.7293,1.6404,1.5587,1.5095,1.5179,1.4828,1.4035,1.3654,1.3625,1.3192,1.2587,1.2392,0.7818,0.7965,0.775,0.7621,0.7587,0.7492,0.7343,0.7149,0.7383,0.7456,0.7366,0.7519,0.7607,0.76,0.7709,0.7834,0.7855,0.7794,0.7743,0.7706,0.7634,0.7546,0.7533,0.7394,0.7387,0.7356,0.7224,0.7098,0.7095,0.7095,0.7095,0.7095,0.7095,0.7095,0.7095,0.7095,0.7095,0.7095,0.7095,0.7095,0.7095,0.7095,0.7095,0.7183,0.7709,0.8834,1.0221,1.0869,1.1863,1.3822,1.4088,1.4088,1.4088,1.4088,1.4088,1.4088,1.4088,1.4088,1.4088,1.4088,1.4088,1.4088,1.4088,1.4088,1.4162,1.4182,1.4342,1.4549,1.4851,1.5185,1.5878,1.6997,1.8128,1.9071,1.9999,2.0945,2.1277,2.1465,2.165,2.2012,2.207,2.2187,2.2305,2.2373,2.2393,2.2373,2.2158,2.209,2.2236,2.2217,2.21,2.206,2.2031,2.1768,2.1434,2.1366,2.1054,2.0781,2.0576,2.0576,2.0527,2.0518,1.9708,1.8221,1.7277,1.661,1.6339,1.6111,1.5453,1.4638,1.4366,1.411,1.3234,1.2476,1.2371,0.786,0.7955,0.7723,0.7597,0.757,0.7484,0.7282,0.7159,0.7455,0.7512,0.7499,0.7672,0.7777,0.7767,0.7865,0.7906,0.7814,0.7831,0.7726,0.7607,0.7516,0.7536,0.7553,0.7373,0.7333,0.7309,0.7224,0.7095,0.7095,0.7095,0.7095,0.7095,0.7095,0.7095,0.7095,0.7095,0.7095,0.7095,0.7095,0.7095,0.7095,0.7095,0.7095,0.7316,0.8273,0.9483,1.0438,1.204,1.2863,1.3864,1.4088,1.4088,1.4088,1.4088,1.4088,1.4088,1.4088,1.4088,1.4088,1.4088,1.4088,1.4088,1.4088,1.4088,1.4088,1.4115,1.4162,1.4289,1.4412,1.4917,1.5782,1.7119,1.8109,1.903,2.0131,2.08,2.0898,2.0898,2.1064,2.1318,2.166,2.1875,2.1963,2.1982,2.1924,2.1807,2.166,2.1689,2.1818,2.1689,2.1572,2.166,2.1641,2.1435,2.1162,2.1035,2.0967,2.0713,2.0615,2.0615,2.0605,2.0566,1.9874,1.8709,1.8003,1.7696,1.6886,1.6477,1.5834,1.5265,1.4689,1.4055,1.3051,1.2412,1.2345,0.7938,0.7965,0.7689,0.757,0.7567,0.74,0.7255,0.7193,0.7536,0.7594,0.7495,0.779,0.7926,0.7896,0.7857,0.7816,0.7648,0.775,0.7648,0.7553,0.7514,0.7502,0.7489,0.7366,0.7244,0.7268,0.7162,0.7095,0.7095,0.7095,0.7095,0.7095,0.7095,0.7095,0.7095,0.7095,0.7095,0.7095,0.7095,0.7095,0.7095,0.7095,0.7095,0.7139,0.8965,0.9788,1.0265,1.1778,1.2954,1.3561,1.3906,1.4088,1.4088,1.4088,1.4088,1.4088,1.4088,1.4088,1.4088,1.4088,1.4088,1.4088,1.4088,1.4088,1.4088,1.4088,1.4095,1.4088,1.4157,1.4635,1.5639,1.6714,1.7813,1.8886,1.9893,2.0625,2.0664,2.0683,2.0664,2.0997,2.1348,2.1465,2.1515,2.1456,2.1359,2.1339,2.1162,2.1191,2.129,2.1182,2.1143,2.1289,2.1299,2.1143,2.0947,2.0781,2.0732,2.0683,2.0615,2.0615,2.0615,2.0605,1.9806,1.9164,1.9313,1.8924,1.7904,1.7061,1.6807,1.6242,1.5098,1.3985,1.2898,1.2409,1.2325,0.7804,0.7955,0.758,0.7475,0.7546,0.7253,0.7122,0.7129,0.736,0.7492,0.7563,0.7753,0.7857,0.7901,0.7872,0.7824,0.7756,0.7695,0.7692,0.7682,0.7617,0.7584,0.7577,0.7434,0.7275,0.7238,0.7125,0.7098,0.7095,0.7095,0.7095,0.7095,0.7095,0.7095,0.7095,0.7095,0.7095,0.7095,0.7095,0.7095,0.7095,0.7095,0.7095,0.7228,0.7661,0.836,0.9405,1.0832,1.1821,1.2681,1.3603,1.4039,1.4088,1.4088,1.4088,1.4088,1.4088,1.4088,1.4088,1.4088,1.4088,1.4088,1.4088,1.4088,1.4088,1.4088,1.4088,1.4088,1.4088,1.4573,1.5579,1.6609,1.7747,1.8798,1.9795,2.0362,2.0557,2.0615,2.0615,2.0635,2.1016,2.0938,2.0869,2.0801,2.0742,2.0732,2.0742,2.0801,2.084,2.0801,2.0791,2.0947,2.1016,2.0879,2.083,2.0693,2.0644,2.0615,2.0605,2.0595,2.0576,2.0527,2.0293,1.986,2.0014,1.982,1.8757,1.8118,1.7968,1.6969,1.5569,1.4102,1.2691,1.2429,1.2305,0.7874,0.7955,0.7651,0.7536,0.7556,0.7227,0.7095,0.7129,0.7302,0.7504,0.7607,0.775,0.7851,0.7882,0.7831,0.7767,0.7709,0.7702,0.7746,0.7797,0.7746,0.7712,0.7662,0.7492,0.7316,0.7255,0.7142,0.7098,0.7095,0.7095,0.7095,0.7095,0.7095,0.7095,0.7095,0.7095,0.7095,0.7095,0.7095,0.7095,0.7095,0.7095,0.7095,0.7139,0.7709,0.8281,0.9017,1.0697,1.1681,1.2498,1.3428,1.4088,1.4088,1.4088,1.4088,1.4088,1.4088,1.4088,1.4088,1.4088,1.4088,1.4088,1.4088,1.4088,1.4088,1.4088,1.4088,1.4088,1.4088,1.4608,1.5413,1.6067,1.7366,1.8501,1.9441,2.0001,2.0362,2.0566,2.0615,2.0615,2.0615,2.0615,2.0615,2.0635,2.0654,2.0664,2.0674,2.0693,2.0703,2.0693,2.0674,2.0683,2.0713,2.0674,2.0683,2.0625,2.0635,2.0605,2.0576,2.0566,2.0517,2.0419,2.0088,1.9873,1.9731,1.9468,1.9194,1.8883,1.836,1.7224,1.5927,1.4462,1.3039,1.2459,1.2342,0.7988,0.7961,0.7723,0.7597,0.7567,0.7272,0.7095,0.7112,0.7255,0.7421,0.76,0.7743,0.7797,0.7763,0.7746,0.7695,0.7617,0.7746,0.7801,0.7814,0.7807,0.7777,0.7668,0.7489,0.7346,0.7316,0.7146,0.7098,0.7095,0.7095,0.7095,0.7095,0.7095,0.7095,0.7095,0.7095,0.7095,0.7095,0.7095,0.7095,0.7095,0.7095,0.7095,0.736,0.7885,0.8456,0.8755,1.0178,1.1252,1.1986,1.2899,1.3597,1.3997,1.4088,1.4088,1.4088,1.4088,1.4088,1.4088,1.4088,1.4088,1.4088,1.4088,1.4088,1.4088,1.4088,1.4088,1.4088,1.4088,1.465,1.5372,1.5737,1.6675,1.7859,1.8877,1.9481,2.004,2.0284,2.0489,2.0615,2.0615,2.0615,2.0615,2.0615,2.0615,2.0615,2.0615,2.0615,2.0615,2.0615,2.0615,2.0615,2.0615,2.0615,2.0615,2.0615,2.0615,2.0546,2.0517,2.0381,2.0273,2.001,1.9668,1.9502,1.9338,1.9081,1.8776,1.8745,1.8586,1.7045,1.5585,1.4604,1.3557,1.2842,1.2372,0.7988,0.7965,0.7723,0.7607,0.7587,0.7227,0.7105,0.7119,0.7122,0.7339,0.7577,0.7729,0.7723,0.7641,0.7611,0.76,0.7597,0.7746,0.7784,0.7801,0.7804,0.774,0.7624,0.7478,0.7316,0.7193,0.7102,0.7098,0.7095,0.7095,0.7095,0.7095,0.7095,0.7095,0.7095,0.7095,0.7095,0.7095,0.7095,0.7095,0.7095,0.7095,0.7095,0.7095,0.7183,0.7272,0.7312,0.8755,1.0053,1.0869,1.2072,1.3203,1.3906,1.4088,1.4088,1.4088,1.4088,1.4088,1.4088,1.4088,1.4088,1.4088,1.4088,1.4088,1.4088,1.4088,1.4088,1.4088,1.4088,1.4531,1.5213,1.5779,1.6157,1.7009,1.794,1.8669,1.9353,2.004,2.0294,2.0527,2.0615,2.0615,2.0615,2.0615,2.0615,2.0615,2.0615,2.0615,2.0615,2.0615,2.0615,2.0615,2.0615,2.0615,2.0615,2.0595,2.0556,2.0361,2.0244,2.0098,1.9941,1.9619,1.9238,1.8974,1.8783,1.8572,1.8368,1.8209,1.7662,1.6416,1.5287,1.4428,1.3484,1.2592,1.2342,0.7988,0.7968,0.7814,0.7729,0.7716,0.7509,0.737,0.7288,0.7285,0.7336,0.7468,0.7604,0.76,0.7542,0.7508,0.7461,0.7468,0.7509,0.7648,0.777,0.7797,0.7723,0.7611,0.7502,0.7394,0.7146,0.7095,0.7095,0.7095,0.7095,0.7095,0.7095,0.7095,0.7095,0.7095,0.7095,0.7095,0.7095,0.7095,0.7095,0.7095,0.7095,0.7095,0.7095,0.7095,0.7095,0.7316,0.8281,0.9405,1.0567,1.1681,1.2857,1.3864,1.4039,1.4088,1.4088,1.4088,1.4088,1.4088,1.4088,1.4088,1.4088,1.4088,1.4088,1.4088,1.4088,1.4088,1.4088,1.4088,1.4454,1.4531,1.4776,1.5103,1.6034,1.6919,1.773,1.8541,1.9274,1.9971,2.0167,2.045,2.0615,2.0615,2.0615,2.0615,2.0615,2.0615,2.0615,2.0615,2.0586,2.0566,2.0566,2.0566,2.0468,2.0449,2.0468,2.0439,2.0205,1.9971,1.9766,1.9531,1.9114,1.8747,1.8485,1.8209,1.7929,1.77,1.7518,1.6959,1.612,1.5284,1.4461,1.3455,1.2415,1.2305,0.7909,0.7847,0.779,0.775,0.7729,0.7594,0.7448,0.7319,0.7292,0.7302,0.7312,0.7455,0.7448,0.7346,0.7409,0.738,0.7404,0.7461,0.7611,0.7692,0.7709,0.7658,0.7587,0.7472,0.7305,0.7122,0.7095,0.7095,0.7095,0.7095,0.7095,0.7095,0.7095,0.7095,0.7095,0.7095,0.7095,0.7095,0.7095,0.7095,0.7095,0.7095,0.7095,0.7228,0.7492,0.7404,0.7749,0.858,0.9792,1.0697,1.1686,1.2857,1.3646,1.4088,1.4088,1.4088,1.4088,1.4088,1.4088,1.4088,1.4088,1.4088,1.4088,1.4088,1.4088,1.4088,1.4088,1.4088,1.4088,1.4088,1.4088,1.425,1.4412,1.5262,1.5902,1.6675,1.7609,1.8381,1.9195,1.9805,2.0167,2.0605,2.0615,2.0615,2.0615,2.0615,2.0615,2.0615,2.0615,2.0566,2.0488,2.0488,2.0488,2.037,2.0243,2.0224,2.0107,1.9746,1.9512,1.9316,1.9017,1.8666,1.8397,1.822,1.7893,1.7367,1.7245,1.7301,1.6813,1.6132,1.5048,1.3774,1.3237,1.2305,1.2305,0.7621,0.7611,0.7614,0.7611,0.759,0.7444,0.7309,0.7156,0.7125,0.7132,0.7204,0.7329,0.7302,0.7214,0.7292,0.7329,0.736,0.7468,0.7611,0.7662,0.7556,0.7506,0.7461,0.7363,0.7203,0.7122,0.7095,0.7095,0.7095,0.7095,0.7095,0.7095,0.7095,0.7095,0.7095,0.7095,0.7095,0.7095,0.7095,0.7095,0.7095,0.7095,0.7095,0.7272,0.7841,0.7753,0.8013,0.8969,1.0139,1.0999,1.1766,1.2857,1.3913,1.4088,1.4088,1.4088,1.4088,1.4088,1.4088,1.4088,1.4088,1.4088,1.4088,1.4088,1.4088,1.4088,1.4088,1.4088,1.4088,1.4088,1.4088,1.413,1.425,1.4454,1.5137,1.5779,1.6675,1.7326,1.8101,1.8957,1.9923,2.0566,2.0605,2.0615,2.0615,2.0615,2.0615,2.0605,2.0595,2.0449,2.0331,2.0215,2.0185,1.998,1.9871,1.9873,1.9746,1.9365,1.9082,1.889,1.8656,1.8354,1.8134,1.7983,1.7332,1.6611,1.6862,1.7157,1.6324,1.5403,1.3947,1.2842,1.2452,1.2305,1.2305,0.7597,0.7597,0.7597,0.7543,0.7465,0.7506,0.7434,0.7292,0.7152,0.7149,0.7261,0.7261,0.7156,0.7129,0.7139,0.7227,0.7241,0.72,0.7328,0.7495,0.74,0.7414,0.739,0.7339,0.7183,0.7119,0.7095,0.7095,0.7095,0.7095,0.7095,0.7095,0.7095,0.7095,0.7095,0.7095,0.7095,0.7095,0.7095,0.7095,0.7095,0.7095,0.7095,0.7139,0.7665,0.8057,0.8233,0.9449,1.0481,1.1466,1.2285,1.2942,1.3864,1.4088,1.4088,1.4088,1.4088,1.4088,1.4088,1.4088,1.4088,1.4088,1.4088,1.4088,1.4088,1.4088,1.4088,1.4088,1.4088,1.4088,1.4088,1.4088,1.4173,1.4173,1.4608,1.5095,1.5786,1.6191,1.6838,1.7819,1.8789,1.9874,2.0323,2.0459,2.0498,2.0391,2.0333,2.0488,2.0537,2.0225,2.0029,1.9902,1.9805,1.958,1.9453,1.9443,1.9297,1.8926,1.873,1.8578,1.8325,1.81,1.7939,1.7832,1.6802,1.5895,1.6114,1.6149,1.5473,1.4478,1.3629,1.2769,1.2378,1.2305,1.2305,0.7441,0.7441,0.7441,0.7387,0.7326,0.7458,0.7434,0.7292,0.7142,0.7183,0.7312,0.721,0.7136,0.7193,0.7163,0.7095,0.7095,0.7102,0.7183,0.7346,0.7305,0.7333,0.7346,0.7316,0.7169,0.7112,0.7095,0.7095,0.7095,0.7095,0.7095,0.7095,0.7098,0.7095,0.7095,0.7095,0.7095,0.7095,0.7095,0.7095,0.7095,0.7095,0.7095,0.7401,0.7925,0.858,0.9148,1.0014,1.1085,1.2157,1.2766,1.3209,1.3864,1.4088,1.4088,1.4088,1.4088,1.4088,1.4088,1.4088,1.4088,1.4088,1.4088,1.4088,1.4088,1.4088,1.4088,1.4088,1.4088,1.4088,1.4088,1.4088,1.4088,1.4088,1.425,1.4734,1.4936,1.5387,1.5966,1.6903,1.8055,1.9103,1.9893,2.0236,2.0372,2.0207,2.0082,2.0217,2.0361,2.0029,1.9697,1.9465,1.9375,1.918,1.9033,1.8975,1.8744,1.8442,1.8354,1.8295,1.8198,1.8047,1.7847,1.751,1.6402,1.5579,1.5367,1.5119,1.4977,1.4764,1.4378,1.3484,1.2519,1.2305,1.2305,0.7098,0.7095,0.7095,0.7109,0.7125,0.7309,0.7285,0.7112,0.7105,0.7227,0.7356,0.721,0.7149,0.7292,0.72,0.7098,0.7095,0.7095,0.7221,0.7275,0.7227,0.7268,0.7265,0.7224,0.7132,0.7109,0.7095,0.7095,0.7098,0.7183,0.7183,0.7109,0.7177,0.7163,0.7112,0.7095,0.7095,0.7095,0.7095,0.7095,0.7095,0.7095,0.7095,0.7533,0.8532,0.9274,1.0101,1.1397,1.2425,1.3118,1.3385,1.3822,1.4088,1.4088,1.4088,1.4088,1.4088,1.4088,1.4088,1.4088,1.4088,1.4088,1.4088,1.4088,1.4088,1.4088,1.4088,1.4088,1.4088,1.4088,1.4088,1.4088,1.4088,1.4088,1.4088,1.4292,1.437,1.479,1.5333,1.6294,1.7588,1.8535,1.9007,1.9408,1.984,1.9563,1.9412,1.9663,1.9756,1.9707,1.9329,1.8948,1.8831,1.8769,1.8652,1.8584,1.8477,1.8252,1.8174,1.8115,1.8018,1.7974,1.7828,1.7295,1.6053,1.5269,1.4807,1.4799,1.5013,1.4764,1.4199,1.3557,1.2409,1.2305,1.2305,0.7095,0.7095,0.7095,0.7095,0.7102,0.7146,0.7238,0.7285,0.7152,0.7227,0.736,0.7207,0.7139,0.7152,0.7115,0.7098,0.7095,0.7098,0.7115,0.7129,0.7129,0.718,0.7177,0.7166,0.7095,0.7095,0.7095,0.7098,0.717,0.7221,0.7221,0.7163,0.7244,0.7227,0.718,0.7098,0.7105,0.7105,0.7109,0.7095,0.7095,0.7095,0.7139,0.7749,0.8794,0.9536,1.0745,1.1906,1.2899,1.3688,1.3864,1.4088,1.4088,1.4088,1.4088,1.4088,1.4088,1.4088,1.4088,1.4088,1.4088,1.4088,1.4088,1.4088,1.4088,1.4088,1.4088,1.4088,1.4088,1.4088,1.4088,1.4088,1.4088,1.4088,1.4088,1.413,1.4208,1.4377,1.4943,1.5676,1.6945,1.7647,1.8162,1.8779,1.9081,1.8802,1.8788,1.9064,1.9192,1.9199,1.9043,1.8617,1.8432,1.8408,1.8301,1.8213,1.8144,1.8057,1.8018,1.8008,1.8008,1.7974,1.7828,1.7113,1.5869,1.4843,1.4027,1.4163,1.4335,1.3947,1.3419,1.2908,1.2475,1.2378,1.2305,0.7095,0.7095,0.7095,0.7095,0.7095,0.7095,0.72,0.7255,0.7136,0.7227,0.7392,0.7162,0.7129,0.7227,0.7136,0.7095,0.7095,0.7095,0.7105,0.7105,0.7095,0.7102,0.7098,0.7095,0.7095,0.7095,0.7095,0.7095,0.7136,0.7275,0.7302,0.7258,0.7346,0.7305,0.7265,0.7248,0.7241,0.7214,0.7139,0.7105,0.7139,0.7183,0.736,0.7925,0.893,1.0091,1.1171,1.2328,1.3336,1.3997,1.4088,1.4088,1.4088,1.4088,1.4088,1.4088,1.4088,1.4088,1.4088,1.4088,1.4088,1.4088,1.4088,1.4088,1.4088,1.4088,1.4088,1.4088,1.4088,1.4088,1.4088,1.4088,1.4088,1.4088,1.4088,1.4088,1.4088,1.4088,1.4598,1.5162,1.5952,1.6702,1.7384,1.8034,1.8472,1.8382,1.8499,1.88,1.8831,1.8734,1.8633,1.8359,1.8203,1.8086,1.8008,1.8008,1.8018,1.8027,1.8018,1.8008,1.8008,1.7896,1.775,1.6862,1.5693,1.4736,1.3818,1.3455,1.3411,1.3055,1.3025,1.2879,1.2586,1.2342,1.2305,0.7095,0.7095,0.7095,0.7095,0.7095,0.7095,0.7102,0.7095,0.7098,0.7173,0.7302,0.72,0.7207,0.7248,0.7146,0.7098,0.7095,0.7095,0.7095,0.7095,0.7095,0.7095,0.7095,0.7095,0.7095,0.7095,0.7095,0.7098,0.7146,0.7305,0.7411,0.7377,0.74,0.7397,0.7397,0.7392,0.7371,0.7309,0.7241,0.7139,0.719,0.7312,0.7753,0.8842,1.0005,1.1209,1.2242,1.3203,1.4088,1.4088,1.4088,1.4088,1.4088,1.4088,1.4088,1.4088,1.4088,1.4088,1.4088,1.4088,1.4088,1.4088,1.4088,1.4088,1.4088,1.4088,1.4088,1.4088,1.4088,1.4088,1.4088,1.4088,1.4088,1.4088,1.4088,1.4088,1.4088,1.4224,1.4631,1.5108,1.5411,1.6097,1.6365,1.6992,1.7518,1.776,1.8293,1.8637,1.8637,1.85,1.8334,1.8184,1.8086,1.8018,1.8008,1.8008,1.8008,1.8008,1.8008,1.8008,1.8008,1.7862,1.7647,1.6784,1.5895,1.4736,1.3846,1.352,1.3127,1.2696,1.2703,1.2915,1.2732,1.2378,1.2305,0.7095,0.7095,0.7095,0.7095,0.7095,0.7095,0.7095,0.7095,0.7095,0.7119,0.7139,0.7122,0.7115,0.719,0.7129,0.7095,0.7095,0.7095,0.7095,0.7095,0.7095,0.7095,0.7095,0.7095,0.7095,0.7095,0.7095,0.7112,0.7196,0.7383,0.7482,0.7453,0.7514,0.7543,0.7536,0.7518,0.746,0.7397,0.7353,0.7251,0.717,0.7981,0.8759,0.955,1.0549,1.1774,1.2723,1.3447,1.3962,1.4088,1.4088,1.4088,1.4088,1.4088,1.4088,1.4088,1.4088,1.4088,1.4088,1.4088,1.4088,1.4088,1.4088,1.4088,1.4088,1.4088,1.4088,1.4088,1.4088,1.4088,1.4088,1.4088,1.4088,1.4088,1.4088,1.4088,1.4088,1.4421,1.4764,1.4956,1.5138,1.5369,1.5654,1.6023,1.645,1.7219,1.8123,1.8592,1.8627,1.8539,1.8373,1.8242,1.8105,1.8037,1.8018,1.8008,1.8008,1.8008,1.8008,1.8008,1.8008,1.7896,1.7716,1.7035,1.614,1.5226,1.4414,1.3738,1.331,1.2806,1.2415,1.2629,1.2629,1.2305,1.2305,0.7095,0.7095,0.7095,0.7095,0.7095,0.7095,0.7095,0.7095,0.7095,0.7095,0.7095,0.7095,0.7095,0.7095,0.7095,0.7095,0.7095,0.7095,0.7095,0.7095,0.7095,0.7095,0.7095,0.7095,0.7095,0.7095,0.7109,0.7149,0.7267,0.7465,0.755,0.7553,0.7651,0.7685,0.7678,0.76,0.7516,0.7482,0.7525,0.7394,0.7265,0.7908,0.9116,0.9927,1.1071,1.2222,1.3318,1.3956,1.4061,1.4135,1.4088,1.4088,1.4088,1.4088,1.4088,1.4088,1.4088,1.4088,1.4088,1.4088,1.4088,1.4088,1.4088,1.4088,1.4088,1.4088,1.4088,1.4088,1.4088,1.4088,1.4088,1.4088,1.4088,1.4088,1.4088,1.4088,1.4175,1.4392,1.4697,1.4943,1.52,1.5562,1.5947,1.6588,1.7144,1.8357,1.9035,1.8699,1.8695,1.8685,1.849,1.8364,1.833,1.8125,1.8018,1.8008,1.8008,1.8008,1.8008,1.8008,1.8008,1.7974,1.7759,1.7285,1.6784,1.614,1.5359,1.445,1.3738,1.3273,1.2739,1.2342,1.2305,1.2305,1.2305,0.7095,0.7095,0.7095,0.7095,0.7095,0.7095,0.7095,0.7095,0.7095,0.7095,0.7095,0.7095,0.7095,0.7095,0.7095,0.7095,0.7095,0.7095,0.7095,0.7095,0.7095,0.7095,0.7095,0.7095,0.7095,0.7095,0.7102,0.7233,0.7428,0.755,0.7651,0.7763,0.7797,0.7811,0.7838,0.7787,0.7699,0.7675,0.7645,0.7577,0.7531,0.7622,0.9167,1.0493,1.1629,1.2564,1.385,1.4476,1.4349,1.4208,1.4088,1.4088,1.4088,1.4088,1.4088,1.4088,1.4088,1.4088,1.4088,1.4088,1.4088,1.4088,1.4088,1.4108,1.4115,1.4155,1.4162,1.4222,1.4222,1.4202,1.4202,1.4222,1.4222,1.4135,1.4135,1.4095,1.4215,1.4349,1.4603,1.4856,1.5152,1.5512,1.591,1.6597,1.7778,1.9061,1.9533,1.9153,1.887,1.8916,1.8838,1.8779,1.874,1.8496,1.8193,1.8037,1.8047,1.8008,1.8008,1.8008,1.8008,1.8008,1.7974,1.7872,1.732,1.6784,1.6,1.5092,1.4414,1.3774,1.2879,1.2305,1.2305,1.2305,1.2305,0.7095,0.7095,0.7095,0.7095,0.7095,0.7095,0.7095,0.7095,0.7095,0.7095,0.7095,0.7095,0.7095,0.7095,0.7095,0.7095,0.7095,0.7095,0.7095,0.7095,0.7095,0.7095,0.7095,0.7095,0.7095,0.7095,0.7095,0.7146,0.7387,0.7529,0.7614,0.7668,0.7672,0.7807,0.8085,0.7967,0.776,0.778,0.7804,0.7798,0.8181,0.8628,0.9666,1.0954,1.2233,1.3264,1.4195,1.4479,1.4342,1.4182,1.4088,1.4088,1.4088,1.4088,1.4088,1.4088,1.4088,1.4088,1.4088,1.4088,1.4088,1.4095,1.4128,1.4235,1.4302,1.4429,1.4509,1.4703,1.4696,1.4629,1.4629,1.4733,1.4733,1.4409,1.4295,1.4168,1.4155,1.4315,1.4516,1.4556,1.4592,1.4719,1.4751,1.5738,1.7055,1.8267,1.937,1.9107,1.9192,1.9189,1.9121,1.9092,1.9072,1.8887,1.8559,1.8159,1.8071,1.8047,1.8008,1.8008,1.8008,1.8008,1.7974,1.794,1.7828,1.7432,1.6585,1.5799,1.4985,1.4235,1.3018,1.2342,1.2342,1.2305,1.2305]}]]